Wetterdaten: Samstag, 28.01.2023
Datum Zeit Temp. A. Pool Temp. Temp. 5cm Feuchte A. Luftdruck Regen Wind Richtung Richtung Sonnenschein ET UV Solar Taupunkt Windchill Windben Empfang
28.01.2023 00:00 -1,5 C 3,9 C -1,7 C 96 % 1021,4 hPa 0,0 l/m 3,0 km/h (1 Bft) W-SW 255 0 min 0,000 mm 0,0 UV-I 0 W/m -2,1 C -1,5 C 6,4 km/h (2 Bft) 95,45 %
28.01.2023 00:02 -1,5 C 3,9 C -1,7 C 96 % 1021,4 hPa 0,0 l/m 1,8 km/h (1 Bft) SW 231 0 min 0,000 mm 0,0 UV-I 0 W/m -2,1 C -1,5 C 4,8 km/h (1 Bft) 9,52 %
28.01.2023 00:04 -1,5 C 3,9 C -1,7 C 96 % 1021,4 hPa 0,0 l/m 2,5 km/h (1 Bft) W-SW 240 0 min 0,000 mm 0,0 UV-I 0 W/m -2,1 C -1,5 C 3,2 km/h (1 Bft) 91,67 %
28.01.2023 00:06 -1,5 C 3,9 C -1,7 C 96 % 1021,4 hPa 0,0 l/m 2,9 km/h (1 Bft) W-SW 243 0 min 0,000 mm 0,0 UV-I 0 W/m -2,1 C -1,5 C 4,8 km/h (1 Bft) 100,00 %
28.01.2023 00:08 -1,5 C 3,9 C -1,7 C 96 % 1021,4 hPa 0,0 l/m 3,1 km/h (1 Bft) W-SW 251 0 min 0,000 mm 0,0 UV-I 0 W/m -2,1 C -1,5 C 4,8 km/h (1 Bft) 98,00 %
28.01.2023 00:10 -1,5 C 3,9 C -1,7 C 96 % 1021,4 hPa 0,0 l/m 2,2 km/h (1 Bft) W-SW 258 0 min 0,000 mm 0,0 UV-I 0 W/m -2,1 C -1,5 C 3,2 km/h (1 Bft) 100,00 %
28.01.2023 00:12 -1,5 C 3,9 C -1,7 C 96 % 1021,4 hPa 0,0 l/m 3,1 km/h (1 Bft) W-SW 238 0 min 0,000 mm 0,0 UV-I 0 W/m -2,1 C -1,5 C 6,4 km/h (2 Bft) 94,74 %
28.01.2023 00:14 -1,5 C 3,9 C -1,7 C 96 % 1021,4 hPa 0,0 l/m 3,4 km/h (1 Bft) W 259 0 min 0,000 mm 0,0 UV-I 0 W/m -2,1 C -1,5 C 4,8 km/h (1 Bft) 96,23 %
28.01.2023 00:16 -1,5 C 3,9 C -1,7 C 96 % 1021,4 hPa 0,0 l/m 3,8 km/h (1 Bft) W-SW 238 0 min 0,000 mm 0,0 UV-I 0 W/m -2,1 C -1,5 C 4,8 km/h (1 Bft) 96,00 %
28.01.2023 00:18 -1,5 C 3,9 C -1,7 C 96 % 1021,4 hPa 0,0 l/m 3,2 km/h (1 Bft) W-SW 239 0 min 0,000 mm 0,0 UV-I 0 W/m -2,1 C -1,5 C 4,8 km/h (1 Bft) 98,00 %
28.01.2023 00:20 -1,5 C 3,9 C -1,7 C 96 % 1021,4 hPa 0,0 l/m 3,6 km/h (1 Bft) SW 234 0 min 0,000 mm 0,0 UV-I 0 W/m -2,1 C -1,5 C 6,4 km/h (2 Bft) 97,37 %
28.01.2023 00:22 -1,5 C 3,9 C -1,7 C 96 % 1021,4 hPa 0,0 l/m 4,0 km/h (1 Bft) SW 233 0 min 0,000 mm 0,0 UV-I 0 W/m -2,1 C -1,5 C 4,8 km/h (1 Bft) 97,87 %
28.01.2023 00:24 -1,5 C 3,9 C -1,7 C 96 % 1021,4 hPa 0,0 l/m 4,0 km/h (1 Bft) SW 232 0 min 0,000 mm 0,0 UV-I 0 W/m -2,1 C -1,5 C 6,4 km/h (2 Bft) 98,00 %
28.01.2023 00:26 -1,5 C 3,9 C -1,7 C 96 % 1021,4 hPa 0,0 l/m 3,5 km/h (1 Bft) W-SW 240 0 min 0,000 mm 0,0 UV-I 0 W/m -2,1 C -1,5 C 4,8 km/h (1 Bft) 97,62 %
28.01.2023 00:28 -1,5 C 3,9 C -1,7 C 96 % 1021,4 hPa 0,0 l/m 3,7 km/h (1 Bft) W-SW 241 0 min 0,000 mm 0,0 UV-I 0 W/m -2,1 C -1,5 C 4,8 km/h (1 Bft) 93,88 %
28.01.2023 00:30 -1,5 C 3,9 C -1,7 C 96 % 1021,4 hPa 0,0 l/m 2,8 km/h (1 Bft) SW 231 0 min 0,000 mm 0,0 UV-I 0 W/m -2,1 C -1,5 C 4,8 km/h (1 Bft) 98,00 %
28.01.2023 00:32 -1,4 C 3,9 C -1,7 C 96 % 1021,4 hPa 0,0 l/m 3,2 km/h (1 Bft) W-SW 258 0 min 0,000 mm 0,0 UV-I 0 W/m -2,0 C -1,4 C 4,8 km/h (1 Bft) 96,23 %
28.01.2023 00:34 -1,5 C 3,9 C -1,7 C 96 % 1021,4 hPa 0,0 l/m 3,2 km/h (1 Bft) W-SW 252 0 min 0,000 mm 0,0 UV-I 0 W/m -2,1 C -1,5 C 4,8 km/h (1 Bft) 95,12 %
28.01.2023 00:36 -1,5 C 3,9 C -1,7 C 96 % 1021,4 hPa 0,0 l/m 3,4 km/h (1 Bft) W 261 0 min 0,000 mm 0,0 UV-I 0 W/m -2,1 C -1,5 C 4,8 km/h (1 Bft) 96,00 %
28.01.2023 00:38 -1,5 C 3,9 C -1,7 C 96 % 1021,4 hPa 0,0 l/m 3,8 km/h (1 Bft) W 278 0 min 0,000 mm 0,0 UV-I 0 W/m -2,1 C -1,5 C 6,4 km/h (2 Bft) 97,44 %
28.01.2023 00:40 -1,4 C 3,9 C -1,7 C 96 % 1021,4 hPa 0,0 l/m 4,9 km/h (1 Bft) W 260 0 min 0,000 mm 0,0 UV-I 0 W/m -2,0 C -1,4 C 6,4 km/h (2 Bft) 98,00 %
28.01.2023 00:42 -1,4 C 3,9 C -1,7 C 96 % 1021,4 hPa 0,0 l/m 3,9 km/h (1 Bft) W 265 0 min 0,000 mm 0,0 UV-I 0 W/m -2,0 C -1,4 C 6,4 km/h (2 Bft) 97,87 %
28.01.2023 00:44 -1,4 C 3,9 C -1,7 C 96 % 1021,4 hPa 0,0 l/m 4,3 km/h (1 Bft) W 264 0 min 0,000 mm 0,0 UV-I 0 W/m -2,0 C -1,4 C 6,4 km/h (2 Bft) 98,00 %
28.01.2023 00:46 -1,4 C 3,9 C -1,7 C 96 % 1021,4 hPa 0,0 l/m 4,1 km/h (1 Bft) W 277 0 min 0,000 mm 0,0 UV-I 0 W/m -2,0 C -1,4 C 6,4 km/h (2 Bft) 95,92 %
28.01.2023 00:48 -1,4 C 3,9 C -1,7 C 96 % 1021,4 hPa 0,0 l/m 3,9 km/h (1 Bft) W 262 0 min 0,000 mm 0,0 UV-I 0 W/m -2,0 C -1,4 C 6,4 km/h (2 Bft) 94,87 %
28.01.2023 00:50 -1,4 C 3,9 C -1,7 C 96 % 1021,4 hPa 0,0 l/m 4,9 km/h (1 Bft) W-SW 238 0 min 0,000 mm 0,0 UV-I 0 W/m -2,0 C -1,4 C 6,4 km/h (2 Bft) 98,00 %
28.01.2023 00:52 -1,4 C 3,9 C -1,7 C 96 % 1021,4 hPa 0,0 l/m 3,2 km/h (1 Bft) W 277 0 min 0,000 mm 0,0 UV-I 0 W/m -2,0 C -1,4 C 6,4 km/h (2 Bft) 95,12 %
28.01.2023 00:54 -1,4 C 3,9 C -1,7 C 96 % 1021,4 hPa 0,0 l/m 3,8 km/h (1 Bft) W 259 0 min 0,000 mm 0,0 UV-I 0 W/m -2,0 C -1,4 C 6,4 km/h (2 Bft) 94,34 %
28.01.2023 00:56 -1,4 C 3,9 C -1,7 C 96 % 1021,4 hPa 0,0 l/m 4,3 km/h (1 Bft) W 260 0 min 0,000 mm 0,0 UV-I 0 W/m -2,0 C -1,4 C 6,4 km/h (2 Bft) 94,00 %
28.01.2023 00:58 -1,4 C 3,9 C -1,7 C 96 % 1021,4 hPa 0,0 l/m 4,4 km/h (1 Bft) W-SW 255 0 min 0,000 mm 0,0 UV-I 0 W/m -2,0 C -1,4 C 6,4 km/h (2 Bft) 97,37 %
28.01.2023 01:00 -1,4 C 3,9 C -1,7 C 96 % 1021,4 hPa 0,0 l/m 4,2 km/h (1 Bft) W 265 0 min 0,000 mm 0,0 UV-I 0 W/m -2,0 C -1,4 C 9,7 km/h (2 Bft) 94,64 %
28.01.2023 01:02 -1,4 C 3,9 C -1,7 C 96 % 1021,4 hPa 0,0 l/m 4,5 km/h (1 Bft) W-SW 244 0 min 0,000 mm 0,0 UV-I 0 W/m -2,0 C -1,4 C 8,0 km/h (2 Bft) 97,56 %
28.01.2023 01:04 -1,4 C 3,9 C -1,7 C 96 % 1021,4 hPa 0,0 l/m 4,2 km/h (1 Bft) SW 230 0 min 0,000 mm 0,0 UV-I 0 W/m -2,0 C -1,4 C 6,4 km/h (2 Bft) 96,08 %
28.01.2023 01:06 -1,4 C 3,9 C -1,7 C 96 % 1021,4 hPa 0,0 l/m 4,2 km/h (1 Bft) W-SW 246 0 min 0,000 mm 0,0 UV-I 0 W/m -2,0 C -1,4 C 6,4 km/h (2 Bft) 95,74 %
28.01.2023 01:08 -1,4 C 3,9 C -1,7 C 96 % 1021,4 hPa 0,0 l/m 4,1 km/h (1 Bft) W 259 0 min 0,000 mm 0,0 UV-I 0 W/m -2,0 C -1,4 C 6,4 km/h (2 Bft) 89,47 %
28.01.2023 01:10 -1,4 C 3,9 C -1,7 C 96 % 1021,3 hPa 0,0 l/m 4,2 km/h (1 Bft) W 279 0 min 0,000 mm 0,0 UV-I 0 W/m -2,0 C -1,4 C 6,4 km/h (2 Bft) 94,00 %
28.01.2023 01:12 -1,4 C 3,9 C -1,7 C 96 % 1021,3 hPa 0,0 l/m 3,7 km/h (1 Bft) W-SW 242 0 min 0,000 mm 0,0 UV-I 0 W/m -2,0 C -1,4 C 4,8 km/h (1 Bft) 94,64 %
28.01.2023 01:14 -1,4 C 3,9 C -1,7 C 96 % 1021,3 hPa 0,0 l/m 3,5 km/h (1 Bft) W-SW 252 0 min 0,000 mm 0,0 UV-I 0 W/m -2,0 C -1,4 C 4,8 km/h (1 Bft) 97,73 %
28.01.2023 01:16 -1,4 C 3,9 C -1,7 C 96 % 1021,3 hPa 0,0 l/m 3,3 km/h (1 Bft) W 260 0 min 0,000 mm 0,0 UV-I 0 W/m -2,0 C -1,4 C 6,4 km/h (2 Bft) 98,00 %
28.01.2023 01:18 -1,4 C 3,9 C -1,7 C 96 % 1021,4 hPa 0,0 l/m 4,2 km/h (1 Bft) W 267 0 min 0,000 mm 0,0 UV-I 0 W/m -2,0 C -1,4 C 6,4 km/h (2 Bft) 97,56 %
28.01.2023 01:20 -1,4 C 3,9 C -1,7 C 96 % 1021,3 hPa 0,0 l/m 3,2 km/h (1 Bft) W 267 0 min 0,000 mm 0,0 UV-I 0 W/m -2,0 C -1,4 C 4,8 km/h (1 Bft) 95,74 %
28.01.2023 01:22 -1,4 C 3,9 C -1,7 C 96 % 1021,3 hPa 0,0 l/m 3,3 km/h (1 Bft) W 264 0 min 0,000 mm 0,0 UV-I 0 W/m -2,0 C -1,4 C 4,8 km/h (1 Bft) 98,00 %
28.01.2023 01:24 -1,4 C 3,9 C -1,7 C 96 % 1021,3 hPa 0,0 l/m 2,5 km/h (1 Bft) W 265 0 min 0,000 mm 0,0 UV-I 0 W/m -2,0 C -1,4 C 4,8 km/h (1 Bft) 95,45 %
28.01.2023 01:26 -1,4 C 3,9 C -1,7 C 96 % 1021,3 hPa 0,0 l/m 2,3 km/h (1 Bft) W 265 0 min 0,000 mm 0,0 UV-I 0 W/m -2,0 C -1,4 C 3,2 km/h (1 Bft) 94,34 %
28.01.2023 01:28 -1,4 C 3,9 C -1,7 C 96 % 1021,3 hPa 0,0 l/m 3,4 km/h (1 Bft) W-SW 254 0 min 0,000 mm 0,0 UV-I 0 W/m -2,0 C -1,4 C 6,4 km/h (2 Bft) 94,74 %
28.01.2023 01:30 -1,4 C 3,9 C -1,7 C 96 % 1021,3 hPa 0,0 l/m 1,9 km/h (1 Bft) W-SW 255 0 min 0,000 mm 0,0 UV-I 0 W/m -2,0 C -1,4 C 3,2 km/h (1 Bft) 98,11 %
28.01.2023 01:32 -1,4 C 3,9 C -1,7 C 96 % 1021,3 hPa 0,0 l/m 3,7 km/h (1 Bft) W 262 0 min 0,000 mm 0,0 UV-I 0 W/m -2,0 C -1,4 C 6,4 km/h (2 Bft) 91,43 %
28.01.2023 01:34 -1,4 C 3,9 C -1,7 C 96 % 1021,3 hPa 0,0 l/m 3,5 km/h (1 Bft) W-SW 253 0 min 0,000 mm 0,0 UV-I 0 W/m -2,0 C -1,4 C 6,4 km/h (2 Bft) 94,34 %
28.01.2023 01:36 -1,4 C 3,9 C -1,7 C 96 % 1021,3 hPa 0,0 l/m 2,1 km/h (1 Bft) W-SW 253 0 min 0,000 mm 0,0 UV-I 0 W/m -2,0 C -1,4 C 3,2 km/h (1 Bft) 87,80 %
28.01.2023 01:38 -1,4 C 3,9 C -1,7 C 96 % 1021,3 hPa 0,0 l/m 3,1 km/h (1 Bft) W 262 0 min 0,000 mm 0,0 UV-I 0 W/m -2,0 C -1,4 C 4,8 km/h (1 Bft) 94,34 %
28.01.2023 01:40 -1,4 C 3,9 C -1,7 C 96 % 1021,4 hPa 0,0 l/m 2,9 km/h (1 Bft) W-SW 254 0 min 0,000 mm 0,0 UV-I 0 W/m -2,0 C -1,4 C 4,8 km/h (1 Bft) 96,00 %
28.01.2023 01:42 -1,4 C 3,9 C -1,7 C 96 % 1021,4 hPa 0,0 l/m 2,6 km/h (1 Bft) W-SW 251 0 min 0,000 mm 0,0 UV-I 0 W/m -2,0 C -1,4 C 3,2 km/h (1 Bft) 92,00 %
28.01.2023 01:44 -1,4 C 3,9 C -1,7 C 96 % 1021,4 hPa 0,0 l/m 3,2 km/h (1 Bft) W-SW 237 0 min 0,000 mm 0,0 UV-I 0 W/m -2,0 C -1,4 C 4,8 km/h (1 Bft) 95,45 %
28.01.2023 01:46 -1,4 C 3,9 C -1,7 C 96 % 1021,4 hPa 0,0 l/m 2,9 km/h (1 Bft) W-SW 249 0 min 0,000 mm 0,0 UV-I 0 W/m -2,0 C -1,4 C 4,8 km/h (1 Bft) 96,00 %
28.01.2023 01:48 -1,4 C 3,9 C -1,7 C 96 % 1021,4 hPa 0,0 l/m 2,5 km/h (1 Bft) W-SW 252 0 min 0,000 mm 0,0 UV-I 0 W/m -2,0 C -1,4 C 4,8 km/h (1 Bft) 94,74 %
28.01.2023 01:50 -1,4 C 3,9 C -1,7 C 96 % 1021,4 hPa 0,0 l/m 2,7 km/h (1 Bft) SW 236 0 min 0,000 mm 0,0 UV-I 0 W/m -2,0 C -1,4 C 4,8 km/h (1 Bft) 92,00 %
28.01.2023 01:52 -1,4 C 3,9 C -1,7 C 96 % 1021,5 hPa 0,0 l/m 2,3 km/h (1 Bft) W-SW 245 0 min 0,000 mm 0,0 UV-I 0 W/m -2,0 C -1,4 C 4,8 km/h (1 Bft) 94,00 %
28.01.2023 01:54 -1,4 C 3,9 C -1,7 C 96 % 1021,5 hPa 0,0 l/m 3,4 km/h (1 Bft) W 259 0 min 0,000 mm 0,0 UV-I 0 W/m -2,0 C -1,4 C 4,8 km/h (1 Bft) 95,12 %
28.01.2023 01:56 -1,4 C 3,9 C -1,7 C 96 % 1021,4 hPa 0,0 l/m 4,0 km/h (1 Bft) W 278 0 min 0,000 mm 0,0 UV-I 0 W/m -2,0 C -1,4 C 6,4 km/h (2 Bft) 98,00 %
28.01.2023 01:58 -1,4 C 3,9 C -1,7 C 96 % 1021,5 hPa 0,0 l/m 3,1 km/h (1 Bft) W 271 0 min 0,000 mm 0,0 UV-I 0 W/m -2,0 C -1,4 C 4,8 km/h (1 Bft) 96,67 %
28.01.2023 02:00 -1,4 C 3,9 C -1,7 C 96 % 1021,5 hPa 0,0 l/m 2,7 km/h (1 Bft) W-SW 252 0 min 0,000 mm 0,0 UV-I 0 W/m -2,0 C -1,4 C 6,4 km/h (2 Bft) 95,52 %
28.01.2023 02:02 -1,4 C 3,9 C -1,7 C 96 % 1021,5 hPa 0,0 l/m 4,2 km/h (1 Bft) W 263 0 min 0,000 mm 0,0 UV-I 0 W/m -2,0 C -1,4 C 6,4 km/h (2 Bft) 97,56 %
28.01.2023 02:04 -1,4 C 3,9 C -1,7 C 96 % 1021,4 hPa 0,0 l/m 4,1 km/h (1 Bft) W 264 0 min 0,000 mm 0,0 UV-I 0 W/m -2,0 C -1,4 C 6,4 km/h (2 Bft) 95,74 %
28.01.2023 02:06 -1,4 C 3,9 C -1,7 C 96 % 1021,4 hPa 0,0 l/m 3,1 km/h (1 Bft) W 274 0 min 0,000 mm 0,0 UV-I 0 W/m -2,0 C -1,4 C 4,8 km/h (1 Bft) 91,49 %
28.01.2023 02:08 -1,4 C 3,9 C -1,7 C 96 % 1021,5 hPa 0,0 l/m 3,6 km/h (1 Bft) W 269 0 min 0,000 mm 0,0 UV-I 0 W/m -2,0 C -1,4 C 4,8 km/h (1 Bft) 92,45 %
28.01.2023 02:10 -1,4 C 3,9 C -1,7 C 96 % 1021,5 hPa 0,0 l/m 2,5 km/h (1 Bft) W 270 0 min 0,000 mm 0,0 UV-I 0 W/m -2,0 C -1,4 C 3,2 km/h (1 Bft) 100,00 %
28.01.2023 02:12 -1,4 C 3,9 C -1,7 C 96 % 1021,5 hPa 0,0 l/m 3,5 km/h (1 Bft) W 263 0 min 0,000 mm 0,0 UV-I 0 W/m -2,0 C -1,4 C 6,4 km/h (2 Bft) 98,44 %
28.01.2023 02:14 -1,4 C 3,9 C -1,7 C 96 % 1021,5 hPa 0,0 l/m 3,3 km/h (1 Bft) W 261 0 min 0,000 mm 0,0 UV-I 0 W/m -2,0 C -1,4 C 4,8 km/h (1 Bft) 97,62 %
28.01.2023 02:16 -1,4 C 3,9 C -1,7 C 96 % 1021,5 hPa 0,0 l/m 3,8 km/h (1 Bft) W 259 0 min 0,000 mm 0,0 UV-I 0 W/m -2,0 C -1,4 C 4,8 km/h (1 Bft) 100,00 %
28.01.2023 02:18 -1,4 C 3,9 C -1,7 C 96 % 1021,5 hPa 0,0 l/m 3,1 km/h (1 Bft) W 260 0 min 0,000 mm 0,0 UV-I 0 W/m -2,0 C -1,4 C 4,8 km/h (1 Bft) 98,36 %
28.01.2023 02:20 -1,4 C 3,9 C -1,7 C 96 % 1021,5 hPa 0,0 l/m 3,0 km/h (1 Bft) W 262 0 min 0,000 mm 0,0 UV-I 0 W/m -2,0 C -1,4 C 3,2 km/h (1 Bft) 100,00 %
28.01.2023 02:22 -1,4 C 3,9 C -1,7 C 96 % 1021,6 hPa 0,0 l/m 2,7 km/h (1 Bft) W 263 0 min 0,000 mm 0,0 UV-I 0 W/m -2,0 C -1,4 C 4,8 km/h (1 Bft) 97,56 %
28.01.2023 02:24 -1,4 C 3,9 C -1,7 C 96 % 1021,5 hPa 0,0 l/m 2,4 km/h (1 Bft) W 260 0 min 0,000 mm 0,0 UV-I 0 W/m -2,0 C -1,4 C 4,8 km/h (1 Bft) 97,87 %
28.01.2023 02:26 -1,4 C 3,9 C -1,7 C 96 % 1021,5 hPa 0,0 l/m 4,0 km/h (1 Bft) W 278 0 min 0,000 mm 0,0 UV-I 0 W/m -2,0 C -1,4 C 6,4 km/h (2 Bft) 100,00 %
28.01.2023 02:28 -1,4 C 3,9 C -1,7 C 96 % 1021,6 hPa 0,0 l/m 3,4 km/h (1 Bft) W 271 0 min 0,000 mm 0,0 UV-I 0 W/m -2,0 C -1,4 C 4,8 km/h (1 Bft) 97,87 %
28.01.2023 02:30 -1,4 C 3,9 C -1,7 C 96 % 1021,5 hPa 0,0 l/m 2,5 km/h (1 Bft) W 275 0 min 0,000 mm 0,0 UV-I 0 W/m -2,0 C -1,4 C 3,2 km/h (1 Bft) 100,00 %
28.01.2023 02:32 -1,4 C 3,9 C -1,7 C 96 % 1021,6 hPa 0,0 l/m 3,1 km/h (1 Bft) W 269 0 min 0,000 mm 0,0 UV-I 0 W/m -2,0 C -1,4 C 4,8 km/h (1 Bft) 98,00 %
28.01.2023 02:34 -1,4 C 3,9 C -1,7 C 96 % 1021,6 hPa 0,0 l/m 3,3 km/h (1 Bft) W 270 0 min 0,000 mm 0,0 UV-I 0 W/m -2,0 C -1,4 C 6,4 km/h (2 Bft) 100,00 %
28.01.2023 02:36 -1,4 C 3,9 C -1,7 C 96 % 1021,6 hPa 0,0 l/m 2,8 km/h (1 Bft) W 275 0 min 0,000 mm 0,0 UV-I 0 W/m -2,0 C -1,4 C 4,8 km/h (1 Bft) 100,00 %
28.01.2023 02:38 -1,4 C 3,9 C -1,7 C 96 % 1021,6 hPa 0,0 l/m 3,4 km/h (1 Bft) W 270 0 min 0,000 mm 0,0 UV-I 0 W/m -2,0 C -1,4 C 6,4 km/h (2 Bft) 100,00 %
28.01.2023 02:40 -1,4 C 3,9 C -1,7 C 96 % 1021,6 hPa 0,0 l/m 3,8 km/h (1 Bft) W 279 0 min 0,000 mm 0,0 UV-I 0 W/m -2,0 C -1,4 C 6,4 km/h (2 Bft) 98,00 %
28.01.2023 02:42 -1,4 C 3,9 C -1,7 C 96 % 1021,6 hPa 0,0 l/m 3,8 km/h (1 Bft) W 267 0 min 0,000 mm 0,0 UV-I 0 W/m -2,0 C -1,4 C 6,4 km/h (2 Bft) 97,92 %
28.01.2023 02:44 -1,4 C 3,9 C -1,7 C 96 % 1021,6 hPa 0,0 l/m 4,5 km/h (1 Bft) W-SW 254 0 min 0,000 mm 0,0 UV-I 0 W/m -2,0 C -1,4 C 6,4 km/h (2 Bft) 97,37 %
28.01.2023 02:46 -1,4 C 3,9 C -1,7 C 96 % 1021,6 hPa 0,0 l/m 3,0 km/h (1 Bft) W 261 0 min 0,000 mm 0,0 UV-I 0 W/m -2,0 C -1,4 C 4,8 km/h (1 Bft) 98,00 %
28.01.2023 02:48 -1,4 C 3,9 C -1,7 C 96 % 1021,6 hPa 0,0 l/m 4,2 km/h (1 Bft) W 261 0 min 0,000 mm 0,0 UV-I 0 W/m -2,0 C -1,4 C 6,4 km/h (2 Bft) 94,34 %
28.01.2023 02:50 -1,4 C 3,9 C -1,7 C 96 % 1021,6 hPa 0,0 l/m 2,7 km/h (1 Bft) W 269 0 min 0,000 mm 0,0 UV-I 0 W/m -2,0 C -1,4 C 4,8 km/h (1 Bft) 97,87 %
28.01.2023 02:52 -1,4 C 3,9 C -1,7 C 96 % 1021,6 hPa 0,0 l/m 2,5 km/h (1 Bft) W 279 0 min 0,000 mm 0,0 UV-I 0 W/m -2,0 C -1,4 C 4,8 km/h (1 Bft) 94,74 %
28.01.2023 02:54 -1,4 C 3,9 C -1,7 C 96 % 1021,6 hPa 0,0 l/m 3,6 km/h (1 Bft) W 265 0 min 0,000 mm 0,0 UV-I 0 W/m -2,0 C -1,4 C 6,4 km/h (2 Bft) 94,29 %
28.01.2023 02:56 -1,4 C 3,9 C -1,7 C 96 % 1021,6 hPa 0,0 l/m 2,7 km/h (1 Bft) W 271 0 min 0,000 mm 0,0 UV-I 0 W/m -2,0 C -1,4 C 4,8 km/h (1 Bft) 93,55 %
28.01.2023 02:58 -1,4 C 3,9 C -1,7 C 96 % 1021,6 hPa 0,0 l/m 2,4 km/h (1 Bft) W 270 0 min 0,000 mm 0,0 UV-I 0 W/m -2,0 C -1,4 C 4,8 km/h (1 Bft) 97,73 %
28.01.2023 03:00 -1,4 C 3,9 C -1,7 C 96 % 1021,7 hPa 0,0 l/m 3,1 km/h (1 Bft) W 269 0 min 0,000 mm 0,0 UV-I 0 W/m -2,0 C -1,4 C 4,8 km/h (1 Bft) 96,00 %
28.01.2023 03:02 -1,4 C 3,9 C -1,7 C 96 % 1021,6 hPa 0,0 l/m 2,4 km/h (1 Bft) W-NW 286 0 min 0,000 mm 0,0 UV-I 0 W/m -2,0 C -1,4 C 3,2 km/h (1 Bft) 95,74 %
28.01.2023 03:04 -1,4 C 3,9 C -1,7 C 96 % 1021,6 hPa 0,0 l/m 2,6 km/h (1 Bft) W 270 0 min 0,000 mm 0,0 UV-I 0 W/m -2,0 C -1,4 C 4,8 km/h (1 Bft) 97,87 %
28.01.2023 03:06 -1,4 C 3,9 C -1,7 C 96 % 1021,7 hPa 0,0 l/m 3,0 km/h (1 Bft) W 279 0 min 0,000 mm 0,0 UV-I 0 W/m -2,0 C -1,4 C 4,8 km/h (1 Bft) 96,00 %
28.01.2023 03:08 -1,4 C 3,9 C -1,7 C 96 % 1021,7 hPa 0,0 l/m 3,2 km/h (1 Bft) W-NW 284 0 min 0,000 mm 0,0 UV-I 0 W/m -2,0 C -1,4 C 6,4 km/h (2 Bft) 100,00 %
28.01.2023 03:10 -1,4 C 3,9 C -1,7 C 96 % 1021,7 hPa 0,0 l/m 2,3 km/h (1 Bft) W 275 0 min 0,000 mm 0,0 UV-I 0 W/m -2,0 C -1,4 C 4,8 km/h (1 Bft) 97,37 %
28.01.2023 03:12 -1,4 C 3,9 C -1,7 C 96 % 1021,7 hPa 0,0 l/m 1,9 km/h (1 Bft) W-NW 290 0 min 0,000 mm 0,0 UV-I 0 W/m -2,0 C -1,4 C 4,8 km/h (1 Bft) 100,00 %
28.01.2023 03:14 -1,4 C 3,9 C -1,7 C 96 % 1021,7 hPa 0,0 l/m 2,7 km/h (1 Bft) W-NW 302 0 min 0,000 mm 0,0 UV-I 0 W/m -2,0 C -1,4 C 4,8 km/h (1 Bft) 100,00 %
28.01.2023 03:16 -1,4 C 3,9 C -1,7 C 96 % 1021,7 hPa 0,0 l/m 3,0 km/h (1 Bft) NW 310 0 min 0,000 mm 0,0 UV-I 0 W/m -2,0 C -1,4 C 4,8 km/h (1 Bft) 96,00 %
28.01.2023 03:18 -1,4 C 3,9 C -1,7 C 96 % 1021,7 hPa 0,0 l/m 2,3 km/h (1 Bft) W 281 0 min 0,000 mm 0,0 UV-I 0 W/m -2,0 C -1,4 C 4,8 km/h (1 Bft) 100,00 %
28.01.2023 03:20 -1,4 C 3,9 C -1,7 C 96 % 1021,7 hPa 0,0 l/m 0,9 km/h (0 Bft) W-NW 282 0 min 0,000 mm 0,0 UV-I 0 W/m -2,0 C -1,4 C 3,2 km/h (1 Bft) 97,87 %
28.01.2023 03:22 -1,4 C 3,9 C -1,7 C 96 % 1021,7 hPa 0,0 l/m 1,3 km/h (1 Bft) W-NW 302 0 min 0,000 mm 0,0 UV-I 0 W/m -2,0 C -1,4 C 4,8 km/h (1 Bft) 100,00 %
28.01.2023 03:24 -1,4 C 3,9 C -1,7 C 96 % 1021,7 hPa 0,0 l/m 2,3 km/h (1 Bft) W 264 0 min 0,000 mm 0,0 UV-I 0 W/m -2,0 C -1,4 C 6,4 km/h (2 Bft) 98,00 %
28.01.2023 03:26 -1,4 C 3,9 C -1,7 C 96 % 1021,7 hPa 0,0 l/m 1,0 km/h (0 Bft) W 271 0 min 0,000 mm 0,0 UV-I 0 W/m -2,0 C -1,4 C 3,2 km/h (1 Bft) 100,00 %
28.01.2023 03:28 -1,4 C 3,9 C -1,7 C 96 % 1021,7 hPa 0,0 l/m 1,0 km/h (0 Bft) W 271 0 min 0,000 mm 0,0 UV-I 0 W/m -2,0 C -1,4 C 1,6 km/h (1 Bft) 98,11 %
28.01.2023 03:30 -1,4 C 3,9 C -1,7 C 96 % 1021,7 hPa 0,0 l/m 1,2 km/h (1 Bft) W 271 0 min 0,000 mm 0,0 UV-I 0 W/m -2,0 C -1,4 C 3,2 km/h (1 Bft) 97,73 %
28.01.2023 03:32 -1,4 C 3,9 C -1,7 C 96 % 1021,7 hPa 0,0 l/m 1,5 km/h (1 Bft) W-NW 301 0 min 0,000 mm 0,0 UV-I 0 W/m -2,0 C -1,4 C 4,8 km/h (1 Bft) 100,00 %
28.01.2023 03:34 -1,4 C 3,9 C -1,7 C 96 % 1021,7 hPa 0,0 l/m 1,0 km/h (0 Bft) W-NW 298 0 min 0,000 mm 0,0 UV-I 0 W/m -2,0 C -1,4 C 4,8 km/h (1 Bft) 97,14 %
28.01.2023 03:36 -1,4 C 3,9 C -1,7 C 96 % 1021,7 hPa 0,0 l/m 1,6 km/h (1 Bft) W-NW 298 0 min 0,000 mm 0,0 UV-I 0 W/m -2,0 C -1,4 C 3,2 km/h (1 Bft) 97,87 %
28.01.2023 03:38 -1,4 C 3,9 C -1,7 C 96 % 1021,7 hPa 0,0 l/m 1,6 km/h (1 Bft) W-NW 296 0 min 0,000 mm 0,0 UV-I 0 W/m -2,0 C -1,4 C 3,2 km/h (1 Bft) 100,00 %
28.01.2023 03:40 -1,4 C 3,9 C -1,7 C 96 % 1021,7 hPa 0,0 l/m 2,1 km/h (1 Bft) W-NW 292 0 min 0,000 mm 0,0 UV-I 0 W/m -2,0 C -1,4 C 3,2 km/h (1 Bft) 100,00 %
28.01.2023 03:42 -1,4 C 3,9 C -1,7 C 96 % 1021,7 hPa 0,0 l/m 1,9 km/h (1 Bft) W-NW 298 0 min 0,000 mm 0,0 UV-I 0 W/m -2,0 C -1,4 C 4,8 km/h (1 Bft) 100,00 %
28.01.2023 03:44 -1,4 C 3,9 C -1,7 C 96 % 1021,7 hPa 0,0 l/m 0,4 km/h (0 Bft) W-NW 298 0 min 0,000 mm 0,0 UV-I 0 W/m -2,0 C -1,4 C 1,6 km/h (1 Bft) 92,68 %
28.01.2023 03:46 -1,4 C 3,9 C -1,7 C 96 % 1021,7 hPa 0,0 l/m 0,5 km/h (0 Bft) W-NW 294 0 min 0,000 mm 0,0 UV-I 0 W/m -2,0 C -1,4 C 3,2 km/h (1 Bft) 95,74 %
28.01.2023 03:48 -1,4 C 3,9 C -1,7 C 96 % 1021,7 hPa 0,0 l/m 1,1 km/h (1 Bft) W-NW 295 0 min 0,000 mm 0,0 UV-I 0 W/m -2,0 C -1,4 C 3,2 km/h (1 Bft) 96,00 %
28.01.2023 03:50 -1,4 C 3,9 C -1,7 C 96 % 1021,7 hPa 0,0 l/m 0,9 km/h (0 Bft) W-NW 300 0 min 0,000 mm 0,0 UV-I 0 W/m -2,0 C -1,4 C 4,8 km/h (1 Bft) 97,37 %
28.01.2023 03:52 -1,4 C 3,9 C -1,7 C 96 % 1021,7 hPa 0,0 l/m 2,3 km/h (1 Bft) W-NW 288 0 min 0,000 mm 0,0 UV-I 0 W/m -2,0 C -1,4 C 3,2 km/h (1 Bft) 98,00 %
28.01.2023 03:54 -1,4 C 3,9 C -1,7 C 96 % 1021,7 hPa 0,0 l/m 0,5 km/h (0 Bft) W-NW 289 0 min 0,000 mm 0,0 UV-I 0 W/m -2,0 C -1,4 C 1,6 km/h (1 Bft) 98,00 %
28.01.2023 03:56 -1,4 C 3,9 C -1,7 C 96 % 1021,7 hPa 0,0 l/m 0,8 km/h (0 Bft) W-NW 288 0 min 0,000 mm 0,0 UV-I 0 W/m -2,0 C -1,4 C 3,2 km/h (1 Bft) 94,34 %
28.01.2023 03:58 -1,4 C 3,9 C -1,7 C 96 % 1021,7 hPa 0,0 l/m 0,4 km/h (0 Bft) W-NW 301 0 min 0,000 mm 0,0 UV-I 0 W/m -2,0 C -1,4 C 3,2 km/h (1 Bft) 90,91 %
28.01.2023 04:00 -1,4 C 3,9 C -1,7 C 96 % 1021,7 hPa 0,0 l/m 0,5 km/h (0 Bft) W-NW 300 0 min 0,000 mm 0,0 UV-I 0 W/m -2,0 C -1,4 C 3,2 km/h (1 Bft) 95,74 %
28.01.2023 04:02 -1,4 C 3,9 C -1,7 C 96 % 1021,8 hPa 0,0 l/m 0,8 km/h (0 Bft) W-NW 300 0 min 0,000 mm 0,0 UV-I 0 W/m -2,0 C -1,4 C 3,2 km/h (1 Bft) 84,85 %
28.01.2023 04:04 -1,4 C 3,9 C -1,7 C 96 % 1021,8 hPa 0,0 l/m 0,2 km/h (0 Bft) W-NW 300 0 min 0,000 mm 0,0 UV-I 0 W/m -2,0 C -1,4 C 1,6 km/h (1 Bft) 89,47 %
28.01.2023 04:06 -1,4 C 3,9 C -1,7 C 96 % 1021,8 hPa 0,0 l/m 0,9 km/h (0 Bft) W-NW 300 0 min 0,000 mm 0,0 UV-I 0 W/m -2,0 C -1,4 C 3,2 km/h (1 Bft) 93,62 %
28.01.2023 04:08 -1,4 C 3,9 C -1,7 C 96 % 1021,8 hPa 0,0 l/m 1,2 km/h (1 Bft) W-NW 300 0 min 0,000 mm 0,0 UV-I 0 W/m -2,0 C -1,4 C 3,2 km/h (1 Bft) 93,62 %
28.01.2023 04:10 -1,4 C 3,9 C -1,7 C 96 % 1021,8 hPa 0,0 l/m 1,9 km/h (1 Bft) W-NW 296 0 min 0,000 mm 0,0 UV-I 0 W/m -2,0 C -1,4 C 4,8 km/h (1 Bft) 91,49 %
28.01.2023 04:12 -1,4 C 3,9 C -1,7 C 96 % 1021,8 hPa 0,0 l/m 0,4 km/h (0 Bft) W-NW 296 0 min 0,000 mm 0,0 UV-I 0 W/m -2,0 C -1,4 C 1,6 km/h (1 Bft) 91,67 %
28.01.2023 04:14 -1,4 C 3,9 C -1,7 C 96 % 1021,8 hPa 0,0 l/m 0,6 km/h (0 Bft) W-NW 296 0 min 0,000 mm 0,0 UV-I 0 W/m -2,0 C -1,4 C 1,6 km/h (1 Bft) 92,73 %
28.01.2023 04:16 -1,4 C 3,9 C -1,7 C 96 % 1021,8 hPa 0,0 l/m 0,4 km/h (0 Bft) W-NW 296 0 min 0,000 mm 0,0 UV-I 0 W/m -2,0 C -1,4 C 1,6 km/h (1 Bft) 91,49 %
28.01.2023 04:18 -1,5 C 3,9 C -1,7 C 96 % 1021,9 hPa 0,0 l/m 1,5 km/h (1 Bft) NW 306 0 min 0,000 mm 0,0 UV-I 0 W/m -2,1 C -1,5 C 4,8 km/h (1 Bft) 95,74 %
28.01.2023 04:20 -1,5 C 3,9 C -1,7 C 96 % 1021,8 hPa 0,0 l/m 2,1 km/h (1 Bft) NW 304 0 min 0,000 mm 0,0 UV-I 0 W/m -2,1 C -1,5 C 4,8 km/h (1 Bft) 95,74 %
28.01.2023 04:22 -1,4 C 3,9 C -1,7 C 96 % 1021,8 hPa 0,0 l/m 1,4 km/h (1 Bft) W-NW 303 0 min 0,000 mm 0,0 UV-I 0 W/m -2,0 C -1,4 C 3,2 km/h (1 Bft) 95,74 %
28.01.2023 04:24 -1,4 C 3,9 C -1,7 C 96 % 1021,9 hPa 0,0 l/m 1,4 km/h (1 Bft) W-NW 284 0 min 0,000 mm 0,0 UV-I 0 W/m -2,0 C -1,4 C 4,8 km/h (1 Bft) 95,74 %
28.01.2023 04:26 -1,4 C 3,9 C -1,7 C 96 % 1021,8 hPa 0,0 l/m 1,9 km/h (1 Bft) W-NW 289 0 min 0,000 mm 0,0 UV-I 0 W/m -2,0 C -1,4 C 4,8 km/h (1 Bft) 94,34 %
28.01.2023 04:28 -1,4 C 3,9 C -1,7 C 96 % 1021,9 hPa 0,0 l/m 1,7 km/h (1 Bft) W-NW 289 0 min 0,000 mm 0,0 UV-I 0 W/m -2,0 C -1,4 C 3,2 km/h (1 Bft) 94,00 %
28.01.2023 04:30 -1,4 C 3,9 C -1,7 C 96 % 1021,9 hPa 0,0 l/m 2,1 km/h (1 Bft) W 264 0 min 0,000 mm 0,0 UV-I 0 W/m -2,0 C -1,4 C 4,8 km/h (1 Bft) 95,74 %
28.01.2023 04:32 -1,4 C 3,9 C -1,7 C 96 % 1021,9 hPa 0,0 l/m 0,6 km/h (0 Bft) W 264 0 min 0,000 mm 0,0 UV-I 0 W/m -2,0 C -1,4 C 1,6 km/h (1 Bft) 91,67 %
28.01.2023 04:34 -1,4 C 3,9 C -1,7 C 96 % 1021,9 hPa 0,0 l/m 0,6 km/h (0 Bft) W 264 0 min 0,000 mm 0,0 UV-I 0 W/m -2,0 C -1,4 C 3,2 km/h (1 Bft) 94,23 %
28.01.2023 04:36 -1,4 C 3,9 C -1,7 C 96 % 1021,9 hPa 0,0 l/m 0,7 km/h (0 Bft) W 265 0 min 0,000 mm 0,0 UV-I 0 W/m -2,0 C -1,4 C 3,2 km/h (1 Bft) 98,00 %
28.01.2023 04:38 -1,4 C 3,9 C -1,7 C 96 % 1022,0 hPa 0,0 l/m 0,0 km/h (0 Bft) W 265 0 min 0,000 mm 0,0 UV-I 0 W/m -2,0 C -1,4 C 0,0 km/h (0 Bft) 98,00 %
28.01.2023 04:40 -1,4 C 3,9 C -1,7 C 96 % 1022,0 hPa 0,0 l/m 1,8 km/h (1 Bft) W-NW 285 0 min 0,000 mm 0,0 UV-I 0 W/m -2,0 C -1,4 C 3,2 km/h (1 Bft) 94,87 %
28.01.2023 04:42 -1,4 C 3,9 C -1,7 C 96 % 1022,0 hPa 0,0 l/m 1,9 km/h (1 Bft) W-NW 285 0 min 0,000 mm 0,0 UV-I 0 W/m -2,0 C -1,4 C 3,2 km/h (1 Bft) 93,88 %
28.01.2023 04:44 -1,4 C 3,9 C -1,7 C 96 % 1022,1 hPa 0,0 l/m 0,0 km/h (0 Bft) W-NW 285 0 min 0,000 mm 0,0 UV-I 0 W/m -2,0 C -1,4 C 0,0 km/h (0 Bft) 93,62 %
28.01.2023 04:46 -1,4 C 3,9 C -1,7 C 96 % 1022,1 hPa 0,0 l/m 0,0 km/h (0 Bft) W-NW 285 0 min 0,000 mm 0,0 UV-I 0 W/m -2,0 C -1,4 C 1,6 km/h (1 Bft) 96,00 %
28.01.2023 04:48 -1,4 C 3,9 C -1,7 C 96 % 1022,1 hPa 0,0 l/m 1,5 km/h (1 Bft) W-NW 288 0 min 0,000 mm 0,0 UV-I 0 W/m -2,0 C -1,4 C 3,2 km/h (1 Bft) 100,00 %
28.01.2023 04:50 -1,4 C 3,9 C -1,7 C 96 % 1022,1 hPa 0,0 l/m 1,5 km/h (1 Bft) NW 306 0 min 0,000 mm 0,0 UV-I 0 W/m -2,0 C -1,4 C 3,2 km/h (1 Bft) 95,74 %
28.01.2023 04:52 -1,5 C 3,9 C -1,7 C 96 % 1022,1 hPa 0,0 l/m 2,9 km/h (1 Bft) W-NW 296 0 min 0,000 mm 0,0 UV-I 0 W/m -2,1 C -1,5 C 4,8 km/h (1 Bft) 98,18 %
28.01.2023 04:54 -1,5 C 3,9 C -1,7 C 96 % 1022,1 hPa 0,0 l/m 1,5 km/h (1 Bft) W-NW 296 0 min 0,000 mm 0,0 UV-I 0 W/m -2,1 C -1,5 C 3,2 km/h (1 Bft) 97,44 %
28.01.2023 04:56 -1,4 C 3,9 C -1,7 C 96 % 1022,1 hPa 0,0 l/m 1,3 km/h (1 Bft) W-NW 292 0 min 0,000 mm 0,0 UV-I 0 W/m -2,0 C -1,4 C 3,2 km/h (1 Bft) 92,45 %
28.01.2023 04:58 -1,5 C 3,9 C -1,7 C 96 % 1022,1 hPa 0,0 l/m 1,0 km/h (0 Bft) W-NW 292 0 min 0,000 mm 0,0 UV-I 0 W/m -2,1 C -1,5 C 3,2 km/h (1 Bft) 94,74 %
28.01.2023 05:00 -1,4 C 3,9 C -2,2 C 96 % 1022,1 hPa 0,0 l/m 0,2 km/h (0 Bft) W-NW 292 0 min 0,000 mm 0,0 UV-I 0 W/m -2,0 C -1,4 C 1,6 km/h (1 Bft) 98,11 %
28.01.2023 05:02 -1,5 C 3,9 C -1,7 C 96 % 1022,1 hPa 0,0 l/m 1,4 km/h (1 Bft) W-NW 291 0 min 0,000 mm 0,0 UV-I 0 W/m -2,1 C -1,5 C 3,2 km/h (1 Bft) 93,62 %
28.01.2023 05:04 -1,5 C 3,9 C -1,7 C 96 % 1022,1 hPa 0,0 l/m 1,0 km/h (0 Bft) W-NW 291 0 min 0,000 mm 0,0 UV-I 0 W/m -2,1 C -1,5 C 3,2 km/h (1 Bft) 96,00 %
28.01.2023 05:06 -1,5 C 3,9 C -2,2 C 96 % 1022,1 hPa 0,0 l/m 1,3 km/h (1 Bft) W-NW 290 0 min 0,000 mm 0,0 UV-I 0 W/m -2,1 C -1,5 C 3,2 km/h (1 Bft) 98,00 %
28.01.2023 05:08 -1,5 C 3,9 C -2,2 C 96 % 1022,1 hPa 0,0 l/m 0,6 km/h (0 Bft) W-NW 290 0 min 0,000 mm 0,0 UV-I 0 W/m -2,1 C -1,5 C 1,6 km/h (1 Bft) 100,00 %
28.01.2023 05:10 -1,5 C 3,9 C -2,2 C 96 % 1022,1 hPa 0,0 l/m 0,8 km/h (0 Bft) W-NW 290 0 min 0,000 mm 0,0 UV-I 0 W/m -2,1 C -1,5 C 1,6 km/h (1 Bft) 98,11 %
28.01.2023 05:12 -1,5 C 3,9 C -1,7 C 96 % 1022,1 hPa 0,0 l/m 1,2 km/h (1 Bft) W-NW 284 0 min 0,000 mm 0,0 UV-I 0 W/m -2,1 C -1,5 C 3,2 km/h (1 Bft) 95,74 %
28.01.2023 05:14 -1,5 C 3,9 C -1,7 C 96 % 1022,1 hPa 0,0 l/m 0,3 km/h (0 Bft) W 281 0 min 0,000 mm 0,0 UV-I 0 W/m -2,1 C -1,5 C 3,2 km/h (1 Bft) 97,87 %
28.01.2023 05:16 -1,4 C 3,9 C -1,7 C 96 % 1022,2 hPa 0,0 l/m 0,5 km/h (0 Bft) W-NW 282 0 min 0,000 mm 0,0 UV-I 0 W/m -2,0 C -1,4 C 1,6 km/h (1 Bft) 97,14 %
28.01.2023 05:18 -1,4 C 3,9 C -1,7 C 96 % 1022,2 hPa 0,0 l/m 0,2 km/h (0 Bft) W-NW 282 0 min 0,000 mm 0,0 UV-I 0 W/m -2,0 C -1,4 C 1,6 km/h (1 Bft) 94,64 %
28.01.2023 05:20 -1,4 C 3,9 C -1,7 C 96 % 1022,2 hPa 0,0 l/m 1,1 km/h (1 Bft) NW 315 0 min 0,000 mm 0,0 UV-I 0 W/m -2,0 C -1,4 C 3,2 km/h (1 Bft) 98,00 %
28.01.2023 05:22 -1,4 C 3,9 C -1,7 C 96 % 1022,3 hPa 0,0 l/m 1,4 km/h (1 Bft) NW 314 0 min 0,000 mm 0,0 UV-I 0 W/m -2,0 C -1,4 C 3,2 km/h (1 Bft) 96,00 %
28.01.2023 05:24 -1,4 C 3,9 C -1,7 C 96 % 1022,4 hPa 0,0 l/m 0,4 km/h (0 Bft) W-NW 291 0 min 0,000 mm 0,0 UV-I 0 W/m -2,0 C -1,4 C 4,8 km/h (1 Bft) 97,87 %
28.01.2023 05:26 -1,4 C 3,9 C -1,7 C 96 % 1022,3 hPa 0,0 l/m 0,7 km/h (0 Bft) W-NW 292 0 min 0,000 mm 0,0 UV-I 0 W/m -2,0 C -1,4 C 3,2 km/h (1 Bft) 97,37 %
28.01.2023 05:28 -1,4 C 3,9 C -1,7 C 96 % 1022,4 hPa 0,0 l/m 0,0 km/h (0 Bft) W-NW 291 0 min 0,000 mm 0,0 UV-I 0 W/m -2,0 C -1,4 C 0,0 km/h (0 Bft) 96,23 %
28.01.2023 05:30 -1,4 C 3,9 C -1,7 C 96 % 1022,3 hPa 0,0 l/m 0,0 km/h (0 Bft) W-NW 291 0 min 0,000 mm 0,0 UV-I 0 W/m -2,0 C -1,4 C 0,0 km/h (0 Bft) 94,74 %
28.01.2023 05:32 -1,4 C 3,9 C -1,7 C 96 % 1022,4 hPa 0,0 l/m 0,0 km/h (0 Bft) W-NW 292 0 min 0,000 mm 0,0 UV-I 0 W/m -2,0 C -1,4 C 0,0 km/h (0 Bft) 98,00 %
28.01.2023 05:34 -1,5 C 3,9 C -1,7 C 96 % 1022,4 hPa 0,0 l/m 0,0 km/h (0 Bft) W-NW 292 0 min 0,000 mm 0,0 UV-I 0 W/m -2,1 C -1,5 C 0,0 km/h (0 Bft) 92,45 %
28.01.2023 05:36 -1,5 C 3,9 C -1,7 C 96 % 1022,4 hPa 0,0 l/m 0,5 km/h (0 Bft) NW 314 0 min 0,000 mm 0,0 UV-I 0 W/m -2,1 C -1,5 C 3,2 km/h (1 Bft) 94,00 %
28.01.2023 05:38 -1,5 C 3,9 C -1,7 C 96 % 1022,4 hPa 0,0 l/m 2,2 km/h (1 Bft) N-NW 342 0 min 0,000 mm 0,0 UV-I 0 W/m -2,1 C -1,5 C 8,0 km/h (2 Bft) 97,37 %
28.01.2023 05:40 -1,5 C 3,9 C -1,7 C 96 % 1022,4 hPa 0,0 l/m 1,3 km/h (1 Bft) N-NW 342 0 min 0,000 mm 0,0 UV-I 0 W/m -2,1 C -1,5 C 3,2 km/h (1 Bft) 91,49 %
28.01.2023 05:42 -1,5 C 3,9 C -1,7 C 96 % 1022,4 hPa 0,0 l/m 1,4 km/h (1 Bft) N-NW 341 0 min 0,000 mm 0,0 UV-I 0 W/m -2,1 C -1,5 C 3,2 km/h (1 Bft) 98,00 %
28.01.2023 05:44 -1,5 C 3,9 C -2,2 C 96 % 1022,4 hPa 0,0 l/m 0,8 km/h (0 Bft) N-NW 342 0 min 0,000 mm 0,0 UV-I 0 W/m -2,1 C -1,5 C 1,6 km/h (1 Bft) 100,00 %
28.01.2023 05:46 -1,6 C 3,9 C -2,2 C 96 % 1022,4 hPa 0,0 l/m 1,6 km/h (1 Bft) N-NO 13 0 min 0,000 mm 0,0 UV-I 0 W/m -2,2 C -1,6 C 3,2 km/h (1 Bft) 96,00 %
28.01.2023 05:48 -1,6 C 3,9 C -2,2 C 96 % 1022,4 hPa 0,0 l/m 0,7 km/h (0 Bft) N 9 0 min 0,000 mm 0,0 UV-I 0 W/m -2,2 C -1,6 C 3,2 km/h (1 Bft) 97,87 %
28.01.2023 05:50 -1,6 C 3,9 C -2,2 C 96 % 1022,5 hPa 0,0 l/m 0,4 km/h (0 Bft) N 9 0 min 0,000 mm 0,0 UV-I 0 W/m -2,2 C -1,6 C 3,2 km/h (1 Bft) 94,00 %
28.01.2023 05:52 -1,6 C 3,9 C -2,2 C 96 % 1022,5 hPa 0,0 l/m 0,5 km/h (0 Bft) N 9 0 min 0,000 mm 0,0 UV-I 0 W/m -2,2 C -1,6 C 3,2 km/h (1 Bft) 95,12 %
28.01.2023 05:54 -1,6 C 3,9 C -2,2 C 96 % 1022,5 hPa 0,0 l/m 0,0 km/h (0 Bft) N 9 0 min 0,000 mm 0,0 UV-I 0 W/m -2,2 C -1,6 C 0,0 km/h (0 Bft) 93,62 %
28.01.2023 05:56 -1,6 C 3,9 C -2,2 C 96 % 1022,5 hPa 0,0 l/m 0,0 km/h (0 Bft) N 9 0 min 0,000 mm 0,0 UV-I 0 W/m -2,2 C -1,6 C 0,0 km/h (0 Bft) 97,14 %
28.01.2023 05:58 -1,6 C 3,9 C -2,2 C 96 % 1022,5 hPa 0,0 l/m 0,0 km/h (0 Bft) N 9 0 min 0,000 mm 0,0 UV-I 0 W/m -2,2 C -1,6 C 0,0 km/h (0 Bft) 98,39 %
28.01.2023 06:00 -1,7 C 3,9 C -2,2 C 96 % 1022,5 hPa 0,0 l/m 0,2 km/h (0 Bft) N 5 0 min 0,000 mm 0,0 UV-I 0 W/m -2,3 C -1,7 C 1,6 km/h (1 Bft) 95,45 %
28.01.2023 06:02 -1,6 C 3,9 C -2,2 C 96 % 1022,6 hPa 0,0 l/m 0,0 km/h (0 Bft) N 5 0 min 0,000 mm 0,0 UV-I 0 W/m -2,2 C -1,6 C 0,0 km/h (0 Bft) 94,00 %
28.01.2023 06:04 -1,6 C 3,9 C -2,2 C 96 % 1022,6 hPa 0,0 l/m 0,0 km/h (0 Bft) N 351 0 min 0,000 mm 0,0 UV-I 0 W/m -2,2 C -1,6 C 0,0 km/h (0 Bft) 96,08 %
28.01.2023 06:06 -1,7 C 3,9 C -2,2 C 96 % 1022,6 hPa 0,0 l/m 0,0 km/h (0 Bft) N 351 0 min 0,000 mm 0,0 UV-I 0 W/m -2,3 C -1,7 C 0,0 km/h (0 Bft) 92,11 %
28.01.2023 06:08 -1,6 C 3,9 C -2,2 C 96 % 1022,7 hPa 0,0 l/m 0,8 km/h (0 Bft) N 350 0 min 0,000 mm 0,0 UV-I 0 W/m -2,2 C -1,6 C 3,2 km/h (1 Bft) 93,62 %
28.01.2023 06:10 -1,6 C 3,9 C -2,2 C 96 % 1022,6 hPa 0,0 l/m 0,4 km/h (0 Bft) N 350 0 min 0,000 mm 0,0 UV-I 0 W/m -2,2 C -1,6 C 3,2 km/h (1 Bft) 98,00 %
28.01.2023 06:12 -1,6 C 3,9 C -2,2 C 96 % 1022,7 hPa 0,0 l/m 1,6 km/h (1 Bft) N-NW 328 0 min 0,000 mm 0,0 UV-I 0 W/m -2,2 C -1,6 C 3,2 km/h (1 Bft) 97,87 %
28.01.2023 06:14 -1,7 C 3,9 C -2,2 C 96 % 1022,7 hPa 0,0 l/m 2,5 km/h (1 Bft) N-NW 331 0 min 0,000 mm 0,0 UV-I 0 W/m -2,3 C -1,7 C 3,2 km/h (1 Bft) 97,56 %
28.01.2023 06:16 -1,6 C 3,9 C -2,2 C 96 % 1022,7 hPa 0,0 l/m 2,1 km/h (1 Bft) N 351 0 min 0,000 mm 0,0 UV-I 0 W/m -2,2 C -1,6 C 4,8 km/h (1 Bft) 96,23 %
28.01.2023 06:18 -1,6 C 3,9 C -2,2 C 96 % 1022,7 hPa 0,0 l/m 1,9 km/h (1 Bft) N 351 0 min 0,000 mm 0,0 UV-I 0 W/m -2,2 C -1,6 C 3,2 km/h (1 Bft) 97,37 %
28.01.2023 06:20 -1,6 C 3,9 C -2,2 C 95 % 1022,7 hPa 0,0 l/m 0,4 km/h (0 Bft) N-NW 348 0 min 0,000 mm 0,0 UV-I 0 W/m -2,3 C -1,6 C 1,6 km/h (1 Bft) 98,00 %
28.01.2023 06:22 -1,6 C 3,9 C -2,2 C 95 % 1022,7 hPa 0,0 l/m 0,6 km/h (0 Bft) N-NW 348 0 min 0,000 mm 0,0 UV-I 0 W/m -2,3 C -1,6 C 3,2 km/h (1 Bft) 98,00 %
28.01.2023 06:24 -1,6 C 3,9 C -2,2 C 95 % 1022,8 hPa 0,0 l/m 1,4 km/h (1 Bft) N-NW 348 0 min 0,000 mm 0,0 UV-I 0 W/m -2,3 C -1,6 C 3,2 km/h (1 Bft) 98,11 %
28.01.2023 06:26 -1,6 C 3,9 C -2,2 C 95 % 1022,8 hPa 0,0 l/m 1,9 km/h (1 Bft) N 351 0 min 0,000 mm 0,0 UV-I 0 W/m -2,3 C -1,6 C 3,2 km/h (1 Bft) 100,00 %
28.01.2023 06:28 -1,7 C 3,9 C -2,2 C 95 % 1022,8 hPa 0,0 l/m 3,8 km/h (1 Bft) N-NW 339 0 min 0,000 mm 0,0 UV-I 0 W/m -2,4 C -1,7 C 4,8 km/h (1 Bft) 96,30 %
28.01.2023 06:30 -1,7 C 3,9 C -2,2 C 95 % 1022,8 hPa 0,0 l/m 3,3 km/h (1 Bft) N-NW 344 0 min 0,000 mm 0,0 UV-I 0 W/m -2,4 C -1,7 C 4,8 km/h (1 Bft) 98,44 %
28.01.2023 06:32 -1,7 C 3,9 C -2,2 C 95 % 1022,8 hPa 0,0 l/m 2,3 km/h (1 Bft) N-NW 340 0 min 0,000 mm 0,0 UV-I 0 W/m -2,4 C -1,7 C 3,2 km/h (1 Bft) 96,00 %
28.01.2023 06:34 -1,7 C 3,9 C -2,2 C 95 % 1022,8 hPa 0,0 l/m 2,6 km/h (1 Bft) N-NW 344 0 min 0,000 mm 0,0 UV-I 0 W/m -2,4 C -1,7 C 4,8 km/h (1 Bft) 97,87 %
28.01.2023 06:36 -1,6 C 3,9 C -2,2 C 95 % 1022,9 hPa 0,0 l/m 1,7 km/h (1 Bft) N-NW 346 0 min 0,000 mm 0,0 UV-I 0 W/m -2,3 C -1,6 C 3,2 km/h (1 Bft) 94,74 %
28.01.2023 06:38 -1,6 C 3,9 C -2,2 C 95 % 1022,9 hPa 0,0 l/m 2,7 km/h (1 Bft) N-NW 328 0 min 0,000 mm 0,0 UV-I 0 W/m -2,3 C -1,6 C 4,8 km/h (1 Bft) 97,87 %
28.01.2023 06:40 -1,6 C 3,9 C -2,2 C 95 % 1022,9 hPa 0,0 l/m 1,3 km/h (1 Bft) N-NW 328 0 min 0,000 mm 0,0 UV-I 0 W/m -2,3 C -1,6 C 3,2 km/h (1 Bft) 96,00 %
28.01.2023 06:42 -1,6 C 3,9 C -2,2 C 95 % 1023,0 hPa 0,0 l/m 1,3 km/h (1 Bft) N-NW 331 0 min 0,000 mm 0,0 UV-I 0 W/m -2,3 C -1,6 C 4,8 km/h (1 Bft) 92,00 %
28.01.2023 06:44 -1,6 C 3,9 C -2,2 C 94 % 1023,0 hPa 0,0 l/m 0,4 km/h (0 Bft) N-NW 331 0 min 0,000 mm 0,0 UV-I 0 W/m -2,4 C -1,6 C 1,6 km/h (1 Bft) 96,00 %
28.01.2023 06:46 -1,7 C 3,9 C -2,2 C 94 % 1023,0 hPa 0,0 l/m 0,3 km/h (0 Bft) N-NW 331 0 min 0,000 mm 0,0 UV-I 0 W/m -2,5 C -1,7 C 1,6 km/h (1 Bft) 97,73 %
28.01.2023 06:48 -1,7 C 3,9 C -2,2 C 94 % 1023,1 hPa 0,0 l/m 0,0 km/h (0 Bft) N-NW 331 0 min 0,000 mm 0,0 UV-I 0 W/m -2,5 C -1,7 C 1,6 km/h (1 Bft) 97,87 %
28.01.2023 06:50 -1,7 C 3,9 C -2,2 C 94 % 1023,1 hPa 0,0 l/m 0,0 km/h (0 Bft) N-NW 331 0 min 0,000 mm 0,0 UV-I 0 W/m -2,5 C -1,7 C 0,0 km/h (0 Bft) 95,74 %
28.01.2023 06:52 -1,7 C 3,9 C -2,2 C 94 % 1023,1 hPa 0,0 l/m 0,0 km/h (0 Bft) N-NW 331 0 min 0,000 mm 0,0 UV-I 0 W/m -2,5 C -1,7 C 0,0 km/h (0 Bft) 97,87 %
28.01.2023 06:54 -1,7 C 3,9 C -2,2 C 94 % 1023,1 hPa 0,0 l/m 0,0 km/h (0 Bft) N-NW 331 0 min 0,000 mm 0,0 UV-I 0 W/m -2,5 C -1,7 C 0,0 km/h (0 Bft) 100,00 %
28.01.2023 06:56 -1,8 C 3,9 C -2,8 C 94 % 1023,1 hPa 0,0 l/m 0,0 km/h (0 Bft) N-NW 331 0 min 0,000 mm 0,0 UV-I 0 W/m -2,6 C -1,8 C 0,0 km/h (0 Bft) 94,74 %
28.01.2023 06:58 -1,8 C 3,9 C -2,8 C 94 % 1023,2 hPa 0,0 l/m 0,0 km/h (0 Bft) N-NW 331 0 min 0,000 mm 0,0 UV-I 0 W/m -2,6 C -1,8 C 0,0 km/h (0 Bft) 97,87 %
28.01.2023 07:00 -1,8 C 3,9 C -2,8 C 94 % 1023,2 hPa 0,0 l/m 0,0 km/h (0 Bft) N-NW 331 0 min 0,000 mm 0,0 UV-I 0 W/m -2,6 C -1,8 C 0,0 km/h (0 Bft) 96,00 %
28.01.2023 07:02 -1,8 C 3,9 C -2,8 C 94 % 1023,2 hPa 0,0 l/m 0,0 km/h (0 Bft) N-NW 331 0 min 0,000 mm 0,0 UV-I 0 W/m -2,6 C -1,8 C 0,0 km/h (0 Bft) 96,00 %
28.01.2023 07:04 -1,8 C 3,9 C -2,8 C 94 % 1023,2 hPa 0,0 l/m 0,0 km/h (0 Bft) N-NW 331 0 min 0,000 mm 0,0 UV-I 0 W/m -2,6 C -1,8 C 0,0 km/h (0 Bft) 97,87 %
28.01.2023 07:06 -1,8 C 3,9 C -2,8 C 94 % 1023,2 hPa 0,0 l/m 0,0 km/h (0 Bft) N-NW 331 0 min 0,000 mm 0,0 UV-I 0 W/m -2,6 C -1,8 C 0,0 km/h (0 Bft) 98,00 %
28.01.2023 07:08 -1,8 C 3,9 C -2,8 C 94 % 1023,2 hPa 0,0 l/m 0,0 km/h (0 Bft) N-NW 331 0 min 0,000 mm 0,0 UV-I 0 W/m -2,6 C -1,8 C 0,0 km/h (0 Bft) 97,87 %
28.01.2023 07:10 -1,8 C 3,9 C -2,8 C 94 % 1023,3 hPa 0,0 l/m 0,0 km/h (0 Bft) N-NW 331 0 min 0,000 mm 0,0 UV-I 0 W/m -2,6 C -1,8 C 0,0 km/h (0 Bft) 100,00 %
28.01.2023 07:12 -1,8 C 3,9 C -2,8 C 94 % 1023,2 hPa 0,0 l/m 0,0 km/h (0 Bft) N-NW 331 0 min 0,000 mm 0,0 UV-I 0 W/m -2,6 C -1,8 C 0,0 km/h (0 Bft) 98,00 %
28.01.2023 07:14 -1,8 C 3,9 C -2,8 C 94 % 1023,2 hPa 0,0 l/m 0,0 km/h (0 Bft) N-NW 331 0 min 0,000 mm 0,0 UV-I 0 W/m -2,6 C -1,8 C 0,0 km/h (0 Bft) 100,00 %
28.01.2023 07:16 -1,8 C 3,9 C -2,8 C 94 % 1023,3 hPa 0,0 l/m 0,0 km/h (0 Bft) N-NW 331 0 min 0,000 mm 0,0 UV-I 0 W/m -2,6 C -1,8 C 0,0 km/h (0 Bft) 100,00 %
28.01.2023 07:18 -1,8 C 3,9 C -2,2 C 94 % 1023,2 hPa 0,0 l/m 0,0 km/h (0 Bft) N-NW 331 0 min 0,000 mm 0,0 UV-I 0 W/m -2,6 C -1,8 C 0,0 km/h (0 Bft) 100,00 %
28.01.2023 07:20 -1,8 C 3,9 C -2,2 C 94 % 1023,3 hPa 0,0 l/m 0,0 km/h (0 Bft) N-NW 331 0 min 0,000 mm 0,0 UV-I 0 W/m -2,6 C -1,8 C 0,0 km/h (0 Bft) 100,00 %
28.01.2023 07:22 -1,8 C 3,9 C -2,2 C 94 % 1023,3 hPa 0,0 l/m 0,0 km/h (0 Bft) N-NW 331 0 min 0,000 mm 0,0 UV-I 0 W/m -2,6 C -1,8 C 0,0 km/h (0 Bft) 95,74 %
28.01.2023 07:24 -1,8 C 3,9 C -2,2 C 94 % 1023,3 hPa 0,0 l/m 0,0 km/h (0 Bft) N-NW 331 0 min 0,000 mm 0,0 UV-I 0 W/m -2,6 C -1,8 C 0,0 km/h (0 Bft) 97,87 %
28.01.2023 07:26 -1,8 C 3,9 C -2,2 C 94 % 1023,3 hPa 0,0 l/m 0,0 km/h (0 Bft) N-NW 331 0 min 0,000 mm 0,0 UV-I 0 W/m -2,6 C -1,8 C 0,0 km/h (0 Bft) 97,22 %
28.01.2023 07:28 -1,8 C 3,9 C -2,2 C 94 % 1023,4 hPa 0,0 l/m 0,0 km/h (0 Bft) N-NW 331 0 min 0,000 mm 0,0 UV-I 0 W/m -2,6 C -1,8 C 0,0 km/h (0 Bft) 98,08 %
28.01.2023 07:30 -1,8 C 3,9 C -2,2 C 94 % 1023,4 hPa 0,0 l/m 0,0 km/h (0 Bft) N-NW 331 0 min 0,000 mm 0,0 UV-I 0 W/m -2,6 C -1,8 C 0,0 km/h (0 Bft) 98,00 %
28.01.2023 07:32 -1,8 C 3,9 C -2,2 C 94 % 1023,4 hPa 0,0 l/m 0,1 km/h (0 Bft) N-NW 331 0 min 0,000 mm 0,0 UV-I 0 W/m -2,6 C -1,8 C 1,6 km/h (1 Bft) 94,00 %
28.01.2023 07:34 -1,8 C 3,9 C -2,2 C 94 % 1023,4 hPa 0,0 l/m 2,4 km/h (1 Bft) W-SW 242 0 min 0,000 mm 0,0 UV-I 0 W/m -2,6 C -1,8 C 3,2 km/h (1 Bft) 95,74 %
28.01.2023 07:36 -1,8 C 3,9 C -2,2 C 94 % 1023,4 hPa 0,0 l/m 0,6 km/h (0 Bft) W-SW 242 0 min 0,000 mm 0,0 UV-I 0 W/m -2,6 C -1,8 C 3,2 km/h (1 Bft) 92,31 %
28.01.2023 07:38 -1,8 C 3,9 C -2,2 C 94 % 1023,5 hPa 0,0 l/m 0,1 km/h (0 Bft) W-SW 242 0 min 0,000 mm 0,0 UV-I 1 W/m -2,6 C -1,8 C 1,6 km/h (1 Bft) 95,74 %
28.01.2023 07:40 -1,8 C 3,9 C -2,2 C 94 % 1023,5 hPa 0,0 l/m 0,0 km/h (0 Bft) W-SW 242 0 min 0,000 mm 0,0 UV-I 5 W/m -2,6 C -1,8 C 0,0 km/h (0 Bft) 95,74 %
28.01.2023 07:42 -1,8 C 3,9 C -2,2 C 94 % 1023,5 hPa 0,0 l/m 0,0 km/h (0 Bft) W-SW 242 0 min 0,000 mm 0,0 UV-I 5 W/m -2,6 C -1,8 C 0,0 km/h (0 Bft) 98,00 %
28.01.2023 07:44 -1,8 C 3,9 C -2,2 C 94 % 1023,5 hPa 0,0 l/m 0,4 km/h (0 Bft) W-SW 242 0 min 0,000 mm 0,0 UV-I 5 W/m -2,6 C -1,8 C 1,6 km/h (1 Bft) 93,62 %
28.01.2023 07:46 -1,8 C 3,9 C -2,2 C 94 % 1023,5 hPa 0,0 l/m 0,3 km/h (0 Bft) W-SW 242 0 min 0,000 mm 0,0 UV-I 5 W/m -2,6 C -1,8 C 1,6 km/h (1 Bft) 95,12 %
28.01.2023 07:48 -1,8 C 3,9 C -2,2 C 94 % 1023,5 hPa 0,0 l/m 0,0 km/h (0 Bft) W-SW 242 0 min 0,000 mm 0,0 UV-I 5 W/m -2,6 C -1,8 C 1,6 km/h (1 Bft) 92,00 %
28.01.2023 07:50 -1,8 C 3,9 C -2,2 C 94 % 1023,6 hPa 0,0 l/m 0,2 km/h (0 Bft) W-SW 242 0 min 0,000 mm 0,0 UV-I 5 W/m -2,6 C -1,8 C 1,6 km/h (1 Bft) 95,12 %
28.01.2023 07:52 -1,8 C 3,9 C -2,2 C 94 % 1023,6 hPa 0,0 l/m 0,7 km/h (0 Bft) W-SW 242 0 min 0,000 mm 0,0 UV-I 5 W/m -2,6 C -1,8 C 1,6 km/h (1 Bft) 94,64 %
28.01.2023 07:54 -1,8 C 3,9 C -2,2 C 94 % 1023,6 hPa 0,0 l/m 0,0 km/h (0 Bft) W-SW 242 0 min 0,000 mm 0,0 UV-I 7 W/m -2,6 C -1,8 C 0,0 km/h (0 Bft) 96,00 %
28.01.2023 07:56 -1,8 C 3,9 C -2,2 C 94 % 1023,6 hPa 0,0 l/m 0,0 km/h (0 Bft) W-SW 242 0 min 0,000 mm 0,0 UV-I 7 W/m -2,6 C -1,8 C 0,0 km/h (0 Bft) 89,36 %
28.01.2023 07:58 -1,8 C 3,9 C -2,2 C 94 % 1023,6 hPa 0,0 l/m 0,2 km/h (0 Bft) W-SW 242 0 min 0,000 mm 0,0 UV-I 7 W/m -2,6 C -1,8 C 1,6 km/h (1 Bft) 94,29 %
28.01.2023 08:00 -1,8 C 3,9 C -2,2 C 94 % 1023,6 hPa 0,0 l/m 1,0 km/h (0 Bft) W-SW 242 0 min 0,000 mm 0,0 UV-I 7 W/m -2,6 C -1,8 C 3,2 km/h (1 Bft) 92,86 %
28.01.2023 08:02 -1,8 C 3,9 C -2,2 C 94 % 1023,6 hPa 0,0 l/m 0,1 km/h (0 Bft) W-SW 242 0 min 0,000 mm 0,0 UV-I 8 W/m -2,6 C -1,8 C 1,6 km/h (1 Bft) 93,62 %
28.01.2023 08:04 -1,8 C 3,9 C -2,2 C 95 % 1023,7 hPa 0,0 l/m 0,6 km/h (0 Bft) W-SW 242 0 min 0,000 mm 0,0 UV-I 9 W/m -2,5 C -1,8 C 1,6 km/h (1 Bft) 92,00 %
28.01.2023 08:06 -1,8 C 3,9 C -2,2 C 95 % 1023,7 hPa 0,0 l/m 0,5 km/h (0 Bft) W-SW 242 0 min 0,000 mm 0,0 UV-I 9 W/m -2,5 C -1,8 C 1,6 km/h (1 Bft) 91,49 %
28.01.2023 08:08 -1,8 C 3,9 C -2,2 C 95 % 1023,7 hPa 0,0 l/m 0,0 km/h (0 Bft) W-SW 242 0 min 0,000 mm 0,0 UV-I 11 W/m -2,5 C -1,8 C 0,0 km/h (0 Bft) 91,43 %
28.01.2023 08:10 -1,8 C 3,9 C -2,2 C 95 % 1023,7 hPa 0,0 l/m 0,0 km/h (0 Bft) W-SW 242 0 min 0,000 mm 0,0 UV-I 11 W/m -2,5 C -1,8 C 0,0 km/h (0 Bft) 94,34 %
28.01.2023 08:12 -1,8 C 3,9 C -1,7 C 95 % 1023,7 hPa 0,0 l/m 0,0 km/h (0 Bft) W-SW 242 0 min 0,000 mm 0,0 UV-I 12 W/m -2,5 C -1,8 C 1,6 km/h (1 Bft) 95,74 %
28.01.2023 08:14 -1,8 C 3,9 C -1,7 C 95 % 1023,7 hPa 0,0 l/m 0,4 km/h (0 Bft) W-SW 242 0 min 0,000 mm 0,0 UV-I 12 W/m -2,5 C -1,8 C 1,6 km/h (1 Bft) 92,00 %
28.01.2023 08:16 -1,8 C 3,9 C -1,7 C 95 % 1023,8 hPa 0,0 l/m 0,0 km/h (0 Bft) W-SW 242 0 min 0,000 mm 0,0 UV-I 14 W/m -2,5 C -1,8 C 1,6 km/h (1 Bft) 95,74 %
28.01.2023 08:18 -1,8 C 3,9 C -1,7 C 95 % 1023,8 hPa 0,0 l/m 0,5 km/h (0 Bft) W-SW 242 0 min 0,000 mm 0,0 UV-I 14 W/m -2,5 C -1,8 C 1,6 km/h (1 Bft) 95,74 %
28.01.2023 08:20 -1,8 C 3,9 C -1,7 C 95 % 1023,8 hPa 0,0 l/m 1,7 km/h (1 Bft) W-SW 242 0 min 0,000 mm 0,0 UV-I 14 W/m -2,5 C -1,8 C 3,2 km/h (1 Bft) 91,49 %
28.01.2023 08:22 -1,7 C 3,9 C -1,7 C 95 % 1023,8 hPa 0,0 l/m 1,1 km/h (1 Bft) W-SW 242 0 min 0,000 mm 0,0 UV-I 16 W/m -2,4 C -1,7 C 1,6 km/h (1 Bft) 95,74 %
28.01.2023 08:24 -1,7 C 3,9 C -1,7 C 95 % 1023,8 hPa 0,0 l/m 1,4 km/h (1 Bft) W-SW 242 0 min 0,000 mm 0,0 UV-I 16 W/m -2,4 C -1,7 C 3,2 km/h (1 Bft) 94,74 %
28.01.2023 08:26 -1,7 C 3,9 C -1,7 C 95 % 1023,8 hPa 0,0 l/m 1,0 km/h (0 Bft) W-SW 242 0 min 0,000 mm 0,0 UV-I 16 W/m -2,4 C -1,7 C 1,6 km/h (1 Bft) 98,11 %
28.01.2023 08:28 -1,7 C 3,9 C -1,7 C 95 % 1023,8 hPa 0,0 l/m 1,5 km/h (1 Bft) W-SW 242 0 min 0,000 mm 0,0 UV-I 17 W/m -2,4 C -1,7 C 3,2 km/h (1 Bft) 94,74 %
28.01.2023 08:30 -1,7 C 3,9 C -1,7 C 95 % 1023,9 hPa 0,0 l/m 1,7 km/h (1 Bft) W-SW 242 0 min 0,000 mm 0,0 UV-I 18 W/m -2,4 C -1,7 C 3,2 km/h (1 Bft) 96,00 %
28.01.2023 08:32 -1,7 C 3,9 C -1,7 C 95 % 1023,8 hPa 0,0 l/m 1,4 km/h (1 Bft) W-SW 242 0 min 0,000 mm 0,0 UV-I 19 W/m -2,4 C -1,7 C 3,2 km/h (1 Bft) 97,87 %
28.01.2023 08:34 -1,7 C 3,9 C -1,7 C 95 % 1023,9 hPa 0,0 l/m 1,6 km/h (1 Bft) W-SW 242 0 min 0,000 mm 0,0 UV-I 22 W/m -2,4 C -1,7 C 3,2 km/h (1 Bft) 100,00 %
28.01.2023 08:36 -1,6 C 3,9 C -1,7 C 95 % 1023,9 hPa 0,0 l/m 1,6 km/h (1 Bft) W-SW 242 0 min 0,000 mm 0,0 UV-I 25 W/m -2,3 C -1,6 C 3,2 km/h (1 Bft) 100,00 %
28.01.2023 08:38 -1,6 C 3,9 C -1,1 C 95 % 1023,9 hPa 0,0 l/m 1,3 km/h (1 Bft) W-SW 242 0 min 0,000 mm 0,0 UV-I 28 W/m -2,3 C -1,6 C 1,6 km/h (1 Bft) 100,00 %
28.01.2023 08:40 -1,6 C 3,9 C -1,1 C 95 % 1023,9 hPa 0,0 l/m 2,2 km/h (1 Bft) W-SW 242 0 min 0,000 mm 0,0 UV-I 30 W/m -2,3 C -1,6 C 3,2 km/h (1 Bft) 98,00 %
28.01.2023 08:42 -1,5 C 3,9 C -1,1 C 94 % 1023,9 hPa 0,0 l/m 2,2 km/h (1 Bft) W-SW 242 0 min 0,000 mm 0,0 UV-I 30 W/m -2,3 C -1,5 C 3,2 km/h (1 Bft) 97,56 %
28.01.2023 08:44 -1,5 C 3,9 C -1,1 C 94 % 1023,9 hPa 0,0 l/m 2,3 km/h (1 Bft) W-SW 242 0 min 0,000 mm 0,0 UV-I 32 W/m -2,3 C -1,5 C 3,2 km/h (1 Bft) 100,00 %
28.01.2023 08:46 -1,4 C 3,9 C -1,1 C 94 % 1023,9 hPa 0,0 l/m 2,8 km/h (1 Bft) W-SW 242 0 min 0,000 mm 0,0 UV-I 32 W/m -2,2 C -1,4 C 4,8 km/h (1 Bft) 97,87 %
28.01.2023 08:48 -1,4 C 3,9 C -1,1 C 94 % 1023,9 hPa 0,0 l/m 2,6 km/h (1 Bft) W-SW 241 0 min 0,000 mm 0,0 UV-I 33 W/m -2,2 C -1,4 C 4,8 km/h (1 Bft) 100,00 %
28.01.2023 08:50 -1,4 C 3,9 C -1,1 C 94 % 1024,0 hPa 0,0 l/m 1,9 km/h (1 Bft) W-SW 241 0 min 0,000 mm 0,0 UV-I 36 W/m -2,2 C -1,4 C 3,2 km/h (1 Bft) 98,00 %
28.01.2023 08:52 -1,4 C 3,9 C -1,1 C 94 % 1024,0 hPa 0,0 l/m 2,2 km/h (1 Bft) W-SW 241 0 min 0,000 mm 0,0 UV-I 38 W/m -2,2 C -1,4 C 4,8 km/h (1 Bft) 100,00 %
28.01.2023 08:54 -1,4 C 3,9 C -0,6 C 94 % 1024,0 hPa 0,0 l/m 2,2 km/h (1 Bft) W-SW 240 0 min 0,000 mm 0,0 UV-I 39 W/m -2,2 C -1,4 C 3,2 km/h (1 Bft) 98,00 %
28.01.2023 08:56 -1,3 C 3,9 C -0,6 C 94 % 1024,0 hPa 0,0 l/m 3,1 km/h (1 Bft) W-SW 240 0 min 0,000 mm 0,0 UV-I 40 W/m -2,1 C -1,3 C 4,8 km/h (1 Bft) 97,87 %
28.01.2023 08:58 -1,3 C 3,9 C -0,6 C 94 % 1024,0 hPa 0,0 l/m 2,2 km/h (1 Bft) W-SW 241 0 min 0,000 mm 0,0 UV-I 39 W/m -2,1 C -1,3 C 3,2 km/h (1 Bft) 100,00 %
28.01.2023 09:00 -1,3 C 3,9 C -0,6 C 94 % 1024,0 hPa 0,0 l/m 2,4 km/h (1 Bft) W-SW 240 0 min 0,000 mm 0,0 UV-I 34 W/m -2,1 C -1,3 C 4,8 km/h (1 Bft) 100,00 %
28.01.2023 09:02 -1,3 C 3,9 C -1,1 C 94 % 1024,0 hPa 0,0 l/m 2,5 km/h (1 Bft) W-SW 243 0 min 0,000 mm 0,0 UV-I 31 W/m -2,1 C -1,3 C 4,8 km/h (1 Bft) 94,74 %
28.01.2023 09:04 -1,3 C 3,9 C -1,1 C 94 % 1024,1 hPa 0,0 l/m 3,4 km/h (1 Bft) W-SW 237 0 min 0,000 mm 0,0 UV-I 28 W/m -2,1 C -1,3 C 6,4 km/h (2 Bft) 98,00 %
28.01.2023 09:06 -1,3 C 3,9 C -1,1 C 94 % 1024,1 hPa 0,0 l/m 2,7 km/h (1 Bft) W-SW 251 0 min 0,000 mm 0,0 UV-I 27 W/m -2,1 C -1,3 C 4,8 km/h (1 Bft) 95,74 %
28.01.2023 09:08 -1,3 C 3,9 C -1,1 C 93 % 1024,2 hPa 0,0 l/m 3,0 km/h (1 Bft) W-SW 250 0 min 0,000 mm 0,0 UV-I 24 W/m -2,3 C -1,3 C 4,8 km/h (1 Bft) 96,23 %
28.01.2023 09:10 -1,3 C 3,9 C -1,1 C 93 % 1024,1 hPa 0,0 l/m 2,1 km/h (1 Bft) W-SW 251 0 min 0,000 mm 0,0 UV-I 21 W/m -2,3 C -1,3 C 4,8 km/h (1 Bft) 97,87 %
28.01.2023 09:12 -1,3 C 3,9 C -1,1 C 93 % 1024,2 hPa 0,0 l/m 4,1 km/h (1 Bft) SW 236 0 min 0,000 mm 0,0 UV-I 21 W/m -2,3 C -1,3 C 6,4 km/h (2 Bft) 97,14 %
28.01.2023 09:14 -1,3 C 3,9 C -1,1 C 93 % 1024,2 hPa 0,0 l/m 3,0 km/h (1 Bft) W-SW 248 0 min 0,000 mm 0,0 UV-I 21 W/m -2,3 C -1,3 C 6,4 km/h (2 Bft) 96,23 %
28.01.2023 09:16 -1,3 C 3,9 C -1,1 C 93 % 1024,2 hPa 0,0 l/m 3,0 km/h (1 Bft) W-SW 244 0 min 0,000 mm 0,0 UV-I 22 W/m -2,3 C -1,3 C 4,8 km/h (1 Bft) 95,45 %
28.01.2023 09:18 -1,3 C 3,9 C -1,1 C 93 % 1024,2 hPa 0,0 l/m 4,2 km/h (1 Bft) W-SW 254 0 min 0,000 mm 0,0 UV-I 23 W/m -2,3 C -1,3 C 4,8 km/h (1 Bft) 97,87 %
28.01.2023 09:20 -1,3 C 3,9 C -1,1 C 93 % 1024,3 hPa 0,0 l/m 3,2 km/h (1 Bft) W-SW 242 0 min 0,000 mm 0,0 UV-I 25 W/m -2,3 C -1,3 C 4,8 km/h (1 Bft) 98,00 %
28.01.2023 09:22 -1,2 C 3,9 C -1,1 C 93 % 1024,2 hPa 0,0 l/m 2,6 km/h (1 Bft) W-SW 243 0 min 0,000 mm 0,0 UV-I 25 W/m -2,2 C -1,2 C 4,8 km/h (1 Bft) 100,00 %
28.01.2023 09:24 -1,2 C 3,9 C -1,1 C 93 % 1024,3 hPa 0,0 l/m 2,1 km/h (1 Bft) W-SW 243 0 min 0,000 mm 0,0 UV-I 25 W/m -2,2 C -1,2 C 4,8 km/h (1 Bft) 97,87 %
28.01.2023 09:26 -1,2 C 3,9 C -1,1 C 93 % 1024,2 hPa 0,0 l/m 2,8 km/h (1 Bft) SW 235 0 min 0,000 mm 0,0 UV-I 25 W/m -2,2 C -1,2 C 4,8 km/h (1 Bft) 100,00 %
28.01.2023 09:28 -1,2 C 3,9 C -1,1 C 93 % 1024,2 hPa 0,0 l/m 2,5 km/h (1 Bft) SW 234 0 min 0,000 mm 0,0 UV-I 26 W/m -2,2 C -1,2 C 4,8 km/h (1 Bft) 100,00 %
28.01.2023 09:30 -1,2 C 3,9 C -1,1 C 93 % 1024,3 hPa 0,0 l/m 3,1 km/h (1 Bft) W-SW 244 0 min 0,000 mm 0,0 UV-I 26 W/m -2,2 C -1,2 C 4,8 km/h (1 Bft) 100,00 %
28.01.2023 09:32 -1,2 C 3,9 C -1,1 C 93 % 1024,3 hPa 0,0 l/m 3,0 km/h (1 Bft) SW 217 0 min 0,000 mm 0,0 UV-I 27 W/m -2,2 C -1,2 C 4,8 km/h (1 Bft) 100,00 %
28.01.2023 09:34 -1,2 C 3,9 C -1,1 C 93 % 1024,3 hPa 0,0 l/m 4,8 km/h (1 Bft) SW 216 0 min 0,000 mm 0,0 UV-I 28 W/m -2,2 C -1,2 C 8,0 km/h (2 Bft) 95,74 %
28.01.2023 09:36 -1,2 C 3,9 C -1,1 C 93 % 1024,3 hPa 0,0 l/m 6,0 km/h (2 Bft) S-SW 209 0 min 0,000 mm 0,0 UV-I 28 W/m -2,2 C -1,2 C 8,0 km/h (2 Bft) 100,00 %
28.01.2023 09:38 -1,2 C 3,9 C -1,1 C 93 % 1024,3 hPa 0,0 l/m 4,3 km/h (1 Bft) W-SW 243 0 min 0,000 mm 0,0 UV-I 28 W/m -2,2 C -1,2 C 8,0 km/h (2 Bft) 92,50 %
28.01.2023 09:40 -1,2 C 3,9 C -1,1 C 93 % 1024,3 hPa 0,0 l/m 4,9 km/h (1 Bft) W-SW 242 0 min 0,000 mm 0,0 UV-I 28 W/m -2,2 C -1,2 C 8,0 km/h (2 Bft) 100,00 %
28.01.2023 09:42 -1,2 C 3,9 C -1,1 C 93 % 1024,3 hPa 0,0 l/m 4,8 km/h (1 Bft) SW 236 0 min 0,000 mm 0,0 UV-I 28 W/m -2,2 C -1,2 C 6,4 km/h (2 Bft) 97,87 %
28.01.2023 09:44 -1,2 C 3,9 C -1,1 C 93 % 1024,3 hPa 0,0 l/m 4,5 km/h (1 Bft) SW 225 0 min 0,000 mm 0,0 UV-I 30 W/m -2,2 C -1,2 C 6,4 km/h (2 Bft) 100,00 %
28.01.2023 09:46 -1,2 C 3,9 C -1,1 C 93 % 1024,4 hPa 0,0 l/m 3,8 km/h (1 Bft) W-SW 239 0 min 0,000 mm 0,0 UV-I 30 W/m -2,2 C -1,2 C 4,8 km/h (1 Bft) 98,08 %
28.01.2023 09:48 -1,2 C 3,9 C -1,1 C 93 % 1024,4 hPa 0,0 l/m 4,4 km/h (1 Bft) SW 235 0 min 0,000 mm 0,0 UV-I 30 W/m -2,2 C -1,2 C 6,4 km/h (2 Bft) 100,00 %
28.01.2023 09:50 -1,2 C 3,9 C -1,1 C 93 % 1024,4 hPa 0,0 l/m 3,7 km/h (1 Bft) W 267 0 min 0,000 mm 0,0 UV-I 30 W/m -2,2 C -1,2 C 4,8 km/h (1 Bft) 96,49 %
28.01.2023 09:52 -1,2 C 3,9 C -1,1 C 93 % 1024,4 hPa 0,0 l/m 4,3 km/h (1 Bft) SW 227 0 min 0,000 mm 0,0 UV-I 30 W/m -2,2 C -1,2 C 4,8 km/h (1 Bft) 100,00 %
28.01.2023 09:54 -1,2 C 3,9 C -1,1 C 93 % 1024,4 hPa 0,0 l/m 4,1 km/h (1 Bft) W-SW 252 0 min 0,000 mm 0,0 UV-I 31 W/m -2,2 C -1,2 C 8,0 km/h (2 Bft) 100,00 %
28.01.2023 09:56 -1,2 C 3,9 C -1,1 C 93 % 1024,4 hPa 0,0 l/m 4,6 km/h (1 Bft) W-SW 246 0 min 0,000 mm 0,0 UV-I 32 W/m -2,2 C -1,2 C 6,4 km/h (2 Bft) 98,00 %
28.01.2023 09:58 -1,2 C 3,9 C -1,1 C 93 % 1024,4 hPa 0,0 l/m 3,5 km/h (1 Bft) W-SW 257 0 min 0,000 mm 0,0 UV-I 32 W/m -2,2 C -1,2 C 4,8 km/h (1 Bft) 94,00 %
28.01.2023 10:00 -1,1 C 3,9 C -0,6 C 93 % 1024,4 hPa 0,0 l/m 4,0 km/h (1 Bft) W-SW 245 0 min 0,000 mm 0,0 UV-I 33 W/m -2,1 C -1,1 C 6,4 km/h (2 Bft) 95,12 %
28.01.2023 10:02 -1,1 C 3,9 C -0,6 C 93 % 1024,4 hPa 0,0 l/m 4,2 km/h (1 Bft) W 280 0 min 0,000 mm 0,0 UV-I 33 W/m -2,1 C -1,1 C 6,4 km/h (2 Bft) 100,00 %
28.01.2023 10:04 -1,1 C 3,9 C -0,6 C 93 % 1024,4 hPa 0,0 l/m 3,3 km/h (1 Bft) W-SW 244 0 min 0,000 mm 0,0 UV-I 33 W/m -2,1 C -1,1 C 6,4 km/h (2 Bft) 95,12 %
28.01.2023 10:06 -1,1 C 3,9 C -0,6 C 93 % 1024,4 hPa 0,0 l/m 2,8 km/h (1 Bft) W-SW 258 0 min 0,000 mm 0,0 UV-I 34 W/m -2,1 C -1,1 C 4,8 km/h (1 Bft) 96,00 %
28.01.2023 10:08 -1,1 C 3,9 C -0,6 C 94 % 1024,4 hPa 0,0 l/m 2,9 km/h (1 Bft) W-SW 252 0 min 0,000 mm 0,0 UV-I 35 W/m -1,9 C -1,1 C 4,8 km/h (1 Bft) 94,34 %
28.01.2023 10:10 -1,1 C 3,9 C -0,6 C 94 % 1024,5 hPa 0,0 l/m 3,4 km/h (1 Bft) W 266 0 min 0,000 mm 0,0 UV-I 37 W/m -1,9 C -1,1 C 4,8 km/h (1 Bft) 92,11 %
28.01.2023 10:12 -1,0 C 3,9 C -0,6 C 94 % 1024,5 hPa 0,0 l/m 3,6 km/h (1 Bft) W 274 0 min 0,000 mm 0,0 UV-I 39 W/m -1,8 C -1,0 C 4,8 km/h (1 Bft) 98,21 %
28.01.2023 10:14 -1,0 C 3,9 C -0,6 C 94 % 1024,5 hPa 0,0 l/m 3,6 km/h (1 Bft) W-SW 252 0 min 0,000 mm 0,0 UV-I 41 W/m -1,8 C -1,0 C 4,8 km/h (1 Bft) 97,56 %
28.01.2023 10:16 -1,0 C 3,9 C -0,6 C 94 % 1024,5 hPa 0,0 l/m 3,7 km/h (1 Bft) W-SW 242 0 min 0,000 mm 0,0 UV-I 43 W/m -1,8 C -1,0 C 4,8 km/h (1 Bft) 96,23 %
28.01.2023 10:18 -1,0 C 3,9 C -0,6 C 94 % 1024,6 hPa 0,0 l/m 3,5 km/h (1 Bft) W 260 0 min 0,000 mm 0,0 UV-I 44 W/m -1,8 C -1,0 C 4,8 km/h (1 Bft) 95,74 %
28.01.2023 10:20 -1,0 C 3,9 C 0,0 C 94 % 1024,6 hPa 0,2 l/m 2,9 km/h (1 Bft) W 265 0 min 0,000 mm 0,0 UV-I 42 W/m -1,8 C -1,0 C 4,8 km/h (1 Bft) 95,12 %
28.01.2023 10:22 -0,9 C 3,9 C -0,6 C 94 % 1024,6 hPa 0,0 l/m 3,7 km/h (1 Bft) W-SW 253 0 min 0,000 mm 0,0 UV-I 42 W/m -1,7 C -0,9 C 6,4 km/h (2 Bft) 94,00 %
28.01.2023 10:24 -1,0 C 3,9 C -0,6 C 94 % 1024,7 hPa 0,0 l/m 2,7 km/h (1 Bft) W-SW 258 0 min 0,000 mm 0,0 UV-I 42 W/m -1,8 C -1,0 C 4,8 km/h (1 Bft) 95,74 %
28.01.2023 10:26 -1,0 C 3,9 C 0,0 C 94 % 1024,7 hPa 0,0 l/m 2,0 km/h (1 Bft) W 277 0 min 0,000 mm 0,0 UV-I 42 W/m -1,8 C -1,0 C 3,2 km/h (1 Bft) 95,74 %
28.01.2023 10:28 -1,0 C 3,9 C 0,0 C 94 % 1024,7 hPa 0,0 l/m 3,5 km/h (1 Bft) SW 226 0 min 0,000 mm 0,0 UV-I 40 W/m -1,8 C -1,0 C 4,8 km/h (1 Bft) 94,74 %
28.01.2023 10:30 -1,0 C 3,9 C -0,6 C 94 % 1024,7 hPa 0,0 l/m 4,8 km/h (1 Bft) W-SW 245 0 min 0,000 mm 0,0 UV-I 40 W/m -1,8 C -1,0 C 8,0 km/h (2 Bft) 96,23 %
28.01.2023 10:32 -1,0 C 3,9 C -0,6 C 94 % 1024,7 hPa 0,0 l/m 3,9 km/h (1 Bft) W-SW 248 0 min 0,000 mm 0,0 UV-I 40 W/m -1,8 C -1,0 C 4,8 km/h (1 Bft) 94,00 %
28.01.2023 10:34 -1,0 C 3,9 C -0,6 C 94 % 1024,7 hPa 0,0 l/m 4,0 km/h (1 Bft) W-SW 244 0 min 0,000 mm 0,0 UV-I 42 W/m -1,8 C -1,0 C 4,8 km/h (1 Bft) 93,62 %
28.01.2023 10:36 -1,0 C 3,9 C -0,6 C 94 % 1024,7 hPa 0,0 l/m 5,2 km/h (1 Bft) SW 229 0 min 0,000 mm 0,0 UV-I 45 W/m -1,8 C -1,0 C 9,7 km/h (2 Bft) 97,37 %
28.01.2023 10:38 -1,0 C 3,9 C -0,6 C 94 % 1024,7 hPa 0,0 l/m 5,3 km/h (1 Bft) SW 224 0 min 0,000 mm 0,0 UV-I 46 W/m -1,8 C -1,0 C 8,0 km/h (2 Bft) 96,23 %
28.01.2023 10:40 -1,0 C 3,9 C -0,6 C 95 % 1024,7 hPa 0,0 l/m 5,3 km/h (1 Bft) SW 236 0 min 0,000 mm 0,0 UV-I 47 W/m -1,7 C -1,0 C 8,0 km/h (2 Bft) 97,87 %
28.01.2023 10:42 -1,0 C 3,9 C -0,6 C 95 % 1024,7 hPa 0,0 l/m 4,3 km/h (1 Bft) W-SW 244 0 min 0,000 mm 0,0 UV-I 47 W/m -1,7 C -1,0 C 6,4 km/h (2 Bft) 100,00 %
28.01.2023 10:44 -1,1 C 3,9 C -0,6 C 95 % 1024,7 hPa 0,0 l/m 4,4 km/h (1 Bft) W 262 0 min 0,000 mm 0,0 UV-I 47 W/m -1,8 C -1,1 C 6,4 km/h (2 Bft) 97,14 %
28.01.2023 10:46 -1,1 C 3,9 C -0,6 C 95 % 1024,7 hPa 0,0 l/m 4,6 km/h (1 Bft) W-SW 241 0 min 0,000 mm 0,0 UV-I 47 W/m -1,8 C -1,1 C 6,4 km/h (2 Bft) 100,00 %
28.01.2023 10:48 -1,0 C 3,9 C -0,6 C 95 % 1024,7 hPa 0,0 l/m 4,9 km/h (1 Bft) W-SW 254 0 min 0,000 mm 0,0 UV-I 47 W/m -1,7 C -1,0 C 8,0 km/h (2 Bft) 100,00 %
28.01.2023 10:50 -1,1 C 3,9 C -0,6 C 95 % 1024,6 hPa 0,0 l/m 4,8 km/h (1 Bft) W 273 0 min 0,000 mm 0,0 UV-I 49 W/m -1,8 C -1,1 C 6,4 km/h (2 Bft) 100,00 %
28.01.2023 10:52 -1,1 C 3,9 C -0,6 C 95 % 1024,7 hPa 0,0 l/m 2,9 km/h (1 Bft) W-SW 251 0 min 0,000 mm 0,0 UV-I 49 W/m -1,8 C -1,1 C 4,8 km/h (1 Bft) 100,00 %
28.01.2023 10:54 -1,0 C 3,9 C -0,6 C 95 % 1024,7 hPa 0,0 l/m 2,7 km/h (1 Bft) W 259 0 min 0,000 mm 0,0 UV-I 47 W/m -1,7 C -1,0 C 4,8 km/h (1 Bft) 98,44 %
28.01.2023 10:56 -1,0 C 3,9 C -0,6 C 95 % 1024,7 hPa 0,0 l/m 3,3 km/h (1 Bft) W 275 0 min 0,000 mm 0,0 UV-I 46 W/m -1,7 C -1,0 C 4,8 km/h (1 Bft) 96,00 %
28.01.2023 10:58 -1,0 C 3,9 C 0,0 C 95 % 1024,6 hPa 0,0 l/m 3,3 km/h (1 Bft) W 259 0 min 0,000 mm 0,0 UV-I 44 W/m -1,7 C -1,0 C 4,8 km/h (1 Bft) 95,74 %
28.01.2023 11:00 -0,9 C 3,9 C 0,0 C 95 % 1024,7 hPa 0,0 l/m 2,7 km/h (1 Bft) W 267 0 min 0,025 mm 0,0 UV-I 41 W/m -1,6 C -0,9 C 4,8 km/h (1 Bft) 97,87 %
28.01.2023 11:02 -0,9 C 3,9 C -0,6 C 95 % 1024,7 hPa 0,0 l/m 4,1 km/h (1 Bft) W 265 0 min 0,000 mm 0,0 UV-I 40 W/m -1,6 C -0,9 C 6,4 km/h (2 Bft) 97,56 %
28.01.2023 11:04 -0,9 C 3,9 C -0,6 C 95 % 1024,6 hPa 0,0 l/m 4,1 km/h (1 Bft) W 261 0 min 0,000 mm 0,0 UV-I 40 W/m -1,6 C -0,9 C 6,4 km/h (2 Bft) 98,11 %
28.01.2023 11:06 -1,0 C 3,9 C -0,6 C 95 % 1024,6 hPa 0,0 l/m 4,8 km/h (1 Bft) W-SW 248 0 min 0,000 mm 0,0 UV-I 39 W/m -1,7 C -1,0 C 8,0 km/h (2 Bft) 95,12 %
28.01.2023 11:08 -1,0 C 3,9 C -0,6 C 95 % 1024,6 hPa 0,0 l/m 6,2 km/h (2 Bft) W-SW 256 0 min 0,000 mm 0,0 UV-I 40 W/m -1,7 C -1,0 C 9,7 km/h (2 Bft) 98,11 %
28.01.2023 11:10 -1,0 C 3,9 C -0,6 C 95 % 1024,6 hPa 0,0 l/m 4,2 km/h (1 Bft) W 277 0 min 0,000 mm 0,0 UV-I 39 W/m -1,7 C -1,0 C 6,4 km/h (2 Bft) 95,45 %
28.01.2023 11:12 -1,1 C 3,9 C -0,6 C 95 % 1024,6 hPa 0,0 l/m 5,4 km/h (1 Bft) W 266 0 min 0,000 mm 0,0 UV-I 38 W/m -1,8 C -1,1 C 8,0 km/h (2 Bft) 98,00 %
28.01.2023 11:14 -1,0 C 3,9 C -0,6 C 95 % 1024,6 hPa 0,0 l/m 4,6 km/h (1 Bft) W-SW 242 0 min 0,000 mm 0,0 UV-I 37 W/m -1,7 C -1,0 C 6,4 km/h (2 Bft) 95,74 %
28.01.2023 11:16 -1,1 C 3,9 C -0,6 C 95 % 1024,6 hPa 0,0 l/m 4,2 km/h (1 Bft) W-SW 246 0 min 0,000 mm 0,0 UV-I 37 W/m -1,8 C -1,1 C 6,4 km/h (2 Bft) 98,00 %
28.01.2023 11:18 -1,0 C 3,9 C -0,6 C 95 % 1024,5 hPa 0,0 l/m 3,6 km/h (1 Bft) W 275 0 min 0,000 mm 0,0 UV-I 38 W/m -1,7 C -1,0 C 4,8 km/h (1 Bft) 97,73 %
28.01.2023 11:20 -0,9 C 3,9 C -0,6 C 95 % 1024,5 hPa 0,0 l/m 2,8 km/h (1 Bft) W 263 0 min 0,000 mm 0,0 UV-I 37 W/m -1,6 C -0,9 C 4,8 km/h (1 Bft) 93,62 %
28.01.2023 11:22 -0,9 C 3,9 C -0,6 C 95 % 1024,4 hPa 0,0 l/m 3,1 km/h (1 Bft) W 264 0 min 0,000 mm 0,0 UV-I 36 W/m -1,6 C -0,9 C 4,8 km/h (1 Bft) 98,00 %
28.01.2023 11:24 -0,9 C 3,9 C -0,6 C 95 % 1024,5 hPa 0,0 l/m 3,8 km/h (1 Bft) SW 230 0 min 0,000 mm 0,0 UV-I 39 W/m -1,6 C -0,9 C 6,4 km/h (2 Bft) 97,14 %
28.01.2023 11:26 -0,9 C 3,9 C -0,6 C 95 % 1024,5 hPa 0,0 l/m 3,5 km/h (1 Bft) W 276 0 min 0,000 mm 0,0 UV-I 39 W/m -1,6 C -0,9 C 6,4 km/h (2 Bft) 98,21 %
28.01.2023 11:28 -0,9 C 3,9 C -0,6 C 95 % 1024,4 hPa 0,0 l/m 3,6 km/h (1 Bft) W 278 0 min 0,000 mm 0,0 UV-I 37 W/m -1,6 C -0,9 C 6,4 km/h (2 Bft) 94,74 %
28.01.2023 11:30 -0,9 C 3,9 C -0,6 C 95 % 1024,5 hPa 0,0 l/m 4,1 km/h (1 Bft) W 267 0 min 0,000 mm 0,0 UV-I 37 W/m -1,6 C -0,9 C 6,4 km/h (2 Bft) 96,61 %
28.01.2023 11:32 -1,0 C 3,9 C -0,6 C 95 % 1024,5 hPa 0,0 l/m 5,0 km/h (1 Bft) SW 219 0 min 0,000 mm 0,0 UV-I 36 W/m -1,7 C -1,0 C 8,0 km/h (2 Bft) 97,37 %
28.01.2023 11:34 -1,0 C 3,9 C -0,6 C 95 % 1024,5 hPa 0,0 l/m 3,9 km/h (1 Bft) W 263 0 min 0,000 mm 0,0 UV-I 32 W/m -1,7 C -1,0 C 6,4 km/h (2 Bft) 91,49 %
28.01.2023 11:36 -1,0 C 3,9 C -0,6 C 95 % 1024,5 hPa 0,0 l/m 4,8 km/h (1 Bft) W 262 0 min 0,000 mm 0,0 UV-I 28 W/m -1,7 C -1,0 C 6,4 km/h (2 Bft) 89,36 %
28.01.2023 11:38 -1,0 C 3,9 C -0,6 C 95 % 1024,5 hPa 0,0 l/m 3,7 km/h (1 Bft) W 269 0 min 0,000 mm 0,0 UV-I 27 W/m -1,7 C -1,0 C 6,4 km/h (2 Bft) 96,00 %
28.01.2023 11:40 -1,0 C 3,9 C -0,6 C 95 % 1024,5 hPa 0,0 l/m 2,6 km/h (1 Bft) W-SW 254 0 min 0,000 mm 0,0 UV-I 26 W/m -1,7 C -1,0 C 4,8 km/h (1 Bft) 95,74 %
28.01.2023 11:42 -1,0 C 3,9 C -0,6 C 95 % 1024,5 hPa 0,0 l/m 4,0 km/h (1 Bft) W 279 0 min 0,000 mm 0,0 UV-I 26 W/m -1,7 C -1,0 C 6,4 km/h (2 Bft) 95,74 %
28.01.2023 11:44 -1,1 C 3,9 C -0,6 C 95 % 1024,5 hPa 0,0 l/m 4,1 km/h (1 Bft) W-SW 248 0 min 0,000 mm 0,0 UV-I 26 W/m -1,8 C -1,1 C 6,4 km/h (2 Bft) 94,87 %
28.01.2023 11:46 -1,1 C 3,9 C -0,6 C 95 % 1024,5 hPa 0,0 l/m 4,5 km/h (1 Bft) W 277 0 min 0,000 mm 0,0 UV-I 28 W/m -1,8 C -1,1 C 6,4 km/h (2 Bft) 95,92 %
28.01.2023 11:48 -1,0 C 3,9 C -0,6 C 95 % 1024,5 hPa 0,0 l/m 3,4 km/h (1 Bft) W 269 0 min 0,000 mm 0,0 UV-I 30 W/m -1,7 C -1,0 C 4,8 km/h (1 Bft) 93,62 %
28.01.2023 11:50 -1,0 C 3,9 C -0,6 C 95 % 1024,5 hPa 0,0 l/m 4,3 km/h (1 Bft) W-NW 282 0 min 0,000 mm 0,0 UV-I 30 W/m -1,7 C -1,0 C 6,4 km/h (2 Bft) 96,43 %
28.01.2023 11:52 -1,0 C 3,9 C -0,6 C 95 % 1024,6 hPa 0,0 l/m 3,9 km/h (1 Bft) W-NW 283 0 min 0,000 mm 0,0 UV-I 33 W/m -1,7 C -1,0 C 6,4 km/h (2 Bft) 97,44 %
28.01.2023 11:54 -1,0 C 3,9 C -0,6 C 95 % 1024,5 hPa 0,0 l/m 3,9 km/h (1 Bft) W 266 0 min 0,000 mm 0,0 UV-I 33 W/m -1,7 C -1,0 C 6,4 km/h (2 Bft) 97,87 %
28.01.2023 11:56 -1,0 C 3,9 C -0,6 C 95 % 1024,6 hPa 0,0 l/m 4,4 km/h (1 Bft) W 260 0 min 0,000 mm 0,0 UV-I 34 W/m -1,7 C -1,0 C 6,4 km/h (2 Bft) 95,74 %
28.01.2023 11:58 -1,0 C 3,9 C -0,6 C 95 % 1024,6 hPa 0,0 l/m 5,5 km/h (1 Bft) W 271 0 min 0,000 mm 0,0 UV-I 33 W/m -1,7 C -1,0 C 9,7 km/h (2 Bft) 96,00 %
28.01.2023 12:00 -1,0 C 3,9 C -0,6 C 95 % 1024,5 hPa 0,0 l/m 4,3 km/h (1 Bft) W 267 0 min 0,000 mm 0,0 UV-I 34 W/m -1,7 C -1,0 C 6,4 km/h (2 Bft) 100,00 %
28.01.2023 12:02 -1,0 C 3,9 C -0,6 C 95 % 1024,5 hPa 0,0 l/m 3,5 km/h (1 Bft) W 279 0 min 0,000 mm 0,0 UV-I 34 W/m -1,7 C -1,0 C 4,8 km/h (1 Bft) 98,00 %
28.01.2023 12:04 -1,0 C 3,9 C -0,6 C 95 % 1024,5 hPa 0,0 l/m 4,0 km/h (1 Bft) W 269 0 min 0,000 mm 0,0 UV-I 35 W/m -1,7 C -1,0 C 4,8 km/h (1 Bft) 100,00 %
28.01.2023 12:06 -1,0 C 3,9 C -0,6 C 95 % 1024,5 hPa 0,0 l/m 3,6 km/h (1 Bft) W 270 0 min 0,000 mm 0,0 UV-I 35 W/m -1,7 C -1,0 C 6,4 km/h (2 Bft) 100,00 %
28.01.2023 12:08 -1,0 C 3,9 C -0,6 C 95 % 1024,5 hPa 0,0 l/m 4,8 km/h (1 Bft) W-SW 258 0 min 0,000 mm 0,0 UV-I 34 W/m -1,7 C -1,0 C 8,0 km/h (2 Bft) 97,37 %
28.01.2023 12:10 -1,0 C 3,9 C -0,6 C 95 % 1024,5 hPa 0,0 l/m 3,5 km/h (1 Bft) W-SW 257 0 min 0,000 mm 0,0 UV-I 37 W/m -1,7 C -1,0 C 6,4 km/h (2 Bft) 96,00 %
28.01.2023 12:12 -1,0 C 3,9 C -0,6 C 95 % 1024,5 hPa 0,0 l/m 5,5 km/h (1 Bft) W-SW 245 0 min 0,000 mm 0,0 UV-I 37 W/m -1,7 C -1,0 C 8,0 km/h (2 Bft) 98,21 %
28.01.2023 12:14 -1,0 C 3,9 C -0,6 C 95 % 1024,5 hPa 0,0 l/m 5,0 km/h (1 Bft) W-SW 244 0 min 0,000 mm 0,0 UV-I 38 W/m -1,7 C -1,0 C 8,0 km/h (2 Bft) 97,37 %
28.01.2023 12:16 -1,0 C 3,9 C -0,6 C 95 % 1024,5 hPa 0,0 l/m 7,2 km/h (2 Bft) W 274 0 min 0,000 mm 0,0 UV-I 42 W/m -1,7 C -1,9 C 11,3 km/h (2 Bft) 96,43 %
28.01.2023 12:18 -1,1 C 3,9 C -0,6 C 95 % 1024,5 hPa 0,0 l/m 5,2 km/h (1 Bft) W-SW 247 0 min 0,000 mm 0,0 UV-I 45 W/m -1,8 C -1,1 C 9,7 km/h (2 Bft) 97,87 %
28.01.2023 12:20 -1,0 C 3,9 C -0,6 C 95 % 1024,4 hPa 0,0 l/m 3,1 km/h (1 Bft) W 278 0 min 0,000 mm 0,0 UV-I 44 W/m -1,7 C -1,0 C 4,8 km/h (1 Bft) 97,56 %
28.01.2023 12:22 -1,0 C 3,9 C -0,6 C 95 % 1024,4 hPa 0,0 l/m 4,4 km/h (1 Bft) W-NW 302 0 min 0,000 mm 0,0 UV-I 43 W/m -1,7 C -1,0 C 6,4 km/h (2 Bft) 97,87 %
28.01.2023 12:24 -1,0 C 3,9 C -0,6 C 95 % 1024,4 hPa 0,0 l/m 5,5 km/h (1 Bft) W 281 0 min 0,000 mm 0,0 UV-I 45 W/m -1,7 C -1,0 C 9,7 km/h (2 Bft) 94,00 %
28.01.2023 12:26 -1,0 C 3,9 C -0,6 C 95 % 1024,5 hPa 0,0 l/m 7,1 km/h (2 Bft) W 279 0 min 0,000 mm 0,0 UV-I 47 W/m -1,7 C -1,7 C 11,3 km/h (2 Bft) 95,74 %
28.01.2023 12:28 -1,0 C 3,9 C -0,6 C 95 % 1024,6 hPa 0,0 l/m 7,2 km/h (2 Bft) W 261 0 min 0,000 mm 0,0 UV-I 47 W/m -1,7 C -1,9 C 11,3 km/h (2 Bft) 98,00 %
28.01.2023 12:30 -1,0 C 3,9 C -0,6 C 95 % 1024,5 hPa 0,0 l/m 6,9 km/h (2 Bft) W 274 0 min 0,000 mm 0,0 UV-I 48 W/m -1,7 C -1,5 C 11,3 km/h (2 Bft) 97,87 %
28.01.2023 12:32 -1,0 C 3,9 C -0,6 C 95 % 1024,4 hPa 0,0 l/m 4,7 km/h (1 Bft) W 270 0 min 0,000 mm 0,0 UV-I 51 W/m -1,7 C -1,0 C 6,4 km/h (2 Bft) 97,56 %
28.01.2023 12:34 -0,9 C 3,9 C 0,0 C 95 % 1024,4 hPa 0,0 l/m 3,3 km/h (1 Bft) W 279 0 min 0,000 mm 0,0 UV-I 50 W/m -1,6 C -0,9 C 6,4 km/h (2 Bft) 98,00 %
28.01.2023 12:36 -0,9 C 3,9 C -0,6 C 95 % 1024,4 hPa 0,0 l/m 6,6 km/h (2 Bft) W 265 0 min 0,000 mm 0,0 UV-I 47 W/m -1,6 C -1,1 C 11,3 km/h (2 Bft) 93,18 %
28.01.2023 12:38 -1,0 C 3,9 C -0,6 C 95 % 1024,5 hPa 0,0 l/m 6,6 km/h (2 Bft) W-SW 248 0 min 0,000 mm 0,0 UV-I 47 W/m -1,7 C -1,2 C 9,7 km/h (2 Bft) 98,08 %
28.01.2023 12:40 -1,0 C 3,9 C -0,6 C 95 % 1024,5 hPa 0,0 l/m 6,3 km/h (2 Bft) W-NW 291 0 min 0,000 mm 0,0 UV-I 46 W/m -1,7 C -1,0 C 11,3 km/h (2 Bft) 97,56 %
28.01.2023 12:42 -0,9 C 3,9 C -0,6 C 95 % 1024,5 hPa 0,0 l/m 4,0 km/h (1 Bft) W 276 0 min 0,000 mm 0,0 UV-I 45 W/m -1,6 C -0,9 C 9,7 km/h (2 Bft) 96,00 %
28.01.2023 12:44 -0,9 C 3,9 C -0,6 C 95 % 1024,4 hPa 0,0 l/m 4,0 km/h (1 Bft) W 261 0 min 0,000 mm 0,0 UV-I 47 W/m -1,6 C -0,9 C 4,8 km/h (1 Bft) 98,00 %
28.01.2023 12:46 -0,9 C 3,9 C -0,6 C 95 % 1024,4 hPa 0,0 l/m 5,9 km/h (2 Bft) W 273 0 min 0,000 mm 0,0 UV-I 47 W/m -1,6 C -0,9 C 11,3 km/h (2 Bft) 100,00 %
28.01.2023 12:48 -0,9 C 3,9 C -0,6 C 95 % 1024,4 hPa 0,0 l/m 6,4 km/h (2 Bft) W 271 0 min 0,000 mm 0,0 UV-I 46 W/m -1,6 C -0,9 C 11,3 km/h (2 Bft) 96,00 %
28.01.2023 12:50 -0,9 C 3,9 C -0,6 C 95 % 1024,4 hPa 0,0 l/m 5,1 km/h (1 Bft) W 274 0 min 0,000 mm 0,0 UV-I 43 W/m -1,6 C -0,9 C 8,0 km/h (2 Bft) 94,74 %
28.01.2023 12:52 -0,9 C 3,9 C -0,6 C 95 % 1024,4 hPa 0,0 l/m 5,2 km/h (1 Bft) W-SW 256 0 min 0,000 mm 0,0 UV-I 41 W/m -1,6 C -0,9 C 9,7 km/h (2 Bft) 96,00 %
28.01.2023 12:54 -0,9 C 3,9 C -0,6 C 95 % 1024,4 hPa 0,0 l/m 6,5 km/h (2 Bft) W 277 0 min 0,000 mm 0,0 UV-I 42 W/m -1,6 C -1,0 C 11,3 km/h (2 Bft) 97,87 %
28.01.2023 12:56 -0,9 C 3,9 C -0,6 C 95 % 1024,5 hPa 0,0 l/m 5,1 km/h (1 Bft) W 274 0 min 0,000 mm 0,0 UV-I 42 W/m -1,6 C -0,9 C 9,7 km/h (2 Bft) 98,21 %
28.01.2023 12:58 -0,9 C 3,9 C -0,6 C 95 % 1024,5 hPa 0,0 l/m 3,5 km/h (1 Bft) W 263 0 min 0,000 mm 0,0 UV-I 42 W/m -1,6 C -0,9 C 9,7 km/h (2 Bft) 97,37 %
28.01.2023 13:00 -0,9 C 3,9 C -0,6 C 95 % 1024,5 hPa 0,0 l/m 4,0 km/h (1 Bft) W-SW 257 0 min 0,026 mm 0,0 UV-I 41 W/m -1,6 C -0,9 C 6,4 km/h (2 Bft) 98,11 %
28.01.2023 13:02 -0,9 C 3,9 C 0,0 C 95 % 1024,6 hPa 0,0 l/m 3,1 km/h (1 Bft) W 275 0 min 0,000 mm 0,0 UV-I 40 W/m -1,6 C -0,9 C 4,8 km/h (1 Bft) 97,56 %
28.01.2023 13:04 -0,9 C 3,9 C 0,0 C 95 % 1024,5 hPa 0,0 l/m 5,0 km/h (1 Bft) W-NW 294 0 min 0,000 mm 0,0 UV-I 45 W/m -1,6 C -0,9 C 6,4 km/h (2 Bft) 98,00 %
28.01.2023 13:06 -0,8 C 3,9 C 0,0 C 95 % 1024,5 hPa 0,0 l/m 5,4 km/h (1 Bft) W-NW 299 0 min 0,000 mm 0,0 UV-I 43 W/m -1,5 C -0,8 C 8,0 km/h (2 Bft) 98,00 %
28.01.2023 13:08 -0,8 C 3,9 C 0,0 C 95 % 1024,5 hPa 0,0 l/m 3,6 km/h (1 Bft) W-NW 300 0 min 0,000 mm 0,0 UV-I 38 W/m -1,5 C -0,8 C 6,4 km/h (2 Bft) 93,62 %
28.01.2023 13:10 -0,8 C 3,9 C 0,0 C 95 % 1024,5 hPa 0,0 l/m 5,0 km/h (1 Bft) NW 311 0 min 0,000 mm 0,0 UV-I 35 W/m -1,5 C -0,8 C 8,0 km/h (2 Bft) 100,00 %
28.01.2023 13:12 -0,9 C 3,9 C 0,0 C 95 % 1024,5 hPa 0,0 l/m 5,7 km/h (1 Bft) W 269 0 min 0,000 mm 0,0 UV-I 37 W/m -1,6 C -0,9 C 9,7 km/h (2 Bft) 100,00 %
28.01.2023 13:14 -0,9 C 3,9 C 0,0 C 95 % 1024,6 hPa 0,0 l/m 5,8 km/h (2 Bft) W 261 0 min 0,000 mm 0,0 UV-I 36 W/m -1,6 C -0,9 C 9,7 km/h (2 Bft) 100,00 %
28.01.2023 13:16 -0,9 C 3,9 C 0,0 C 95 % 1024,6 hPa 0,0 l/m 5,8 km/h (2 Bft) W-NW 288 0 min 0,000 mm 0,0 UV-I 42 W/m -1,6 C -0,9 C 9,7 km/h (2 Bft) 97,56 %
28.01.2023 13:18 -0,8 C 3,9 C 0,0 C 95 % 1024,6 hPa 0,0 l/m 4,6 km/h (1 Bft) W 259 0 min 0,000 mm 0,0 UV-I 45 W/m -1,5 C -0,8 C 6,4 km/h (2 Bft) 98,00 %
28.01.2023 13:21 -0,8 C 3,9 C 0,0 C 95 % 1024,6 hPa 0,0 l/m 5,8 km/h (2 Bft) W-NW 285 0 min 0,000 mm 0,0 UV-I 45 W/m -1,5 C -0,8 C 12,9 km/h (3 Bft) 100,00 %
28.01.2023 13:22 -0,8 C 3,9 C 0,0 C 95 % 1024,6 hPa 0,0 l/m 4,3 km/h (1 Bft) W-NW 297 0 min 0,000 mm 0,0 UV-I 44 W/m -1,5 C -0,8 C 6,4 km/h (2 Bft) 100,00 %
28.01.2023 13:24 -0,8 C 3,9 C 0,0 C 95 % 1024,6 hPa 0,0 l/m 4,3 km/h (1 Bft) W-NW 294 0 min 0,000 mm 0,0 UV-I 43 W/m -1,5 C -0,8 C 6,4 km/h (2 Bft) 97,14 %
28.01.2023 13:26 -0,8 C 3,9 C 0,0 C 96 % 1024,5 hPa 0,0 l/m 5,0 km/h (1 Bft) W-SW 242 0 min 0,000 mm 0,0 UV-I 40 W/m -1,4 C -0,8 C 8,0 km/h (2 Bft) 98,00 %
28.01.2023 13:28 -0,8 C 3,9 C 0,0 C 95 % 1024,6 hPa 0,0 l/m 4,3 km/h (1 Bft) W 273 0 min 0,000 mm 0,0 UV-I 36 W/m -1,5 C -0,8 C 6,4 km/h (2 Bft) 100,00 %
28.01.2023 13:30 -0,8 C 3,9 C 0,0 C 95 % 1024,6 hPa 0,0 l/m 4,1 km/h (1 Bft) W 261 0 min 0,000 mm 0,0 UV-I 35 W/m -1,5 C -0,8 C 9,7 km/h (2 Bft) 100,00 %
28.01.2023 13:32 -0,8 C 3,9 C 0,0 C 95 % 1024,6 hPa 0,0 l/m 4,9 km/h (1 Bft) W-SW 254 0 min 0,000 mm 0,0 UV-I 38 W/m -1,5 C -0,8 C 6,4 km/h (2 Bft) 100,00 %
28.01.2023 13:34 -0,8 C 3,9 C 0,0 C 96 % 1024,6 hPa 0,0 l/m 5,8 km/h (2 Bft) W-SW 257 0 min 0,000 mm 0,0 UV-I 40 W/m -1,4 C -0,8 C 9,7 km/h (2 Bft) 97,56 %
28.01.2023 13:36 -0,8 C 3,9 C 0,0 C 96 % 1024,6 hPa 0,0 l/m 6,1 km/h (2 Bft) W 259 0 min 0,000 mm 0,0 UV-I 39 W/m -1,4 C -0,8 C 11,3 km/h (2 Bft) 98,00 %
28.01.2023 13:38 -0,8 C 3,9 C 0,0 C 96 % 1024,6 hPa 0,0 l/m 7,5 km/h (2 Bft) W-NW 290 0 min 0,000 mm 0,0 UV-I 39 W/m -1,4 C -2,0 C 9,7 km/h (2 Bft) 100,00 %
28.01.2023 13:40 -0,8 C 3,9 C 0,0 C 96 % 1024,6 hPa 0,0 l/m 7,6 km/h (2 Bft) W 265 0 min 0,000 mm 0,0 UV-I 37 W/m -1,4 C -2,1 C 11,3 km/h (2 Bft) 100,00 %
28.01.2023 13:42 -0,8 C 3,9 C 0,0 C 96 % 1024,7 hPa 0,0 l/m 4,6 km/h (1 Bft) SW 217 0 min 0,000 mm 0,0 UV-I 37 W/m -1,4 C -0,8 C 6,4 km/h (2 Bft) 100,00 %
28.01.2023 13:44 -0,8 C 3,9 C 0,0 C 96 % 1024,6 hPa 0,0 l/m 4,3 km/h (1 Bft) W-SW 240 0 min 0,000 mm 0,0 UV-I 33 W/m -1,4 C -0,8 C 8,0 km/h (2 Bft) 100,00 %
28.01.2023 13:46 -0,8 C 3,9 C -0,6 C 96 % 1024,6 hPa 0,0 l/m 7,8 km/h (2 Bft) W-SW 255 0 min 0,000 mm 0,0 UV-I 34 W/m -1,4 C -2,3 C 12,9 km/h (3 Bft) 96,43 %
28.01.2023 13:48 -0,8 C 3,9 C -0,6 C 96 % 1024,6 hPa 0,0 l/m 7,3 km/h (2 Bft) W 276 0 min 0,000 mm 0,0 UV-I 35 W/m -1,4 C -1,8 C 11,3 km/h (2 Bft) 100,00 %
28.01.2023 13:50 -0,8 C 3,9 C -0,6 C 96 % 1024,5 hPa 0,0 l/m 6,7 km/h (2 Bft) W-NW 287 0 min 0,000 mm 0,0 UV-I 35 W/m -1,4 C -1,1 C 12,9 km/h (3 Bft) 98,00 %
28.01.2023 13:52 -0,8 C 3,9 C -0,6 C 96 % 1024,6 hPa 0,0 l/m 9,2 km/h (2 Bft) W-SW 254 0 min 0,000 mm 0,0 UV-I 35 W/m -1,4 C -3,6 C 12,9 km/h (3 Bft) 100,00 %
28.01.2023 13:54 -0,8 C 3,9 C -0,6 C 96 % 1024,6 hPa 0,0 l/m 6,3 km/h (2 Bft) W 273 0 min 0,000 mm 0,0 UV-I 37 W/m -1,4 C -0,8 C 11,3 km/h (2 Bft) 100,00 %
28.01.2023 13:56 -0,8 C 3,9 C -0,6 C 96 % 1024,5 hPa 0,0 l/m 7,8 km/h (2 Bft) W-SW 254 0 min 0,000 mm 0,0 UV-I 38 W/m -1,4 C -2,3 C 12,9 km/h (3 Bft) 96,00 %
28.01.2023 13:58 -0,8 C 3,9 C 0,0 C 96 % 1024,5 hPa 0,0 l/m 9,1 km/h (2 Bft) W-NW 296 0 min 0,000 mm 0,0 UV-I 41 W/m -1,4 C -3,5 C 12,9 km/h (3 Bft) 92,59 %
28.01.2023 14:00 -0,8 C 3,9 C 0,0 C 96 % 1024,6 hPa 0,0 l/m 6,6 km/h (2 Bft) SW 236 0 min 0,025 mm 0,0 UV-I 47 W/m -1,4 C -1,0 C 11,3 km/h (2 Bft) 100,00 %
28.01.2023 14:02 -0,8 C 3,9 C 0,0 C 96 % 1024,6 hPa 0,0 l/m 4,2 km/h (1 Bft) W 265 0 min 0,000 mm 0,0 UV-I 45 W/m -1,4 C -0,8 C 6,4 km/h (2 Bft) 100,00 %
28.01.2023 14:04 -0,7 C 3,9 C 0,0 C 96 % 1024,6 hPa 0,0 l/m 6,1 km/h (2 Bft) W 279 0 min 0,000 mm 0,0 UV-I 43 W/m -1,3 C -0,7 C 9,7 km/h (2 Bft) 95,12 %
28.01.2023 14:06 -0,7 C 3,9 C 0,0 C 96 % 1024,6 hPa 0,0 l/m 5,0 km/h (1 Bft) W-SW 247 0 min 0,000 mm 0,0 UV-I 41 W/m -1,3 C -0,7 C 9,7 km/h (2 Bft) 92,45 %
28.01.2023 14:08 -0,7 C 3,9 C 0,0 C 96 % 1024,6 hPa 0,0 l/m 5,4 km/h (1 Bft) W 269 0 min 0,000 mm 0,0 UV-I 38 W/m -1,3 C -0,7 C 9,7 km/h (2 Bft) 97,44 %
28.01.2023 14:10 -0,7 C 3,9 C 0,0 C 96 % 1024,6 hPa 0,0 l/m 5,4 km/h (1 Bft) W-SW 242 0 min 0,000 mm 0,0 UV-I 36 W/m -1,3 C -0,7 C 9,7 km/h (2 Bft) 95,92 %
28.01.2023 14:12 -0,7 C 3,9 C 0,0 C 96 % 1024,6 hPa 0,0 l/m 6,5 km/h (2 Bft) W-SW 240 0 min 0,000 mm 0,0 UV-I 33 W/m -1,3 C -0,8 C 11,3 km/h (2 Bft) 94,34 %
28.01.2023 14:14 -0,8 C 3,9 C -0,6 C 96 % 1024,7 hPa 0,0 l/m 6,8 km/h (2 Bft) SW 234 0 min 0,000 mm 0,0 UV-I 32 W/m -1,4 C -1,2 C 12,9 km/h (3 Bft) 95,74 %
28.01.2023 14:16 -0,8 C 3,9 C -0,6 C 96 % 1024,6 hPa 0,0 l/m 7,5 km/h (2 Bft) W-SW 252 0 min 0,000 mm 0,0 UV-I 32 W/m -1,4 C -2,0 C 9,7 km/h (2 Bft) 93,62 %
28.01.2023 14:18 -0,8 C 3,9 C -0,6 C 96 % 1024,6 hPa 0,0 l/m 5,9 km/h (2 Bft) W 269 0 min 0,000 mm 0,0 UV-I 33 W/m -1,4 C -0,8 C 9,7 km/h (2 Bft) 93,62 %
28.01.2023 14:20 -0,7 C 3,9 C 0,0 C 96 % 1024,7 hPa 0,0 l/m 6,6 km/h (2 Bft) W 260 0 min 0,000 mm 0,0 UV-I 35 W/m -1,3 C -0,9 C 11,3 km/h (2 Bft) 92,31 %
28.01.2023 14:22 -0,7 C 3,9 C -0,6 C 96 % 1024,7 hPa 0,0 l/m 8,3 km/h (2 Bft) W-SW 255 0 min 0,000 mm 0,0 UV-I 33 W/m -1,3 C -2,7 C 11,3 km/h (2 Bft) 96,00 %
28.01.2023 14:24 -0,7 C 3,9 C -0,6 C 96 % 1024,7 hPa 0,0 l/m 5,6 km/h (1 Bft) W 262 0 min 0,000 mm 0,0 UV-I 35 W/m -1,3 C -0,7 C 11,3 km/h (2 Bft) 97,87 %
28.01.2023 14:26 -0,7 C 3,9 C 0,0 C 96 % 1024,7 hPa 0,0 l/m 5,5 km/h (1 Bft) W 269 0 min 0,000 mm 0,0 UV-I 35 W/m -1,3 C -0,7 C 11,3 km/h (2 Bft) 91,49 %
28.01.2023 14:28 -0,6 C 3,9 C 0,0 C 96 % 1024,7 hPa 0,0 l/m 5,8 km/h (2 Bft) W 263 0 min 0,000 mm 0,0 UV-I 34 W/m -1,2 C -0,6 C 9,7 km/h (2 Bft) 95,92 %
28.01.2023 14:30 -0,6 C 3,9 C 0,0 C 96 % 1024,7 hPa 0,0 l/m 5,9 km/h (2 Bft) W 277 0 min 0,000 mm 0,0 UV-I 33 W/m -1,2 C -0,6 C 9,7 km/h (2 Bft) 97,22 %
28.01.2023 14:32 -0,6 C 3,9 C 0,0 C 96 % 1024,7 hPa 0,0 l/m 4,1 km/h (1 Bft) W-SW 249 0 min 0,000 mm 0,0 UV-I 33 W/m -1,2 C -0,6 C 6,4 km/h (2 Bft) 98,00 %
28.01.2023 14:34 -0,6 C 3,9 C 0,0 C 96 % 1024,7 hPa 0,0 l/m 6,6 km/h (2 Bft) W-NW 302 0 min 0,000 mm 0,0 UV-I 32 W/m -1,2 C -0,8 C 11,3 km/h (2 Bft) 96,00 %
28.01.2023 14:36 -0,6 C 3,9 C 0,0 C 96 % 1024,7 hPa 0,0 l/m 6,2 km/h (2 Bft) W 273 0 min 0,000 mm 0,0 UV-I 32 W/m -1,2 C -0,6 C 11,3 km/h (2 Bft) 96,00 %
28.01.2023 14:38 -0,6 C 3,9 C 0,0 C 96 % 1024,8 hPa 0,0 l/m 5,2 km/h (1 Bft) W 270 0 min 0,000 mm 0,0 UV-I 33 W/m -1,2 C -0,6 C 6,4 km/h (2 Bft) 97,56 %
28.01.2023 14:40 -0,6 C 3,9 C 0,0 C 96 % 1024,7 hPa 0,0 l/m 4,9 km/h (1 Bft) W 275 0 min 0,000 mm 0,0 UV-I 38 W/m -1,2 C -0,6 C 8,0 km/h (2 Bft) 94,34 %
28.01.2023 14:42 -0,6 C 3,9 C 0,0 C 96 % 1024,7 hPa 0,0 l/m 6,1 km/h (2 Bft) W-SW 254 0 min 0,000 mm 0,0 UV-I 40 W/m -1,2 C -0,6 C 9,7 km/h (2 Bft) 94,00 %
28.01.2023 14:44 -0,5 C 3,9 C 0,0 C 96 % 1024,8 hPa 0,0 l/m 7,6 km/h (2 Bft) W 278 0 min 0,000 mm 0,0 UV-I 41 W/m -1,1 C -1,8 C 14,5 km/h (3 Bft) 95,74 %
28.01.2023 14:46 -0,6 C 3,9 C 0,0 C 96 % 1024,8 hPa 0,0 l/m 10,1 km/h (2 Bft) W 279 0 min 0,000 mm 0,0 UV-I 46 W/m -1,2 C -4,2 C 14,5 km/h (3 Bft) 94,74 %
28.01.2023 14:48 -0,6 C 3,9 C 0,0 C 96 % 1024,8 hPa 0,0 l/m 5,7 km/h (1 Bft) W-SW 258 0 min 0,000 mm 0,0 UV-I 47 W/m -1,2 C -0,6 C 11,3 km/h (2 Bft) 92,00 %
28.01.2023 14:50 -0,6 C 3,9 C 0,0 C 96 % 1024,8 hPa 0,0 l/m 6,9 km/h (2 Bft) W-SW 254 0 min 0,000 mm 0,0 UV-I 47 W/m -1,2 C -1,1 C 11,3 km/h (2 Bft) 93,88 %
28.01.2023 14:52 -0,5 C 3,9 C 0,0 C 96 % 1024,8 hPa 0,2 l/m 7,1 km/h (2 Bft) W 269 0 min 0,000 mm 0,0 UV-I 50 W/m -1,1 C -1,2 C 12,9 km/h (3 Bft) 98,00 %
28.01.2023 14:54 -0,5 C 3,9 C 0,0 C 96 % 1024,8 hPa 0,0 l/m 7,2 km/h (2 Bft) W 277 0 min 0,000 mm 0,0 UV-I 48 W/m -1,1 C -1,3 C 11,3 km/h (2 Bft) 95,45 %
28.01.2023 14:56 -0,5 C 3,9 C 0,0 C 96 % 1024,8 hPa 0,0 l/m 7,7 km/h (2 Bft) W 267 0 min 0,000 mm 0,0 UV-I 49 W/m -1,1 C -1,9 C 9,7 km/h (2 Bft) 96,00 %
28.01.2023 14:58 -0,5 C 3,9 C 0,0 C 96 % 1024,8 hPa 0,0 l/m 7,6 km/h (2 Bft) W-NW 283 0 min 0,000 mm 0,0 UV-I 53 W/m -1,1 C -1,8 C 11,3 km/h (2 Bft) 97,87 %
28.01.2023 15:00 -0,5 C 3,9 C 0,0 C 96 % 1024,9 hPa 0,0 l/m 7,2 km/h (2 Bft) W 259 0 min 0,026 mm 0,0 UV-I 55 W/m -1,1 C -1,3 C 11,3 km/h (2 Bft) 95,74 %
28.01.2023 15:02 -0,5 C 3,9 C 0,0 C 96 % 1024,9 hPa 0,0 l/m 5,5 km/h (1 Bft) W-NW 293 0 min 0,000 mm 0,0 UV-I 55 W/m -1,1 C -0,5 C 8,0 km/h (2 Bft) 97,62 %
28.01.2023 15:04 -0,5 C 3,9 C 0,0 C 96 % 1024,9 hPa 0,0 l/m 7,7 km/h (2 Bft) W 269 0 min 0,000 mm 0,0 UV-I 52 W/m -1,1 C -1,9 C 12,9 km/h (3 Bft) 91,30 %
28.01.2023 15:06 -0,5 C 3,9 C 0,0 C 96 % 1024,9 hPa 0,0 l/m 5,4 km/h (1 Bft) W 277 0 min 0,000 mm 0,0 UV-I 47 W/m -1,1 C -0,5 C 9,7 km/h (2 Bft) 98,46 %
28.01.2023 15:08 -0,4 C 3,9 C 0,0 C 96 % 1024,9 hPa 0,0 l/m 8,5 km/h (2 Bft) W-NW 288 0 min 0,000 mm 0,0 UV-I 43 W/m -1,0 C -2,6 C 11,3 km/h (2 Bft) 96,43 %
28.01.2023 15:10 -0,5 C 3,9 C 0,0 C 96 % 1024,9 hPa 0,0 l/m 7,9 km/h (2 Bft) W 261 0 min 0,000 mm 0,0 UV-I 42 W/m -1,1 C -2,1 C 12,9 km/h (3 Bft) 95,45 %
28.01.2023 15:12 -0,5 C 3,9 C 0,0 C 96 % 1024,9 hPa 0,0 l/m 6,8 km/h (2 Bft) W 271 0 min 0,000 mm 0,0 UV-I 41 W/m -1,1 C -0,9 C 9,7 km/h (2 Bft) 97,37 %
28.01.2023 15:14 -0,5 C 3,9 C 0,0 C 96 % 1025,0 hPa 0,0 l/m 5,1 km/h (1 Bft) W 265 0 min 0,000 mm 0,0 UV-I 38 W/m -1,1 C -0,5 C 6,4 km/h (2 Bft) 98,11 %
28.01.2023 15:16 -0,5 C 3,9 C 0,0 C 96 % 1025,0 hPa 0,0 l/m 6,7 km/h (2 Bft) W 275 0 min 0,000 mm 0,0 UV-I 35 W/m -1,1 C -0,8 C 11,3 km/h (2 Bft) 100,00 %
28.01.2023 15:18 -0,5 C 3,9 C 0,0 C 96 % 1025,0 hPa 0,0 l/m 7,2 km/h (2 Bft) W 277 0 min 0,000 mm 0,0 UV-I 33 W/m -1,1 C -1,3 C 11,3 km/h (2 Bft) 96,00 %
28.01.2023 15:20 -0,6 C 3,9 C 0,0 C 96 % 1024,9 hPa 0,0 l/m 6,1 km/h (2 Bft) W 263 0 min 0,000 mm 0,0 UV-I 32 W/m -1,2 C -0,6 C 11,3 km/h (2 Bft) 96,23 %
28.01.2023 15:22 -0,6 C 3,9 C 0,0 C 96 % 1025,0 hPa 0,0 l/m 7,1 km/h (2 Bft) W-NW 283 0 min 0,000 mm 0,0 UV-I 32 W/m -1,2 C -1,3 C 12,9 km/h (3 Bft) 89,47 %
28.01.2023 15:24 -0,5 C 3,9 C 0,0 C 96 % 1025,0 hPa 0,0 l/m 4,9 km/h (1 Bft) W 277 0 min 0,000 mm 0,0 UV-I 32 W/m -1,1 C -0,5 C 11,3 km/h (2 Bft) 96,00 %
28.01.2023 15:26 -0,5 C 3,9 C 0,0 C 96 % 1025,0 hPa 0,0 l/m 5,3 km/h (1 Bft) W-SW 257 0 min 0,000 mm 0,0 UV-I 30 W/m -1,1 C -0,5 C 8,0 km/h (2 Bft) 92,00 %
28.01.2023 15:28 -0,5 C 3,9 C 0,0 C 96 % 1025,1 hPa 0,0 l/m 5,7 km/h (1 Bft) W 269 0 min 0,000 mm 0,0 UV-I 30 W/m -1,1 C -0,5 C 9,7 km/h (2 Bft) 94,74 %
28.01.2023 15:30 -0,5 C 3,9 C 0,0 C 96 % 1025,1 hPa 0,0 l/m 7,9 km/h (2 Bft) W 269 0 min 0,000 mm 0,0 UV-I 30 W/m -1,1 C -2,1 C 12,9 km/h (3 Bft) 91,89 %
28.01.2023 15:32 -0,6 C 3,9 C 0,0 C 96 % 1025,1 hPa 0,0 l/m 6,9 km/h (2 Bft) W 265 0 min 0,000 mm 0,0 UV-I 29 W/m -1,2 C -1,1 C 12,9 km/h (3 Bft) 94,12 %
28.01.2023 15:34 -0,5 C 3,9 C 0,0 C 96 % 1025,1 hPa 0,0 l/m 6,3 km/h (2 Bft) W 275 0 min 0,000 mm 0,0 UV-I 28 W/m -1,1 C -0,5 C 9,7 km/h (2 Bft) 95,74 %
28.01.2023 15:36 -0,6 C 3,9 C 0,0 C 96 % 1025,2 hPa 0,0 l/m 4,9 km/h (1 Bft) W 269 0 min 0,000 mm 0,0 UV-I 28 W/m -1,2 C -0,6 C 8,0 km/h (2 Bft) 93,62 %
28.01.2023 15:38 -0,5 C 3,9 C 0,0 C 96 % 1025,2 hPa 0,0 l/m 6,6 km/h (2 Bft) W 273 0 min 0,000 mm 0,0 UV-I 29 W/m -1,1 C -0,7 C 9,7 km/h (2 Bft) 92,68 %
28.01.2023 15:40 -0,5 C 3,9 C 0,0 C 96 % 1025,2 hPa 0,0 l/m 5,2 km/h (1 Bft) W-SW 256 0 min 0,000 mm 0,0 UV-I 28 W/m -1,1 C -0,5 C 9,7 km/h (2 Bft) 94,00 %
28.01.2023 15:42 -0,5 C 3,9 C 0,0 C 96 % 1025,2 hPa 0,0 l/m 5,6 km/h (1 Bft) W-SW 249 0 min 0,000 mm 0,0 UV-I 26 W/m -1,1 C -0,5 C 9,7 km/h (2 Bft) 96,00 %
28.01.2023 15:44 -0,5 C 3,9 C -0,6 C 96 % 1025,2 hPa 0,0 l/m 7,0 km/h (2 Bft) W 279 0 min 0,000 mm 0,0 UV-I 26 W/m -1,1 C -1,1 C 11,3 km/h (2 Bft) 97,87 %
28.01.2023 15:46 -0,6 C 3,9 C -0,6 C 96 % 1025,2 hPa 0,0 l/m 5,4 km/h (1 Bft) W-NW 283 0 min 0,000 mm 0,0 UV-I 26 W/m -1,2 C -0,6 C 9,7 km/h (2 Bft) 97,14 %
28.01.2023 15:48 -0,6 C 3,9 C -0,6 C 96 % 1025,3 hPa 0,0 l/m 6,6 km/h (2 Bft) W 259 0 min 0,000 mm 0,0 UV-I 26 W/m -1,2 C -0,8 C 11,3 km/h (2 Bft) 94,64 %
28.01.2023 15:50 -0,5 C 3,9 C -0,6 C 96 % 1025,3 hPa 0,0 l/m 5,9 km/h (2 Bft) W-SW 246 0 min 0,000 mm 0,0 UV-I 25 W/m -1,1 C -0,5 C 9,7 km/h (2 Bft) 100,00 %
28.01.2023 15:52 -0,5 C 3,9 C -0,6 C 96 % 1025,3 hPa 0,0 l/m 5,6 km/h (1 Bft) W 271 0 min 0,000 mm 0,0 UV-I 24 W/m -1,1 C -0,5 C 9,7 km/h (2 Bft) 97,73 %
28.01.2023 15:54 -0,5 C 3,9 C -0,6 C 96 % 1025,3 hPa 0,0 l/m 3,8 km/h (1 Bft) W 273 0 min 0,000 mm 0,0 UV-I 23 W/m -1,1 C -0,5 C 6,4 km/h (2 Bft) 100,00 %
28.01.2023 15:56 -0,5 C 3,9 C -0,6 C 96 % 1025,3 hPa 0,0 l/m 6,5 km/h (2 Bft) W 270 0 min 0,000 mm 0,0 UV-I 22 W/m -1,1 C -0,6 C 12,9 km/h (3 Bft) 97,87 %
28.01.2023 15:58 -0,5 C 3,9 C -0,6 C 96 % 1025,3 hPa 0,0 l/m 5,3 km/h (1 Bft) W 270 0 min 0,000 mm 0,0 UV-I 20 W/m -1,1 C -0,5 C 9,7 km/h (2 Bft) 97,87 %
28.01.2023 16:00 -0,5 C 3,9 C -0,6 C 96 % 1025,3 hPa 0,0 l/m 4,5 km/h (1 Bft) W 265 0 min 0,000 mm 0,0 UV-I 19 W/m -1,1 C -0,5 C 9,7 km/h (2 Bft) 100,00 %
28.01.2023 16:02 -0,5 C 3,9 C -0,6 C 96 % 1025,3 hPa 0,0 l/m 5,2 km/h (1 Bft) W 274 0 min 0,000 mm 0,0 UV-I 17 W/m -1,1 C -0,5 C 9,7 km/h (2 Bft) 100,00 %
28.01.2023 16:04 -0,5 C 3,9 C -0,6 C 96 % 1025,3 hPa 0,0 l/m 5,0 km/h (1 Bft) W 277 0 min 0,000 mm 0,0 UV-I 16 W/m -1,1 C -0,5 C 9,7 km/h (2 Bft) 100,00 %
28.01.2023 16:06 -0,4 C 3,9 C -0,6 C 96 % 1025,3 hPa 0,0 l/m 3,8 km/h (1 Bft) W 267 0 min 0,000 mm 0,0 UV-I 15 W/m -1,0 C -0,4 C 6,4 km/h (2 Bft) 100,00 %
28.01.2023 16:08 -0,5 C 3,9 C -0,6 C 96 % 1025,3 hPa 0,0 l/m 5,0 km/h (1 Bft) W 271 0 min 0,000 mm 0,0 UV-I 14 W/m -1,1 C -0,5 C 9,7 km/h (2 Bft) 100,00 %
28.01.2023 16:10 -0,4 C 3,9 C -0,6 C 96 % 1025,4 hPa 0,0 l/m 4,3 km/h (1 Bft) W 260 0 min 0,000 mm 0,0 UV-I 12 W/m -1,0 C -0,4 C 6,4 km/h (2 Bft) 98,00 %
28.01.2023 16:12 -0,4 C 3,9 C -0,6 C 96 % 1025,4 hPa 0,0 l/m 5,0 km/h (1 Bft) W 271 0 min 0,000 mm 0,0 UV-I 12 W/m -1,0 C -0,4 C 9,7 km/h (2 Bft) 100,00 %
28.01.2023 16:14 -0,4 C 3,9 C -0,6 C 96 % 1025,4 hPa 0,0 l/m 6,4 km/h (2 Bft) W 259 0 min 0,000 mm 0,0 UV-I 12 W/m -1,0 C -0,4 C 11,3 km/h (2 Bft) 95,45 %
28.01.2023 16:16 -0,5 C 3,9 C -0,6 C 96 % 1025,5 hPa 0,0 l/m 8,0 km/h (2 Bft) W 271 0 min 0,000 mm 0,0 UV-I 11 W/m -1,1 C -2,2 C 11,3 km/h (2 Bft) 98,21 %
28.01.2023 16:18 -0,5 C 3,9 C -0,6 C 96 % 1025,5 hPa 0,0 l/m 5,2 km/h (1 Bft) W 268 0 min 0,000 mm 0,0 UV-I 11 W/m -1,1 C -0,5 C 9,7 km/h (2 Bft) 92,11 %
28.01.2023 16:20 -0,5 C 3,9 C -0,6 C 96 % 1025,5 hPa 0,0 l/m 4,8 km/h (1 Bft) W 276 0 min 0,000 mm 0,0 UV-I 10 W/m -1,1 C -0,5 C 9,7 km/h (2 Bft) 97,87 %
28.01.2023 16:23 -0,4 C 3,9 C -0,6 C 96 % 1025,5 hPa 0,0 l/m 4,2 km/h (1 Bft) W-SW 251 0 min 0,000 mm 0,0 UV-I 9 W/m -1,0 C -0,4 C 6,4 km/h (2 Bft) 96,25 %
28.01.2023 16:24 -0,5 C 3,9 C -0,6 C 96 % 1025,5 hPa 0,0 l/m 4,8 km/h (1 Bft) W-SW 257 0 min 0,000 mm 0,0 UV-I 9 W/m -1,1 C -0,5 C 6,4 km/h (2 Bft) 100,00 %
28.01.2023 16:26 -0,5 C 3,9 C -0,6 C 96 % 1025,6 hPa 0,0 l/m 4,9 km/h (1 Bft) W 275 0 min 0,000 mm 0,0 UV-I 9 W/m -1,1 C -0,5 C 9,7 km/h (2 Bft) 95,12 %
28.01.2023 16:28 -0,4 C 3,9 C -0,6 C 96 % 1025,5 hPa 0,0 l/m 6,5 km/h (2 Bft) W 270 0 min 0,000 mm 0,0 UV-I 9 W/m -1,0 C -0,5 C 9,7 km/h (2 Bft) 94,00 %
28.01.2023 16:30 -0,5 C 3,9 C -0,6 C 96 % 1025,6 hPa 0,0 l/m 4,6 km/h (1 Bft) W 268 0 min 0,000 mm 0,0 UV-I 9 W/m -1,1 C -0,5 C 6,4 km/h (2 Bft) 95,45 %
28.01.2023 16:32 -0,4 C 3,9 C -0,6 C 96 % 1025,6 hPa 0,0 l/m 4,8 km/h (1 Bft) W 261 0 min 0,000 mm 0,0 UV-I 8 W/m -1,0 C -0,4 C 6,4 km/h (2 Bft) 97,44 %
28.01.2023 16:34 -0,5 C 3,9 C -0,6 C 96 % 1025,6 hPa 0,0 l/m 4,4 km/h (1 Bft) W-SW 239 0 min 0,000 mm 0,0 UV-I 7 W/m -1,1 C -0,5 C 6,4 km/h (2 Bft) 96,23 %
28.01.2023 16:36 -0,4 C 3,9 C -0,6 C 96 % 1025,6 hPa 0,0 l/m 4,2 km/h (1 Bft) W 260 0 min 0,000 mm 0,0 UV-I 7 W/m -1,0 C -0,4 C 6,4 km/h (2 Bft) 94,23 %
28.01.2023 16:38 -0,5 C 3,9 C -0,6 C 96 % 1025,6 hPa 0,0 l/m 5,8 km/h (2 Bft) W-NW 286 0 min 0,000 mm 0,0 UV-I 7 W/m -1,1 C -0,5 C 9,7 km/h (2 Bft) 94,00 %
28.01.2023 16:40 -0,4 C 3,9 C -0,6 C 96 % 1025,6 hPa 0,0 l/m 6,1 km/h (2 Bft) W 265 0 min 0,000 mm 0,0 UV-I 7 W/m -1,0 C -0,4 C 11,3 km/h (2 Bft) 94,44 %
28.01.2023 16:42 -0,4 C 3,9 C -0,6 C 96 % 1025,6 hPa 0,0 l/m 4,2 km/h (1 Bft) W-SW 257 0 min 0,000 mm 0,0 UV-I 7 W/m -1,0 C -0,4 C 6,4 km/h (2 Bft) 94,00 %
28.01.2023 16:44 -0,4 C 3,9 C -0,6 C 96 % 1025,7 hPa 0,0 l/m 5,2 km/h (1 Bft) W 260 0 min 0,000 mm 0,0 UV-I 5 W/m -1,0 C -0,4 C 6,4 km/h (2 Bft) 95,12 %
28.01.2023 16:46 -0,4 C 3,9 C -0,6 C 96 % 1025,7 hPa 0,0 l/m 6,6 km/h (2 Bft) W 269 0 min 0,000 mm 0,0 UV-I 5 W/m -1,0 C -0,6 C 11,3 km/h (2 Bft) 92,73 %
28.01.2023 16:48 -0,4 C 3,9 C -0,6 C 96 % 1025,7 hPa 0,0 l/m 5,7 km/h (1 Bft) W 273 0 min 0,000 mm 0,0 UV-I 5 W/m -1,0 C -0,4 C 9,7 km/h (2 Bft) 90,48 %
28.01.2023 16:50 -0,4 C 3,9 C -0,6 C 96 % 1025,7 hPa 0,0 l/m 4,9 km/h (1 Bft) W 263 0 min 0,000 mm 0,0 UV-I 5 W/m -1,0 C -0,4 C 6,4 km/h (2 Bft) 96,00 %
28.01.2023 16:52 -0,5 C 3,9 C -0,6 C 96 % 1025,7 hPa 0,0 l/m 6,1 km/h (2 Bft) W 269 0 min 0,000 mm 0,0 UV-I 5 W/m -1,1 C -0,5 C 9,7 km/h (2 Bft) 96,00 %
28.01.2023 16:54 -0,5 C 3,9 C -0,6 C 96 % 1025,7 hPa 0,0 l/m 6,7 km/h (2 Bft) W 263 0 min 0,000 mm 0,0 UV-I 0 W/m -1,1 C -0,8 C 11,3 km/h (2 Bft) 97,37 %
28.01.2023 16:56 -0,5 C 3,9 C -0,6 C 96 % 1025,7 hPa 0,0 l/m 5,8 km/h (2 Bft) W-NW 291 0 min 0,000 mm 0,0 UV-I 0 W/m -1,1 C -0,5 C 11,3 km/h (2 Bft) 100,00 %
28.01.2023 16:58 -0,5 C 3,9 C -0,6 C 96 % 1025,7 hPa 0,0 l/m 6,7 km/h (2 Bft) W-NW 284 0 min 0,000 mm 0,0 UV-I 0 W/m -1,1 C -0,8 C 9,7 km/h (2 Bft) 97,96 %
28.01.2023 17:00 -0,5 C 3,9 C -0,6 C 95 % 1025,7 hPa 0,0 l/m 4,9 km/h (1 Bft) W 269 0 min 0,000 mm 0,0 UV-I 0 W/m -1,2 C -0,5 C 8,0 km/h (2 Bft) 96,00 %
28.01.2023 17:02 -0,5 C 3,9 C -0,6 C 95 % 1025,8 hPa 0,0 l/m 4,4 km/h (1 Bft) W-NW 284 0 min 0,000 mm 0,0 UV-I 0 W/m -1,2 C -0,5 C 6,4 km/h (2 Bft) 94,87 %
28.01.2023 17:04 -0,5 C 3,9 C -0,6 C 95 % 1025,8 hPa 0,0 l/m 7,6 km/h (2 Bft) W 269 0 min 0,000 mm 0,0 UV-I 0 W/m -1,2 C -1,8 C 11,3 km/h (2 Bft) 98,11 %
28.01.2023 17:06 -0,5 C 3,9 C -0,6 C 95 % 1025,8 hPa 0,0 l/m 7,4 km/h (2 Bft) W 273 0 min 0,000 mm 0,0 UV-I 0 W/m -1,2 C -1,6 C 12,9 km/h (3 Bft) 100,00 %
28.01.2023 17:08 -0,5 C 3,9 C -0,6 C 95 % 1025,8 hPa 0,0 l/m 5,9 km/h (2 Bft) W 271 0 min 0,000 mm 0,0 UV-I 0 W/m -1,2 C -0,5 C 11,3 km/h (2 Bft) 96,36 %
28.01.2023 17:10 -0,4 C 3,9 C -0,6 C 95 % 1025,8 hPa 0,0 l/m 6,0 km/h (2 Bft) W-SW 250 0 min 0,000 mm 0,0 UV-I 0 W/m -1,1 C -0,4 C 12,9 km/h (3 Bft) 100,00 %
28.01.2023 17:12 -0,5 C 3,9 C -0,6 C 95 % 1025,8 hPa 0,0 l/m 5,2 km/h (1 Bft) W 278 0 min 0,000 mm 0,0 UV-I 0 W/m -1,2 C -0,5 C 9,7 km/h (2 Bft) 100,00 %
28.01.2023 17:14 -0,5 C 3,9 C -0,6 C 95 % 1025,8 hPa 0,0 l/m 3,9 km/h (1 Bft) W 259 0 min 0,000 mm 0,0 UV-I 0 W/m -1,2 C -0,5 C 6,4 km/h (2 Bft) 97,06 %
28.01.2023 17:16 -0,5 C 3,9 C -0,6 C 95 % 1025,8 hPa 0,0 l/m 5,1 km/h (1 Bft) W 265 0 min 0,000 mm 0,0 UV-I 0 W/m -1,2 C -0,5 C 8,0 km/h (2 Bft) 95,45 %
28.01.2023 17:18 -0,5 C 3,9 C -0,6 C 95 % 1025,8 hPa 0,0 l/m 5,4 km/h (1 Bft) W 265 0 min 0,000 mm 0,0 UV-I 0 W/m -1,2 C -0,5 C 9,7 km/h (2 Bft) 100,00 %
28.01.2023 17:20 -0,4 C 3,9 C -0,6 C 95 % 1025,9 hPa 0,0 l/m 3,3 km/h (1 Bft) W-SW 253 0 min 0,000 mm 0,0 UV-I 0 W/m -1,1 C -0,4 C 4,8 km/h (1 Bft) 100,00 %
28.01.2023 17:22 -0,4 C 3,9 C -0,6 C 95 % 1025,9 hPa 0,0 l/m 4,4 km/h (1 Bft) W-NW 290 0 min 0,000 mm 0,0 UV-I 0 W/m -1,1 C -0,4 C 8,0 km/h (2 Bft) 100,00 %
28.01.2023 17:24 -0,5 C 3,9 C -0,6 C 95 % 1025,9 hPa 0,0 l/m 3,9 km/h (1 Bft) W-SW 252 0 min 0,000 mm 0,0 UV-I 0 W/m -1,2 C -0,5 C 6,4 km/h (2 Bft) 97,73 %
28.01.2023 17:26 -0,4 C 3,9 C -0,6 C 95 % 1025,9 hPa 0,0 l/m 4,5 km/h (1 Bft) W 273 0 min 0,000 mm 0,0 UV-I 0 W/m -1,1 C -0,4 C 8,0 km/h (2 Bft) 100,00 %
28.01.2023 17:28 -0,5 C 3,9 C -0,6 C 95 % 1026,0 hPa 0,0 l/m 5,1 km/h (1 Bft) W-SW 250 0 min 0,000 mm 0,0 UV-I 0 W/m -1,2 C -0,5 C 9,7 km/h (2 Bft) 100,00 %
28.01.2023 17:30 -0,4 C 3,9 C -0,6 C 95 % 1026,0 hPa 0,0 l/m 5,2 km/h (1 Bft) W 259 0 min 0,000 mm 0,0 UV-I 0 W/m -1,1 C -0,4 C 9,7 km/h (2 Bft) 100,00 %
28.01.2023 17:32 -0,4 C 3,9 C -0,6 C 95 % 1026,0 hPa 0,0 l/m 4,2 km/h (1 Bft) W-SW 252 0 min 0,000 mm 0,0 UV-I 0 W/m -1,1 C -0,4 C 6,4 km/h (2 Bft) 97,87 %
28.01.2023 17:34 -0,4 C 3,9 C -0,6 C 95 % 1026,0 hPa 0,0 l/m 6,0 km/h (2 Bft) W 271 0 min 0,000 mm 0,0 UV-I 0 W/m -1,1 C -0,4 C 9,7 km/h (2 Bft) 100,00 %
28.01.2023 17:36 -0,4 C 3,9 C -0,6 C 95 % 1026,0 hPa 0,0 l/m 4,3 km/h (1 Bft) W-SW 258 0 min 0,000 mm 0,0 UV-I 0 W/m -1,1 C -0,4 C 6,4 km/h (2 Bft) 100,00 %
28.01.2023 17:38 -0,4 C 3,9 C -0,6 C 95 % 1026,1 hPa 0,0 l/m 6,4 km/h (2 Bft) W 281 0 min 0,000 mm 0,0 UV-I 0 W/m -1,1 C -0,4 C 9,7 km/h (2 Bft) 100,00 %
28.01.2023 17:40 -0,5 C 3,9 C -0,6 C 95 % 1026,0 hPa 0,0 l/m 6,6 km/h (2 Bft) W-SW 252 0 min 0,000 mm 0,0 UV-I 0 W/m -1,2 C -0,7 C 12,9 km/h (3 Bft) 100,00 %
28.01.2023 17:42 -0,5 C 3,9 C -0,6 C 95 % 1026,1 hPa 0,0 l/m 6,8 km/h (2 Bft) W 263 0 min 0,000 mm 0,0 UV-I 0 W/m -1,2 C -0,9 C 11,3 km/h (2 Bft) 100,00 %
28.01.2023 17:44 -0,4 C 3,9 C -0,6 C 95 % 1026,1 hPa 0,0 l/m 5,2 km/h (1 Bft) W 263 0 min 0,000 mm 0,0 UV-I 0 W/m -1,1 C -0,4 C 11,3 km/h (2 Bft) 100,00 %
28.01.2023 17:46 -0,4 C 3,9 C -0,6 C 95 % 1026,1 hPa 0,0 l/m 7,1 km/h (2 Bft) W 263 0 min 0,000 mm 0,0 UV-I 0 W/m -1,1 C -1,1 C 12,9 km/h (3 Bft) 100,00 %
28.01.2023 17:48 -0,4 C 3,9 C -0,6 C 95 % 1026,1 hPa 0,0 l/m 6,4 km/h (2 Bft) W-SW 250 0 min 0,000 mm 0,0 UV-I 0 W/m -1,1 C -0,4 C 9,7 km/h (2 Bft) 100,00 %
28.01.2023 17:50 -0,4 C 3,9 C -0,6 C 95 % 1026,2 hPa 0,0 l/m 7,1 km/h (2 Bft) W 261 0 min 0,000 mm 0,0 UV-I 0 W/m -1,1 C -1,1 C 11,3 km/h (2 Bft) 95,74 %
28.01.2023 17:52 -0,4 C 3,9 C -0,6 C 95 % 1026,2 hPa 0,0 l/m 7,5 km/h (2 Bft) W-SW 257 0 min 0,000 mm 0,0 UV-I 0 W/m -1,1 C -1,6 C 12,9 km/h (3 Bft) 98,00 %
28.01.2023 17:54 -0,4 C 3,9 C -0,6 C 95 % 1026,2 hPa 0,0 l/m 6,1 km/h (2 Bft) W 271 0 min 0,000 mm 0,0 UV-I 0 W/m -1,1 C -0,4 C 12,9 km/h (3 Bft) 98,00 %
28.01.2023 17:56 -0,4 C 3,9 C -0,6 C 95 % 1026,2 hPa 0,0 l/m 6,6 km/h (2 Bft) W-SW 244 0 min 0,000 mm 0,0 UV-I 0 W/m -1,1 C -0,6 C 9,7 km/h (2 Bft) 98,00 %
28.01.2023 17:58 -0,4 C 3,9 C -0,6 C 95 % 1026,2 hPa 0,0 l/m 5,9 km/h (2 Bft) W-SW 247 0 min 0,000 mm 0,0 UV-I 0 W/m -1,1 C -0,4 C 9,7 km/h (2 Bft) 97,87 %
28.01.2023 18:00 -0,4 C 3,9 C -0,6 C 95 % 1026,2 hPa 0,0 l/m 7,8 km/h (2 Bft) W-SW 246 0 min 0,000 mm 0,0 UV-I 0 W/m -1,1 C -1,9 C 11,3 km/h (2 Bft) 97,56 %
28.01.2023 18:02 -0,5 C 3,9 C -0,6 C 95 % 1026,2 hPa 0,0 l/m 6,8 km/h (2 Bft) W 263 0 min 0,000 mm 0,0 UV-I 0 W/m -1,2 C -0,9 C 9,7 km/h (2 Bft) 98,04 %
28.01.2023 18:04 -0,5 C 3,9 C -0,6 C 95 % 1026,2 hPa 0,0 l/m 5,4 km/h (1 Bft) W 266 0 min 0,000 mm 0,0 UV-I 0 W/m -1,2 C -0,5 C 8,0 km/h (2 Bft) 97,73 %
28.01.2023 18:06 -0,5 C 3,9 C -0,6 C 95 % 1026,2 hPa 0,0 l/m 8,4 km/h (2 Bft) SW 227 0 min 0,000 mm 0,0 UV-I 0 W/m -1,2 C -2,6 C 11,3 km/h (2 Bft) 97,73 %
28.01.2023 18:08 -0,5 C 3,9 C -0,6 C 95 % 1026,2 hPa 0,0 l/m 7,8 km/h (2 Bft) W 262 0 min 0,000 mm 0,0 UV-I 0 W/m -1,2 C -2,0 C 11,3 km/h (2 Bft) 91,49 %
28.01.2023 18:10 -0,5 C 3,9 C -0,6 C 95 % 1026,2 hPa 0,0 l/m 5,8 km/h (2 Bft) W-SW 254 0 min 0,000 mm 0,0 UV-I 0 W/m -1,2 C -0,5 C 8,0 km/h (2 Bft) 97,87 %
28.01.2023 18:12 -0,5 C 3,9 C -0,6 C 95 % 1026,2 hPa 0,0 l/m 5,4 km/h (1 Bft) W-SW 238 0 min 0,000 mm 0,0 UV-I 0 W/m -1,2 C -0,5 C 9,7 km/h (2 Bft) 97,56 %
28.01.2023 18:14 -0,5 C 3,9 C -0,6 C 95 % 1026,2 hPa 0,0 l/m 6,3 km/h (2 Bft) W-SW 237 0 min 0,000 mm 0,0 UV-I 0 W/m -1,2 C -0,5 C 11,3 km/h (2 Bft) 98,11 %
28.01.2023 18:16 -0,5 C 3,9 C -0,6 C 95 % 1026,3 hPa 0,0 l/m 8,2 km/h (2 Bft) W-SW 257 0 min 0,000 mm 0,0 UV-I 0 W/m -1,2 C -2,4 C 12,9 km/h (3 Bft) 98,11 %
28.01.2023 18:18 -0,5 C 3,9 C -0,6 C 95 % 1026,3 hPa 0,0 l/m 5,2 km/h (1 Bft) W 267 0 min 0,000 mm 0,0 UV-I 0 W/m -1,2 C -0,5 C 9,7 km/h (2 Bft) 100,00 %
28.01.2023 18:20 -0,5 C 3,9 C -0,6 C 95 % 1026,3 hPa 0,0 l/m 7,7 km/h (2 Bft) W-SW 250 0 min 0,000 mm 0,0 UV-I 0 W/m -1,2 C -1,9 C 14,5 km/h (3 Bft) 100,00 %
28.01.2023 18:22 -0,5 C 3,9 C -0,6 C 96 % 1026,3 hPa 0,0 l/m 6,3 km/h (2 Bft) SW 232 0 min 0,000 mm 0,0 UV-I 0 W/m -1,1 C -0,5 C 11,3 km/h (2 Bft) 97,87 %
28.01.2023 18:24 -0,5 C 3,9 C -0,6 C 96 % 1026,3 hPa 0,0 l/m 5,7 km/h (1 Bft) W-SW 257 0 min 0,000 mm 0,0 UV-I 0 W/m -1,1 C -0,5 C 9,7 km/h (2 Bft) 96,00 %
28.01.2023 18:26 -0,6 C 3,9 C -0,6 C 96 % 1026,3 hPa 0,0 l/m 4,9 km/h (1 Bft) W 271 0 min 0,000 mm 0,0 UV-I 0 W/m -1,2 C -0,6 C 9,7 km/h (2 Bft) 94,74 %
28.01.2023 18:28 -0,6 C 3,9 C -0,6 C 96 % 1026,3 hPa 0,0 l/m 4,2 km/h (1 Bft) W-SW 245 0 min 0,000 mm 0,0 UV-I 0 W/m -1,2 C -0,6 C 6,4 km/h (2 Bft) 98,00 %
28.01.2023 18:30 -0,6 C 3,9 C -0,6 C 96 % 1026,3 hPa 0,0 l/m 4,6 km/h (1 Bft) W 262 0 min 0,000 mm 0,0 UV-I 0 W/m -1,2 C -0,6 C 6,4 km/h (2 Bft) 95,45 %
28.01.2023 18:32 -0,6 C 3,9 C -0,6 C 96 % 1026,3 hPa 0,0 l/m 4,6 km/h (1 Bft) W 260 0 min 0,000 mm 0,0 UV-I 0 W/m -1,2 C -0,6 C 6,4 km/h (2 Bft) 95,74 %
28.01.2023 18:34 -0,6 C 3,9 C -0,6 C 96 % 1026,4 hPa 0,0 l/m 6,5 km/h (2 Bft) W-SW 252 0 min 0,000 mm 0,0 UV-I 0 W/m -1,2 C -0,7 C 11,3 km/h (2 Bft) 95,74 %
28.01.2023 18:36 -0,6 C 3,9 C -0,6 C 96 % 1026,4 hPa 0,0 l/m 6,0 km/h (2 Bft) W 259 0 min 0,000 mm 0,0 UV-I 0 W/m -1,2 C -0,6 C 12,9 km/h (3 Bft) 94,34 %
28.01.2023 18:38 -0,6 C 3,9 C -1,1 C 96 % 1026,4 hPa 0,0 l/m 5,2 km/h (1 Bft) W 273 0 min 0,000 mm 0,0 UV-I 0 W/m -1,2 C -0,6 C 8,0 km/h (2 Bft) 94,74 %
28.01.2023 18:40 -0,6 C 3,9 C -1,1 C 96 % 1026,4 hPa 0,0 l/m 5,0 km/h (1 Bft) W-SW 247 0 min 0,000 mm 0,0 UV-I 0 W/m -1,2 C -0,6 C 6,4 km/h (2 Bft) 95,74 %
28.01.2023 18:42 -0,6 C 3,9 C -1,1 C 96 % 1026,4 hPa 0,0 l/m 5,6 km/h (1 Bft) W 265 0 min 0,000 mm 0,0 UV-I 0 W/m -1,2 C -0,6 C 9,7 km/h (2 Bft) 92,86 %
28.01.2023 18:44 -0,6 C 3,9 C -1,1 C 96 % 1026,5 hPa 0,0 l/m 5,3 km/h (1 Bft) W-SW 254 0 min 0,000 mm 0,0 UV-I 0 W/m -1,2 C -0,6 C 8,0 km/h (2 Bft) 94,74 %
28.01.2023 18:46 -0,6 C 3,9 C -1,1 C 96 % 1026,5 hPa 0,0 l/m 5,5 km/h (1 Bft) W-SW 250 0 min 0,000 mm 0,0 UV-I 0 W/m -1,2 C -0,6 C 9,7 km/h (2 Bft) 95,74 %
28.01.2023 18:48 -0,6 C 3,9 C -1,1 C 96 % 1026,6 hPa 0,0 l/m 3,9 km/h (1 Bft) W-SW 251 0 min 0,000 mm 0,0 UV-I 0 W/m -1,2 C -0,6 C 6,4 km/h (2 Bft) 94,34 %
28.01.2023 18:50 -0,6 C 3,9 C -1,1 C 96 % 1026,6 hPa 0,0 l/m 4,9 km/h (1 Bft) W 259 0 min 0,000 mm 0,0 UV-I 0 W/m -1,2 C -0,6 C 6,4 km/h (2 Bft) 92,11 %
28.01.2023 18:52 -0,6 C 3,9 C -1,1 C 96 % 1026,6 hPa 0,0 l/m 5,4 km/h (1 Bft) W-SW 252 0 min 0,000 mm 0,0 UV-I 0 W/m -1,2 C -0,6 C 9,7 km/h (2 Bft) 96,43 %
28.01.2023 18:54 -0,6 C 3,9 C -1,1 C 96 % 1026,6 hPa 0,0 l/m 5,7 km/h (1 Bft) SW 236 0 min 0,000 mm 0,0 UV-I 0 W/m -1,2 C -0,6 C 11,3 km/h (2 Bft) 96,00 %
28.01.2023 18:56 -0,6 C 3,9 C -1,1 C 96 % 1026,7 hPa 0,0 l/m 4,6 km/h (1 Bft) W 266 0 min 0,000 mm 0,0 UV-I 0 W/m -1,2 C -0,6 C 6,4 km/h (2 Bft) 94,74 %
28.01.2023 18:58 -0,6 C 3,9 C -1,1 C 96 % 1026,7 hPa 0,0 l/m 5,7 km/h (1 Bft) W 260 0 min 0,000 mm 0,0 UV-I 0 W/m -1,2 C -0,6 C 9,7 km/h (2 Bft) 91,49 %
28.01.2023 19:00 -0,6 C 3,9 C -1,1 C 96 % 1026,8 hPa 0,0 l/m 4,4 km/h (1 Bft) W 265 0 min 0,000 mm 0,0 UV-I 0 W/m -1,2 C -0,6 C 6,4 km/h (2 Bft) 98,00 %
28.01.2023 19:02 -0,6 C 3,9 C -1,1 C 96 % 1026,7 hPa 0,0 l/m 5,1 km/h (1 Bft) W 259 0 min 0,000 mm 0,0 UV-I 0 W/m -1,2 C -0,6 C 9,7 km/h (2 Bft) 96,00 %
28.01.2023 19:04 -0,6 C 3,9 C -1,1 C 96 % 1026,8 hPa 0,0 l/m 5,1 km/h (1 Bft) W 259 0 min 0,000 mm 0,0 UV-I 0 W/m -1,2 C -0,6 C 6,4 km/h (2 Bft) 97,14 %
28.01.2023 19:06 -0,6 C 3,9 C -1,1 C 96 % 1026,8 hPa 0,0 l/m 4,8 km/h (1 Bft) W 267 0 min 0,000 mm 0,0 UV-I 0 W/m -1,2 C -0,6 C 9,7 km/h (2 Bft) 90,57 %
28.01.2023 19:08 -0,6 C 3,9 C -1,1 C 96 % 1026,8 hPa 0,0 l/m 4,8 km/h (1 Bft) W-SW 257 0 min 0,000 mm 0,0 UV-I 0 W/m -1,2 C -0,6 C 9,7 km/h (2 Bft) 92,00 %
28.01.2023 19:10 -0,6 C 3,9 C -1,1 C 96 % 1026,8 hPa 0,0 l/m 4,4 km/h (1 Bft) W-SW 257 0 min 0,000 mm 0,0 UV-I 0 W/m -1,2 C -0,6 C 6,4 km/h (2 Bft) 91,49 %
28.01.2023 19:12 -0,6 C 3,9 C -1,1 C 96 % 1026,8 hPa 0,0 l/m 4,9 km/h (1 Bft) W-SW 247 0 min 0,000 mm 0,0 UV-I 0 W/m -1,2 C -0,6 C 6,4 km/h (2 Bft) 96,00 %
28.01.2023 19:14 -0,6 C 3,9 C -1,1 C 96 % 1026,8 hPa 0,0 l/m 6,4 km/h (2 Bft) W-SW 242 0 min 0,000 mm 0,0 UV-I 0 W/m -1,2 C -0,6 C 11,3 km/h (2 Bft) 94,74 %
28.01.2023 19:16 -0,6 C 3,9 C -1,1 C 96 % 1026,8 hPa 0,0 l/m 4,9 km/h (1 Bft) W-SW 255 0 min 0,000 mm 0,0 UV-I 0 W/m -1,2 C -0,6 C 9,7 km/h (2 Bft) 94,64 %
28.01.2023 19:18 -0,6 C 3,9 C -1,1 C 96 % 1026,8 hPa 0,0 l/m 5,7 km/h (1 Bft) W-SW 256 0 min 0,000 mm 0,0 UV-I 0 W/m -1,2 C -0,6 C 11,3 km/h (2 Bft) 95,74 %
28.01.2023 19:20 -0,6 C 3,9 C -1,1 C 96 % 1026,8 hPa 0,0 l/m 5,6 km/h (1 Bft) W 272 0 min 0,000 mm 0,0 UV-I 0 W/m -1,2 C -0,6 C 11,3 km/h (2 Bft) 94,74 %
28.01.2023 19:22 -0,6 C 3,9 C -1,1 C 96 % 1026,8 hPa 0,0 l/m 6,0 km/h (2 Bft) W-SW 252 0 min 0,000 mm 0,0 UV-I 0 W/m -1,2 C -0,6 C 9,7 km/h (2 Bft) 98,00 %
28.01.2023 19:24 -0,6 C 3,9 C -1,1 C 96 % 1026,8 hPa 0,0 l/m 4,8 km/h (1 Bft) W 273 0 min 0,000 mm 0,0 UV-I 0 W/m -1,2 C -0,6 C 9,7 km/h (2 Bft) 95,45 %
28.01.2023 19:26 -0,6 C 3,9 C -1,1 C 96 % 1026,8 hPa 0,0 l/m 4,8 km/h (1 Bft) W 269 0 min 0,000 mm 0,0 UV-I 0 W/m -1,2 C -0,6 C 8,0 km/h (2 Bft) 96,00 %
28.01.2023 19:28 -0,6 C 3,9 C -1,1 C 96 % 1026,9 hPa 0,0 l/m 5,3 km/h (1 Bft) W 274 0 min 0,000 mm 0,0 UV-I 0 W/m -1,2 C -0,6 C 9,7 km/h (2 Bft) 98,00 %
28.01.2023 19:30 -0,6 C 3,9 C -1,1 C 96 % 1026,9 hPa 0,0 l/m 6,8 km/h (2 Bft) W-SW 250 0 min 0,000 mm 0,0 UV-I 0 W/m -1,2 C -1,0 C 11,3 km/h (2 Bft) 100,00 %
28.01.2023 19:32 -0,6 C 3,9 C -1,1 C 96 % 1026,8 hPa 0,0 l/m 6,2 km/h (2 Bft) W 262 0 min 0,000 mm 0,0 UV-I 0 W/m -1,2 C -0,6 C 9,7 km/h (2 Bft) 96,92 %
28.01.2023 19:34 -0,5 C 3,9 C -0,6 C 96 % 1026,9 hPa 0,0 l/m 4,5 km/h (1 Bft) W 267 0 min 0,000 mm 0,0 UV-I 0 W/m -1,1 C -0,5 C 4,8 km/h (1 Bft) 95,74 %
28.01.2023 19:36 -0,5 C 3,9 C -0,6 C 96 % 1026,9 hPa 0,0 l/m 4,1 km/h (1 Bft) W 274 0 min 0,000 mm 0,0 UV-I 0 W/m -1,1 C -0,5 C 6,4 km/h (2 Bft) 100,00 %
28.01.2023 19:38 -0,5 C 3,9 C -0,6 C 96 % 1026,9 hPa 0,0 l/m 4,6 km/h (1 Bft) W-SW 257 0 min 0,000 mm 0,0 UV-I 0 W/m -1,1 C -0,5 C 6,4 km/h (2 Bft) 100,00 %
28.01.2023 19:40 -0,5 C 3,9 C -0,6 C 96 % 1026,9 hPa 0,0 l/m 4,7 km/h (1 Bft) W-SW 255 0 min 0,000 mm 0,0 UV-I 0 W/m -1,1 C -0,5 C 9,7 km/h (2 Bft) 100,00 %
28.01.2023 19:42 -0,5 C 3,9 C -0,6 C 96 % 1026,9 hPa 0,0 l/m 2,7 km/h (1 Bft) W-SW 252 0 min 0,000 mm 0,0 UV-I 0 W/m -1,1 C -0,5 C 3,2 km/h (1 Bft) 100,00 %
28.01.2023 19:44 -0,5 C 3,9 C -0,6 C 96 % 1026,9 hPa 0,0 l/m 3,5 km/h (1 Bft) W 270 0 min 0,000 mm 0,0 UV-I 0 W/m -1,1 C -0,5 C 6,4 km/h (2 Bft) 97,87 %
28.01.2023 19:46 -0,5 C 3,9 C -0,6 C 96 % 1026,9 hPa 0,0 l/m 5,0 km/h (1 Bft) W-SW 257 0 min 0,000 mm 0,0 UV-I 0 W/m -1,1 C -0,5 C 6,4 km/h (2 Bft) 100,00 %
28.01.2023 19:48 -0,5 C 3,9 C -0,6 C 96 % 1026,9 hPa 0,0 l/m 4,1 km/h (1 Bft) W-SW 257 0 min 0,000 mm 0,0 UV-I 0 W/m -1,1 C -0,5 C 6,4 km/h (2 Bft) 98,00 %
28.01.2023 19:50 -0,5 C 3,9 C -0,6 C 96 % 1026,9 hPa 0,0 l/m 4,0 km/h (1 Bft) SW 232 0 min 0,000 mm 0,0 UV-I 0 W/m -1,1 C -0,5 C 6,4 km/h (2 Bft) 100,00 %
28.01.2023 19:52 -0,5 C 3,9 C -0,6 C 96 % 1026,9 hPa 0,0 l/m 4,7 km/h (1 Bft) SW 235 0 min 0,000 mm 0,0 UV-I 0 W/m -1,1 C -0,5 C 8,0 km/h (2 Bft) 97,87 %
28.01.2023 19:54 -0,5 C 3,9 C -0,6 C 96 % 1026,9 hPa 0,0 l/m 3,6 km/h (1 Bft) W-SW 239 0 min 0,000 mm 0,0 UV-I 0 W/m -1,1 C -0,5 C 6,4 km/h (2 Bft) 100,00 %
28.01.2023 19:56 -0,5 C 3,9 C -0,6 C 96 % 1026,9 hPa 0,0 l/m 4,2 km/h (1 Bft) SW 236 0 min 0,000 mm 0,0 UV-I 0 W/m -1,1 C -0,5 C 6,4 km/h (2 Bft) 100,00 %
28.01.2023 19:58 -0,5 C 3,9 C -0,6 C 96 % 1026,9 hPa 0,0 l/m 5,2 km/h (1 Bft) W-SW 244 0 min 0,000 mm 0,0 UV-I 0 W/m -1,1 C -0,5 C 8,0 km/h (2 Bft) 100,00 %
28.01.2023 20:00 -0,5 C 3,9 C -0,6 C 96 % 1026,9 hPa 0,0 l/m 6,0 km/h (2 Bft) SW 232 0 min 0,000 mm 0,0 UV-I 0 W/m -1,1 C -0,5 C 8,0 km/h (2 Bft) 97,37 %
28.01.2023 20:02 -0,5 C 3,9 C -0,6 C 96 % 1026,9 hPa 0,0 l/m 5,8 km/h (2 Bft) SW 229 0 min 0,000 mm 0,0 UV-I 0 W/m -1,1 C -0,5 C 8,0 km/h (2 Bft) 100,00 %
28.01.2023 20:04 -0,5 C 3,9 C -0,6 C 96 % 1026,9 hPa 0,0 l/m 6,2 km/h (2 Bft) W-SW 252 0 min 0,000 mm 0,0 UV-I 0 W/m -1,1 C -0,5 C 11,3 km/h (2 Bft) 100,00 %
28.01.2023 20:06 -0,5 C 3,9 C -0,6 C 96 % 1026,9 hPa 0,0 l/m 5,5 km/h (1 Bft) SW 235 0 min 0,000 mm 0,0 UV-I 0 W/m -1,1 C -0,5 C 8,0 km/h (2 Bft) 100,00 %
28.01.2023 20:08 -0,4 C 3,9 C -0,6 C 96 % 1026,9 hPa 0,0 l/m 5,3 km/h (1 Bft) W-SW 240 0 min 0,000 mm 0,0 UV-I 0 W/m -1,0 C -0,4 C 8,0 km/h (2 Bft) 98,11 %
28.01.2023 20:10 -0,4 C 3,9 C -0,6 C 96 % 1026,9 hPa 0,0 l/m 5,1 km/h (1 Bft) W-SW 237 0 min 0,000 mm 0,0 UV-I 0 W/m -1,0 C -0,4 C 8,0 km/h (2 Bft) 100,00 %
28.01.2023 20:12 -0,5 C 3,9 C -0,6 C 96 % 1026,9 hPa 0,0 l/m 6,1 km/h (2 Bft) W-SW 238 0 min 0,000 mm 0,0 UV-I 0 W/m -1,1 C -0,5 C 8,0 km/h (2 Bft) 97,37 %
28.01.2023 20:14 -0,5 C 3,9 C -0,6 C 96 % 1026,9 hPa 0,0 l/m 5,6 km/h (1 Bft) SW 234 0 min 0,000 mm 0,0 UV-I 0 W/m -1,1 C -0,5 C 8,0 km/h (2 Bft) 97,56 %
28.01.2023 20:16 -0,5 C 3,9 C -0,6 C 96 % 1026,9 hPa 0,0 l/m 5,3 km/h (1 Bft) SW 233 0 min 0,000 mm 0,0 UV-I 0 W/m -1,1 C -0,5 C 8,0 km/h (2 Bft) 100,00 %
28.01.2023 20:18 -0,5 C 3,9 C -0,6 C 96 % 1026,9 hPa 0,0 l/m 6,1 km/h (2 Bft) SW 232 0 min 0,000 mm 0,0 UV-I 0 W/m -1,1 C -0,5 C 8,0 km/h (2 Bft) 97,87 %
28.01.2023 20:20 -0,5 C 3,9 C -0,6 C 96 % 1027,0 hPa 0,0 l/m 5,7 km/h (1 Bft) SW 235 0 min 0,000 mm 0,0 UV-I 0 W/m -1,1 C -0,5 C 8,0 km/h (2 Bft) 97,56 %
28.01.2023 20:22 -0,5 C 3,9 C -0,6 C 96 % 1027,0 hPa 0,0 l/m 5,9 km/h (2 Bft) W-SW 256 0 min 0,000 mm 0,0 UV-I 0 W/m -1,1 C -0,5 C 11,3 km/h (2 Bft) 96,15 %
28.01.2023 20:24 -0,5 C 3,9 C -0,6 C 96 % 1027,0 hPa 0,0 l/m 4,9 km/h (1 Bft) W-SW 242 0 min 0,000 mm 0,0 UV-I 0 W/m -1,1 C -0,5 C 6,4 km/h (2 Bft) 98,11 %
28.01.2023 20:26 -0,5 C 3,9 C -0,6 C 96 % 1027,0 hPa 0,0 l/m 3,6 km/h (1 Bft) SW 233 0 min 0,000 mm 0,0 UV-I 0 W/m -1,1 C -0,5 C 4,8 km/h (1 Bft) 97,87 %
28.01.2023 20:28 -0,5 C 3,9 C -0,6 C 96 % 1027,1 hPa 0,0 l/m 3,9 km/h (1 Bft) W-SW 248 0 min 0,000 mm 0,0 UV-I 0 W/m -1,1 C -0,5 C 6,4 km/h (2 Bft) 92,59 %
28.01.2023 20:30 -0,6 C 3,9 C -0,6 C 96 % 1027,0 hPa 0,0 l/m 3,9 km/h (1 Bft) W 266 0 min 0,000 mm 0,0 UV-I 0 W/m -1,2 C -0,6 C 6,4 km/h (2 Bft) 96,55 %
28.01.2023 20:32 -0,5 C 3,9 C -0,6 C 96 % 1027,0 hPa 0,0 l/m 5,4 km/h (1 Bft) W 262 0 min 0,000 mm 0,0 UV-I 0 W/m -1,1 C -0,5 C 6,4 km/h (2 Bft) 92,45 %
28.01.2023 20:34 -0,6 C 3,9 C -0,6 C 96 % 1027,1 hPa 0,0 l/m 4,2 km/h (1 Bft) W-NW 288 0 min 0,000 mm 0,0 UV-I 0 W/m -1,2 C -0,6 C 6,4 km/h (2 Bft) 95,12 %
28.01.2023 20:36 -0,6 C 3,9 C -0,6 C 96 % 1027,1 hPa 0,0 l/m 4,1 km/h (1 Bft) W 267 0 min 0,000 mm 0,0 UV-I 0 W/m -1,2 C -0,6 C 6,4 km/h (2 Bft) 93,62 %
28.01.2023 20:38 -0,6 C 3,9 C -0,6 C 96 % 1027,1 hPa 0,0 l/m 4,8 km/h (1 Bft) W 261 0 min 0,000 mm 0,0 UV-I 0 W/m -1,2 C -0,6 C 9,7 km/h (2 Bft) 94,64 %
28.01.2023 20:40 -0,6 C 3,9 C -0,6 C 96 % 1027,1 hPa 0,0 l/m 3,5 km/h (1 Bft) W 266 0 min 0,000 mm 0,0 UV-I 0 W/m -1,2 C -0,6 C 6,4 km/h (2 Bft) 94,74 %
28.01.2023 20:42 -0,6 C 3,9 C -1,1 C 96 % 1027,2 hPa 0,0 l/m 3,7 km/h (1 Bft) W-SW 250 0 min 0,000 mm 0,0 UV-I 0 W/m -1,2 C -0,6 C 6,4 km/h (2 Bft) 98,21 %
28.01.2023 20:44 -0,6 C 3,9 C -0,6 C 96 % 1027,1 hPa 0,0 l/m 5,5 km/h (1 Bft) W 267 0 min 0,000 mm 0,0 UV-I 0 W/m -1,2 C -0,6 C 6,4 km/h (2 Bft) 94,74 %
28.01.2023 20:46 -0,6 C 3,9 C -0,6 C 96 % 1027,1 hPa 0,0 l/m 6,0 km/h (2 Bft) W-SW 244 0 min 0,000 mm 0,0 UV-I 0 W/m -1,2 C -0,6 C 11,3 km/h (2 Bft) 97,44 %
28.01.2023 20:48 -0,5 C 3,9 C -0,6 C 96 % 1027,1 hPa 0,0 l/m 5,0 km/h (1 Bft) W 274 0 min 0,000 mm 0,0 UV-I 0 W/m -1,1 C -0,5 C 8,0 km/h (2 Bft) 98,18 %
28.01.2023 20:50 -0,6 C 3,9 C -0,6 C 96 % 1027,1 hPa 0,0 l/m 4,9 km/h (1 Bft) W 264 0 min 0,000 mm 0,0 UV-I 0 W/m -1,2 C -0,6 C 6,4 km/h (2 Bft) 95,74 %
28.01.2023 20:53 -0,5 C 3,9 C -0,6 C 96 % 1027,1 hPa 0,0 l/m 4,6 km/h (1 Bft) W 267 0 min 0,000 mm 0,0 UV-I 0 W/m -1,1 C -0,5 C 6,4 km/h (2 Bft) 96,25 %
28.01.2023 20:54 -0,5 C 3,9 C -0,6 C 96 % 1027,1 hPa 0,0 l/m 5,4 km/h (1 Bft) W-SW 255 0 min 0,000 mm 0,0 UV-I 0 W/m -1,1 C -0,5 C 8,0 km/h (2 Bft) 100,00 %
28.01.2023 20:56 -0,5 C 3,9 C -0,6 C 96 % 1027,2 hPa 0,0 l/m 7,0 km/h (2 Bft) W 279 0 min 0,000 mm 0,0 UV-I 0 W/m -1,1 C -1,1 C 11,3 km/h (2 Bft) 95,92 %
28.01.2023 20:58 -0,5 C 3,9 C -0,6 C 96 % 1027,2 hPa 0,0 l/m 6,4 km/h (2 Bft) W-SW 248 0 min 0,000 mm 0,0 UV-I 0 W/m -1,1 C -0,5 C 9,7 km/h (2 Bft) 98,11 %
28.01.2023 21:00 -0,5 C 3,9 C -0,6 C 96 % 1027,2 hPa 0,0 l/m 5,0 km/h (1 Bft) W 265 0 min 0,000 mm 0,0 UV-I 0 W/m -1,1 C -0,5 C 9,7 km/h (2 Bft) 97,44 %
28.01.2023 21:02 -0,5 C 3,9 C -0,6 C 96 % 1027,2 hPa 0,0 l/m 5,0 km/h (1 Bft) W-SW 245 0 min 0,000 mm 0,0 UV-I 0 W/m -1,1 C -0,5 C 6,4 km/h (2 Bft) 98,08 %
28.01.2023 21:04 -0,5 C 3,9 C -0,6 C 96 % 1027,3 hPa 0,0 l/m 4,9 km/h (1 Bft) W 268 0 min 0,000 mm 0,0 UV-I 0 W/m -1,1 C -0,5 C 6,4 km/h (2 Bft) 98,00 %
28.01.2023 21:06 -0,5 C 3,9 C -0,6 C 96 % 1027,3 hPa 0,0 l/m 3,7 km/h (1 Bft) W-SW 254 0 min 0,000 mm 0,0 UV-I 0 W/m -1,1 C -0,5 C 4,8 km/h (1 Bft) 100,00 %
28.01.2023 21:08 -0,5 C 3,9 C -0,6 C 96 % 1027,2 hPa 0,0 l/m 4,2 km/h (1 Bft) W-SW 251 0 min 0,000 mm 0,0 UV-I 0 W/m -1,1 C -0,5 C 6,4 km/h (2 Bft) 100,00 %
28.01.2023 21:10 -0,4 C 3,9 C -0,6 C 96 % 1027,3 hPa 0,0 l/m 4,9 km/h (1 Bft) SW 235 0 min 0,000 mm 0,0 UV-I 0 W/m -1,0 C -0,4 C 9,7 km/h (2 Bft) 100,00 %
28.01.2023 21:12 -0,4 C 3,9 C -0,6 C 96 % 1027,2 hPa 0,0 l/m 5,8 km/h (2 Bft) SW 234 0 min 0,000 mm 0,0 UV-I 0 W/m -1,0 C -0,4 C 8,0 km/h (2 Bft) 98,00 %
28.01.2023 21:14 -0,4 C 3,9 C -0,6 C 96 % 1027,2 hPa 0,0 l/m 4,2 km/h (1 Bft) W-SW 249 0 min 0,000 mm 0,0 UV-I 0 W/m -1,0 C -0,4 C 6,4 km/h (2 Bft) 100,00 %
28.01.2023 21:16 -0,4 C 3,9 C -0,6 C 96 % 1027,2 hPa 0,0 l/m 4,2 km/h (1 Bft) W-SW 241 0 min 0,000 mm 0,0 UV-I 0 W/m -1,0 C -0,4 C 6,4 km/h (2 Bft) 98,08 %
28.01.2023 21:18 -0,4 C 3,9 C -0,6 C 96 % 1027,2 hPa 0,0 l/m 3,3 km/h (1 Bft) W-SW 240 0 min 0,000 mm 0,0 UV-I 0 W/m -1,0 C -0,4 C 4,8 km/h (1 Bft) 97,44 %
28.01.2023 21:20 -0,4 C 3,9 C -0,6 C 96 % 1027,2 hPa 0,0 l/m 4,2 km/h (1 Bft) SW 228 0 min 0,000 mm 0,0 UV-I 0 W/m -1,0 C -0,4 C 6,4 km/h (2 Bft) 96,23 %
28.01.2023 21:22 -0,4 C 3,9 C -0,6 C 96 % 1027,2 hPa 0,0 l/m 2,6 km/h (1 Bft) S-SW 213 0 min 0,000 mm 0,0 UV-I 0 W/m -1,0 C -0,4 C 4,8 km/h (1 Bft) 97,37 %
28.01.2023 21:24 -0,4 C 3,9 C -0,6 C 96 % 1027,3 hPa 0,0 l/m 2,2 km/h (1 Bft) SW 215 0 min 0,000 mm 0,0 UV-I 0 W/m -1,0 C -0,4 C 4,8 km/h (1 Bft) 100,00 %
28.01.2023 21:26 -0,4 C 3,9 C -0,6 C 96 % 1027,3 hPa 0,0 l/m 3,9 km/h (1 Bft) SW 214 0 min 0,000 mm 0,0 UV-I 0 W/m -1,0 C -0,4 C 6,4 km/h (2 Bft) 97,87 %
28.01.2023 21:28 -0,4 C 3,9 C -0,6 C 96 % 1027,3 hPa 0,0 l/m 3,4 km/h (1 Bft) SW 219 0 min 0,000 mm 0,0 UV-I 0 W/m -1,0 C -0,4 C 4,8 km/h (1 Bft) 100,00 %
28.01.2023 21:30 -0,4 C 3,9 C -0,6 C 96 % 1027,3 hPa 0,0 l/m 2,4 km/h (1 Bft) SW 219 0 min 0,000 mm 0,0 UV-I 0 W/m -1,0 C -0,4 C 4,8 km/h (1 Bft) 97,87 %
28.01.2023 21:32 -0,4 C 3,9 C -0,6 C 96 % 1027,3 hPa 0,0 l/m 4,3 km/h (1 Bft) SW 221 0 min 0,000 mm 0,0 UV-I 0 W/m -1,0 C -0,4 C 6,4 km/h (2 Bft) 100,00 %
28.01.2023 21:34 -0,4 C 3,9 C -0,6 C 96 % 1027,3 hPa 0,0 l/m 4,1 km/h (1 Bft) SW 224 0 min 0,000 mm 0,0 UV-I 0 W/m -1,0 C -0,4 C 4,8 km/h (1 Bft) 100,00 %
28.01.2023 21:36 -0,4 C 3,9 C -0,6 C 96 % 1027,2 hPa 0,0 l/m 3,1 km/h (1 Bft) SW 225 0 min 0,000 mm 0,0 UV-I 0 W/m -1,0 C -0,4 C 4,8 km/h (1 Bft) 97,37 %
28.01.2023 21:38 -0,4 C 3,9 C -0,6 C 96 % 1027,3 hPa 0,0 l/m 3,6 km/h (1 Bft) S-SW 205 0 min 0,000 mm 0,0 UV-I 0 W/m -1,0 C -0,4 C 4,8 km/h (1 Bft) 96,23 %
28.01.2023 21:40 -0,4 C 3,9 C -0,6 C 96 % 1027,3 hPa 0,0 l/m 4,1 km/h (1 Bft) SW 223 0 min 0,000 mm 0,0 UV-I 0 W/m -1,0 C -0,4 C 6,4 km/h (2 Bft) 97,56 %
28.01.2023 21:42 -0,4 C 3,9 C -0,6 C 96 % 1027,3 hPa 0,0 l/m 4,3 km/h (1 Bft) SW 232 0 min 0,000 mm 0,0 UV-I 0 W/m -1,0 C -0,4 C 6,4 km/h (2 Bft) 97,87 %
28.01.2023 21:44 -0,4 C 3,9 C -0,6 C 96 % 1027,3 hPa 0,0 l/m 4,0 km/h (1 Bft) SW 217 0 min 0,000 mm 0,0 UV-I 0 W/m -1,0 C -0,4 C 6,4 km/h (2 Bft) 95,74 %
28.01.2023 21:46 -0,4 C 3,9 C -0,6 C 96 % 1027,4 hPa 0,0 l/m 5,7 km/h (1 Bft) W-SW 254 0 min 0,000 mm 0,0 UV-I 0 W/m -1,0 C -0,4 C 8,0 km/h (2 Bft) 96,00 %
28.01.2023 21:48 -0,4 C 3,9 C -0,6 C 96 % 1027,3 hPa 0,0 l/m 5,9 km/h (2 Bft) W-SW 250 0 min 0,000 mm 0,0 UV-I 0 W/m -1,0 C -0,4 C 8,0 km/h (2 Bft) 97,73 %
28.01.2023 21:50 -0,4 C 3,9 C -0,6 C 96 % 1027,3 hPa 0,0 l/m 4,0 km/h (1 Bft) SW 232 0 min 0,000 mm 0,0 UV-I 0 W/m -1,0 C -0,4 C 6,4 km/h (2 Bft) 96,23 %
28.01.2023 21:52 -0,4 C 3,9 C -0,6 C 96 % 1027,3 hPa 0,0 l/m 3,1 km/h (1 Bft) SW 230 0 min 0,000 mm 0,0 UV-I 0 W/m -1,0 C -0,4 C 4,8 km/h (1 Bft) 95,74 %
28.01.2023 21:54 -0,4 C 3,9 C -0,6 C 96 % 1027,3 hPa 0,0 l/m 3,8 km/h (1 Bft) W-SW 246 0 min 0,000 mm 0,0 UV-I 0 W/m -1,0 C -0,4 C 4,8 km/h (1 Bft) 100,00 %
28.01.2023 21:56 -0,4 C 3,9 C -0,6 C 97 % 1027,4 hPa 0,0 l/m 4,1 km/h (1 Bft) S-SW 208 0 min 0,000 mm 0,0 UV-I 0 W/m -0,8 C -0,4 C 6,4 km/h (2 Bft) 97,87 %
28.01.2023 21:58 -0,4 C 3,9 C -0,6 C 97 % 1027,4 hPa 0,0 l/m 5,0 km/h (1 Bft) S-SW 213 0 min 0,000 mm 0,0 UV-I 0 W/m -0,8 C -0,4 C 6,4 km/h (2 Bft) 100,00 %
28.01.2023 22:00 -0,4 C 3,9 C -0,6 C 97 % 1027,4 hPa 0,0 l/m 3,5 km/h (1 Bft) SW 228 0 min 0,000 mm 0,0 UV-I 0 W/m -0,8 C -0,4 C 6,4 km/h (2 Bft) 100,00 %
28.01.2023 22:02 -0,4 C 3,9 C -0,6 C 97 % 1027,4 hPa 0,0 l/m 4,8 km/h (1 Bft) W-SW 242 0 min 0,000 mm 0,0 UV-I 0 W/m -0,8 C -0,4 C 6,4 km/h (2 Bft) 100,00 %
28.01.2023 22:04 -0,4 C 3,9 C -0,6 C 97 % 1027,4 hPa 0,0 l/m 5,3 km/h (1 Bft) SW 216 0 min 0,000 mm 0,0 UV-I 0 W/m -0,8 C -0,4 C 8,0 km/h (2 Bft) 98,11 %
28.01.2023 22:06 -0,4 C 3,9 C -0,6 C 97 % 1027,4 hPa 0,0 l/m 4,5 km/h (1 Bft) SW 223 0 min 0,000 mm 0,0 UV-I 0 W/m -0,8 C -0,4 C 6,4 km/h (2 Bft) 100,00 %
28.01.2023 22:08 -0,4 C 3,9 C -0,6 C 97 % 1027,4 hPa 0,0 l/m 3,6 km/h (1 Bft) SW 215 0 min 0,000 mm 0,0 UV-I 0 W/m -0,8 C -0,4 C 4,8 km/h (1 Bft) 100,00 %
28.01.2023 22:10 -0,4 C 3,9 C -0,6 C 97 % 1027,4 hPa 0,0 l/m 3,5 km/h (1 Bft) S-SW 210 0 min 0,000 mm 0,0 UV-I 0 W/m -0,8 C -0,4 C 6,4 km/h (2 Bft) 98,00 %
28.01.2023 22:12 -0,4 C 3,9 C -0,6 C 97 % 1027,4 hPa 0,0 l/m 3,2 km/h (1 Bft) S-SW 211 0 min 0,000 mm 0,0 UV-I 0 W/m -0,8 C -0,4 C 4,8 km/h (1 Bft) 100,00 %
28.01.2023 22:14 -0,4 C 3,9 C -0,6 C 97 % 1027,4 hPa 0,0 l/m 5,5 km/h (1 Bft) SW 218 0 min 0,000 mm 0,0 UV-I 0 W/m -0,8 C -0,4 C 8,0 km/h (2 Bft) 97,73 %
28.01.2023 22:16 -0,4 C 3,9 C -0,6 C 97 % 1027,4 hPa 0,0 l/m 6,6 km/h (2 Bft) W-SW 242 0 min 0,000 mm 0,0 UV-I 0 W/m -0,8 C -0,6 C 8,0 km/h (2 Bft) 100,00 %
28.01.2023 22:18 -0,4 C 3,9 C -0,6 C 97 % 1027,4 hPa 0,0 l/m 3,6 km/h (1 Bft) W-SW 243 0 min 0,000 mm 0,0 UV-I 0 W/m -0,8 C -0,4 C 6,4 km/h (2 Bft) 100,00 %
28.01.2023 22:20 -0,4 C 3,9 C -0,6 C 97 % 1027,4 hPa 0,0 l/m 3,9 km/h (1 Bft) SW 236 0 min 0,000 mm 0,0 UV-I 0 W/m -0,8 C -0,4 C 8,0 km/h (2 Bft) 100,00 %
28.01.2023 22:22 -0,4 C 3,9 C -0,6 C 97 % 1027,4 hPa 0,0 l/m 6,0 km/h (2 Bft) SW 226 0 min 0,000 mm 0,0 UV-I 0 W/m -0,8 C -0,4 C 8,0 km/h (2 Bft) 97,87 %
28.01.2023 22:24 -0,4 C 3,9 C -0,6 C 97 % 1027,4 hPa 0,0 l/m 4,6 km/h (1 Bft) W-SW 252 0 min 0,000 mm 0,0 UV-I 0 W/m -0,8 C -0,4 C 8,0 km/h (2 Bft) 97,87 %
28.01.2023 22:26 -0,4 C 3,9 C -0,6 C 97 % 1027,4 hPa 0,0 l/m 3,5 km/h (1 Bft) W-SW 253 0 min 0,000 mm 0,0 UV-I 0 W/m -0,8 C -0,4 C 4,8 km/h (1 Bft) 97,87 %
28.01.2023 22:28 -0,4 C 3,9 C -0,6 C 97 % 1027,4 hPa 0,0 l/m 4,1 km/h (1 Bft) SW 228 0 min 0,000 mm 0,0 UV-I 0 W/m -0,8 C -0,4 C 6,4 km/h (2 Bft) 95,74 %
28.01.2023 22:30 -0,5 C 3,9 C -0,6 C 97 % 1027,5 hPa 0,0 l/m 4,6 km/h (1 Bft) W-SW 246 0 min 0,000 mm 0,0 UV-I 0 W/m -0,9 C -0,5 C 6,4 km/h (2 Bft) 97,87 %
28.01.2023 22:32 -0,4 C 3,9 C -0,6 C 97 % 1027,5 hPa 0,0 l/m 5,1 km/h (1 Bft) W-SW 245 0 min 0,000 mm 0,0 UV-I 0 W/m -0,8 C -0,4 C 8,0 km/h (2 Bft) 96,00 %
28.01.2023 22:34 -0,4 C 3,9 C -0,6 C 97 % 1027,6 hPa 0,0 l/m 3,4 km/h (1 Bft) W-SW 249 0 min 0,000 mm 0,0 UV-I 0 W/m -0,8 C -0,4 C 4,8 km/h (1 Bft) 97,37 %
28.01.2023 22:36 -0,4 C 3,9 C -0,6 C 97 % 1027,6 hPa 0,0 l/m 4,1 km/h (1 Bft) S-SW 209 0 min 0,000 mm 0,0 UV-I 0 W/m -0,8 C -0,4 C 6,4 km/h (2 Bft) 94,00 %
28.01.2023 22:38 -0,4 C 3,9 C -0,6 C 97 % 1027,6 hPa 0,0 l/m 5,1 km/h (1 Bft) W-SW 240 0 min 0,000 mm 0,0 UV-I 0 W/m -0,8 C -0,4 C 8,0 km/h (2 Bft) 96,00 %
28.01.2023 22:40 -0,4 C 3,9 C -0,6 C 97 % 1027,6 hPa 0,0 l/m 5,9 km/h (2 Bft) W-SW 248 0 min 0,000 mm 0,0 UV-I 0 W/m -0,8 C -0,4 C 8,0 km/h (2 Bft) 95,74 %
28.01.2023 22:42 -0,4 C 3,9 C -0,6 C 97 % 1027,7 hPa 0,0 l/m 6,0 km/h (2 Bft) SW 232 0 min 0,000 mm 0,0 UV-I 0 W/m -0,8 C -0,4 C 9,7 km/h (2 Bft) 93,62 %
28.01.2023 22:44 -0,4 C 3,9 C -0,6 C 97 % 1027,6 hPa 0,0 l/m 4,0 km/h (1 Bft) W-SW 246 0 min 0,000 mm 0,0 UV-I 0 W/m -0,8 C -0,4 C 6,4 km/h (2 Bft) 93,62 %
28.01.2023 22:46 -0,4 C 3,9 C -0,6 C 97 % 1027,7 hPa 0,0 l/m 5,8 km/h (2 Bft) SW 226 0 min 0,000 mm 0,0 UV-I 0 W/m -0,8 C -0,4 C 8,0 km/h (2 Bft) 96,00 %
28.01.2023 22:48 -0,4 C 3,9 C -0,6 C 97 % 1027,7 hPa 0,0 l/m 7,1 km/h (2 Bft) W-SW 240 0 min 0,000 mm 0,0 UV-I 0 W/m -0,8 C -1,1 C 11,3 km/h (2 Bft) 91,49 %
28.01.2023 22:50 -0,4 C 3,9 C -0,6 C 97 % 1027,7 hPa 0,0 l/m 6,0 km/h (2 Bft) W-SW 238 0 min 0,000 mm 0,0 UV-I 0 W/m -0,8 C -0,4 C 9,7 km/h (2 Bft) 92,68 %
28.01.2023 22:52 -0,4 C 3,9 C -0,6 C 97 % 1027,7 hPa 0,0 l/m 6,2 km/h (2 Bft) W-SW 243 0 min 0,000 mm 0,0 UV-I 0 W/m -0,8 C -0,4 C 11,3 km/h (2 Bft) 95,74 %
28.01.2023 22:54 -0,5 C 3,9 C -0,6 C 97 % 1027,8 hPa 0,0 l/m 5,3 km/h (1 Bft) W-SW 252 0 min 0,000 mm 0,0 UV-I 0 W/m -0,9 C -0,5 C 6,4 km/h (2 Bft) 94,00 %
28.01.2023 22:56 -0,4 C 3,9 C -0,6 C 97 % 1027,8 hPa 0,0 l/m 4,0 km/h (1 Bft) W-SW 245 0 min 0,000 mm 0,0 UV-I 0 W/m -0,8 C -0,4 C 4,8 km/h (1 Bft) 92,68 %
28.01.2023 22:58 -0,4 C 3,9 C -0,6 C 97 % 1027,8 hPa 0,0 l/m 4,6 km/h (1 Bft) W 260 0 min 0,000 mm 0,0 UV-I 0 W/m -0,8 C -0,4 C 6,4 km/h (2 Bft) 90,57 %
28.01.2023 23:00 -0,4 C 3,9 C -0,6 C 97 % 1027,8 hPa 0,0 l/m 4,9 km/h (1 Bft) W-SW 254 0 min 0,000 mm 0,0 UV-I 0 W/m -0,8 C -0,4 C 9,7 km/h (2 Bft) 89,47 %
28.01.2023 23:02 -0,4 C 3,9 C -0,6 C 97 % 1027,8 hPa 0,0 l/m 3,1 km/h (1 Bft) W-SW 248 0 min 0,000 mm 0,0 UV-I 0 W/m -0,8 C -0,4 C 4,8 km/h (1 Bft) 94,00 %
28.01.2023 23:04 -0,4 C 3,9 C -0,6 C 97 % 1027,8 hPa 0,0 l/m 3,7 km/h (1 Bft) W-SW 250 0 min 0,000 mm 0,0 UV-I 0 W/m -0,8 C -0,4 C 4,8 km/h (1 Bft) 92,45 %
28.01.2023 23:06 -0,4 C 3,9 C -0,6 C 97 % 1027,8 hPa 0,0 l/m 4,5 km/h (1 Bft) SW 228 0 min 0,000 mm 0,0 UV-I 0 W/m -0,8 C -0,4 C 6,4 km/h (2 Bft) 92,11 %
28.01.2023 23:08 -0,5 C 3,9 C -0,6 C 97 % 1027,8 hPa 0,0 l/m 5,1 km/h (1 Bft) W-SW 244 0 min 0,000 mm 0,0 UV-I 0 W/m -0,9 C -0,5 C 6,4 km/h (2 Bft) 92,00 %
28.01.2023 23:10 -0,4 C 3,9 C -0,6 C 97 % 1027,8 hPa 0,0 l/m 4,9 km/h (1 Bft) W-SW 253 0 min 0,000 mm 0,0 UV-I 0 W/m -0,8 C -0,4 C 6,4 km/h (2 Bft) 94,00 %
28.01.2023 23:12 -0,4 C 3,9 C -0,6 C 97 % 1027,8 hPa 0,0 l/m 4,9 km/h (1 Bft) SW 232 0 min 0,000 mm 0,0 UV-I 0 W/m -0,8 C -0,4 C 8,0 km/h (2 Bft) 95,74 %
28.01.2023 23:14 -0,4 C 3,9 C -0,6 C 97 % 1027,8 hPa 0,0 l/m 4,0 km/h (1 Bft) W-SW 237 0 min 0,000 mm 0,0 UV-I 0 W/m -0,8 C -0,4 C 8,0 km/h (2 Bft) 97,87 %
28.01.2023 23:16 -0,5 C 3,9 C -0,6 C 97 % 1027,8 hPa 0,0 l/m 4,0 km/h (1 Bft) W-SW 248 0 min 0,000 mm 0,0 UV-I 0 W/m -0,9 C -0,5 C 6,4 km/h (2 Bft) 98,00 %
28.01.2023 23:18 -0,5 C 3,9 C -0,6 C 97 % 1027,8 hPa 0,0 l/m 4,7 km/h (1 Bft) W-SW 244 0 min 0,000 mm 0,0 UV-I 0 W/m -0,9 C -0,5 C 6,4 km/h (2 Bft) 94,29 %
28.01.2023 23:20 -0,5 C 3,9 C -0,6 C 97 % 1027,8 hPa 0,0 l/m 3,2 km/h (1 Bft) W-SW 244 0 min 0,000 mm 0,0 UV-I 0 W/m -0,9 C -0,5 C 4,8 km/h (1 Bft) 98,00 %
28.01.2023 23:22 -0,5 C 3,9 C -0,6 C 97 % 1027,8 hPa 0,0 l/m 3,3 km/h (1 Bft) W-SW 245 0 min 0,000 mm 0,0 UV-I 0 W/m -0,9 C -0,5 C 6,4 km/h (2 Bft) 93,62 %
28.01.2023 23:24 -0,5 C 3,9 C -0,6 C 97 % 1027,8 hPa 0,0 l/m 4,0 km/h (1 Bft) W-SW 257 0 min 0,000 mm 0,0 UV-I 0 W/m -0,9 C -0,5 C 6,4 km/h (2 Bft) 97,87 %
28.01.2023 23:26 -0,5 C 3,9 C -0,6 C 97 % 1027,8 hPa 0,0 l/m 2,9 km/h (1 Bft) W-SW 250 0 min 0,000 mm 0,0 UV-I 0 W/m -0,9 C -0,5 C 4,8 km/h (1 Bft) 96,23 %
28.01.2023 23:28 -0,5 C 3,9 C -0,6 C 97 % 1027,8 hPa 0,0 l/m 4,2 km/h (1 Bft) W 261 0 min 0,000 mm 0,0 UV-I 0 W/m -0,9 C -0,5 C 6,4 km/h (2 Bft) 98,00 %
28.01.2023 23:30 -0,6 C 3,9 C -0,6 C 97 % 1027,8 hPa 0,0 l/m 4,0 km/h (1 Bft) W-SW 246 0 min 0,000 mm 0,0 UV-I 0 W/m -1,0 C -0,6 C 6,4 km/h (2 Bft) 97,87 %
28.01.2023 23:32 -0,5 C 3,9 C -0,6 C 97 % 1027,8 hPa 0,0 l/m 4,6 km/h (1 Bft) W-SW 248 0 min 0,000 mm 0,0 UV-I 0 W/m -0,9 C -0,5 C 6,4 km/h (2 Bft) 97,14 %
28.01.2023 23:34 -0,6 C 3,9 C -0,6 C 97 % 1027,7 hPa 0,0 l/m 4,7 km/h (1 Bft) W 269 0 min 0,000 mm 0,0 UV-I 0 W/m -1,0 C -0,6 C 6,4 km/h (2 Bft) 98,11 %
28.01.2023 23:36 -0,6 C 3,9 C -0,6 C 97 % 1027,8 hPa 0,0 l/m 3,8 km/h (1 Bft) W-SW 257 0 min 0,000 mm 0,0 UV-I 0 W/m -1,0 C -0,6 C 4,8 km/h (1 Bft) 92,11 %
28.01.2023 23:38 -0,6 C 3,9 C -0,6 C 97 % 1027,7 hPa 0,0 l/m 3,8 km/h (1 Bft) W-SW 258 0 min 0,000 mm 0,0 UV-I 0 W/m -1,0 C -0,6 C 4,8 km/h (1 Bft) 100,00 %
28.01.2023 23:40 -0,6 C 3,9 C -0,6 C 97 % 1027,7 hPa 0,0 l/m 3,9 km/h (1 Bft) W-SW 256 0 min 0,000 mm 0,0 UV-I 0 W/m -1,0 C -0,6 C 6,4 km/h (2 Bft) 100,00 %
28.01.2023 23:42 -0,6 C 3,9 C -0,6 C 97 % 1027,7 hPa 0,0 l/m 3,7 km/h (1 Bft) W-SW 251 0 min 0,000 mm 0,0 UV-I 0 W/m -1,0 C -0,6 C 6,4 km/h (2 Bft) 100,00 %
28.01.2023 23:44 -0,6 C 3,9 C -0,6 C 97 % 1027,7 hPa 0,0 l/m 5,0 km/h (1 Bft) W-SW 250 0 min 0,000 mm 0,0 UV-I 0 W/m -1,0 C -0,6 C 8,0 km/h (2 Bft) 100,00 %
28.01.2023 23:46 -0,6 C 3,9 C -0,6 C 97 % 1027,7 hPa 0,0 l/m 3,0 km/h (1 Bft) W-SW 250 0 min 0,000 mm 0,0 UV-I 0 W/m -1,0 C -0,6 C 4,8 km/h (1 Bft) 100,00 %
28.01.2023 23:48 -0,6 C 3,9 C -0,6 C 97 % 1027,7 hPa 0,0 l/m 2,4 km/h (1 Bft) W-SW 251 0 min 0,000 mm 0,0 UV-I 0 W/m -1,0 C -0,6 C 4,8 km/h (1 Bft) 98,00 %
28.01.2023 23:50 -0,6 C 3,9 C -0,6 C 97 % 1027,7 hPa 0,0 l/m 3,5 km/h (1 Bft) W-SW 258 0 min 0,000 mm 0,0 UV-I 0 W/m -1,0 C -0,6 C 4,8 km/h (1 Bft) 100,00 %
28.01.2023 23:52 -0,6 C 3,9 C -0,6 C 97 % 1027,7 hPa 0,0 l/m 2,9 km/h (1 Bft) W-SW 258 0 min 0,000 mm 0,0 UV-I 0 W/m -1,0 C -0,6 C 4,8 km/h (1 Bft) 100,00 %
28.01.2023 23:54 -0,6 C 3,9 C -0,6 C 97 % 1027,7 hPa 0,0 l/m 2,2 km/h (1 Bft) W-SW 258 0 min 0,000 mm 0,0 UV-I 0 W/m -1,0 C -0,6 C 3,2 km/h (1 Bft) 97,87 %
28.01.2023 23:56 -0,6 C 3,9 C -0,6 C 97 % 1027,7 hPa 0,0 l/m 2,7 km/h (1 Bft) W-SW 258 0 min 0,000 mm 0,0 UV-I 0 W/m -1,0 C -0,6 C 4,8 km/h (1 Bft) 100,00 %
28.01.2023 23:58 -0,6 C 3,9 C -0,6 C 97 % 1027,7 hPa 0,0 l/m 2,2 km/h (1 Bft) W-SW 258 0 min 0,000 mm 0,0 UV-I 0 W/m -1,0 C -0,6 C 3,2 km/h (1 Bft) 100,00 %
_ Min-Zeit 06:56 00:00 06:56 09:08 01:10 - 04:38 - - - - - - 06:56 14:46 04:38 00:02
Minimum _ -1,8 C 3,9 C -2,8 C 93 % 1021,3 hPa - 0,0 km/h (0 Bft) - - - - - - -2,6 C -4,2 C 0,0 km/h (0 Bft) 9,52 %
_ Max-Zeit 15:06 00:00 10:20 21:56 22:54 10:20 14:46 - - 00:00 13:00 00:00 15:00 21:56 16:14 14:44 00:06
Maximum _ -0,4 C 3,9 C 0,0 C 97 % 1027,8 hPa 0,2 l/m 10,1 km/h
W (2 Bft)
- - 0 min 0,026 mm 0,0 UV-I 55 W/m -0,8 C -0,4 C 14,5 km/h
W (3 Bft)
100,00 %
Durchschnitt _ -1,0 C 3,9 C -1,0 C 96 % 1024,4 hPa #0,4 l/m 3,8 km/h (1 Bft) W - #0 min. #0,102 mm 0,0 UV-I 31 W/m -1,6 C -1,1 C 6,3 km/h (2 Bft) 96,63 %